     2              OBSERVATION DATA    GPS                 RINEX VERSION / TYPE
ASHTORIN MIT 28 - OCT - 96 11:10                            PGM / RUN BY / DATE
                                                            COMMENT
CHINA LAKE 1996 P-Code Ashtech data EXPT #2                 COMMENT
Original Marker Name: GS19                                  COMMENT
Campaign Name: China Lake Nov 1996                          COMMENT
4-Character Station Name: GS19                              COMMENT
6-Character Antenna Code: ASHP12                            COMMENT
Vertical Measurement Point: TGP                             COMMENT
Vertical Offset to Rinex Ref. Point: 0.0640                 COMMENT
Radial Measurement Point: OOH                               COMMENT
Radial Offset to Rinex Ref. Point: 0.1318                   COMMENT
Antenna Height from Field Measurement: 1.0240 m             COMMENT
Additional Antenna Identification Info.:                    COMMENT
Ashtech L1/L2 Revision B (700228DE)                         COMMENT
Original XYZ: -2455781.9300 -4602727.8900 3658823.2300      COMMENT
New XYZ position is based on association with SCEC monument COMMENT
E1F4D6R5+0011. Position of that monument is believed to be  COMMENT
valid to within 1 m horizontally; vertical accuracy         COMMENT
should be no worse than 3-times this value.                 COMMENT
                                                            COMMENT
Revised Rinex header created by UCSD GPS archive for        COMMENT
GSAC on 01-Aug-2000 (2000:214) 04:16:59 GMT                 COMMENT
For assistance contact dagnew@ucsd.edu                      COMMENT
or anderson@python.ucsd.edu                                 COMMENT
                                                            COMMENT
SNORT A 1950                                                MARKER NAME
                                                            MARKER NUMBER
LCS US DEFENSE MAPPING AGENCY                               OBSERVER / AGENCY
456 ASHTECH Z-XII3 1G001C7                                  REC # / TYPE / VERS
443 ASHTECH GEODETIC P                                      ANT # / TYPE
 -2415084.7300 -4592334.8302  3697983.7270                  APPROX POSITION XYZ
        0.9515        0.0000        0.0000                  ANTENNA: DELTA H/E/N
     1     1     0                                          WAVELENGTH FACT L1/2
     7    L1    L2    C1    P1    P2    D1    D2            # / TYPES OF OBSERV
    30                                                      INTERVAL
  1996    10     9    15    17   30.000000                  TIME OF FIRST OBS
  1996    10     9    21    29   60.000000                  TIME OF LAST OBS
                                                            END OF HEADER
 96 10  9 15 17 30.0000000  0  9 22 21 30 28 26  6 23 17 10         -0.000342127
    -83996.19419    -51474.66856  22374522.428           0.0005          0.0005
      2507.279        1953.724
   -146515.17919    -92121.97056  23655441.601           0.0005          0.0005
      4497.196        3504.309
     75651.63219     47336.57356  22480736.696           0.0005          0.0005
     -2307.306       -1797.901
   -139385.26719    -87303.36657  21342446.258           0.0005   21342452.3825
      4260.459        3319.838
    -81291.46319    -50592.44457  21007522.954           0.0005   21007530.3325
      2463.742        1919.799
    -24109.22219    -14538.04158  18905999.969    18905999.9685   18906005.6635
       580.359         452.228
   -119504.49619    -73001.47855  20454605.220           0.0005          0.0005
      3566.971        2779.458
    -73970.31519    -47199.30058  19656535.791           0.0005   19656542.1625
      2302.359        1794.046
     60430.63919     35387.82552  23184103.922           0.0005          0.0005
     -2238.068       -1743.949
 96 10  9 15 18 30.0000000  0  9 22 21 30 28 26  6 23 17 10          0.000417710
   -233555.328 9   -168014.36056  23845024.714    23845024.6455   23845030.8345
      2478.882        1931.596
   -416263.275 9   -302315.34656  25103073.952    25103072.4765   25103080.1725
      4495.368        3502.884
    214002.817 9    155142.51156  24006026.789    24006026.6755   24006033.2425
     -2304.580       -1795.777
   -394809.361 9   -286335.100 9  22792804.020    22792803.5411   22792809.080
      4254.739        3315.381
   -228242.934 9   -165100.05147  22478523.396    22478522.8415   22478528.7144
      2435.356        1897.680
    -58118.031 9    -41038.42758  20398489.976    20398490.7025   20398496.3495
       553.274         431.123
   -332985.627 9   -238927.30355  21912944.775           0.0004          0.0005
      3549.828        2766.100
   -211895.788 9   -154673.68548  21129251.662    21129251.8335   21129258.1674
      2295.692        1788.851
    194672.307 9    139991.84456  24708612.220    24708610.0205   24708616.6445
     -2236.675       -1742.864
 96 10  9 15 19  0.0000000  0  9 22 21 30 28 26  6 23 17 10          0.000394405
   -307724.067 9   -225808.19256  23830909.995    23830911.0275   23830917.0905
      2465.206        1920.940
   -551124.738 9   -407402.20556  25077407.939    25077409.3875   25077416.8485
      4494.916        3502.532
    283106.997 9    208989.86856  24019176.967    24019176.7485   24019183.2735
     -2302.814       -1794.401
   -522419.351 9   -385771.44819  22768521.583    22768520.2011   22768525.7111
      4252.043        3313.280
   -301096.377 9   -221868.95057  22464660.751    22464659.4385   22464665.1815
      2420.998        1886.492
    -74511.350 9    -53812.46248  20395372.318    20395371.1474   20395376.8334
       539.228         420.178
   -439354.991 9    -67040.38958  21892702.947           0.0005   21892708.4285
      3540.852        2759.105
   -280727.113 9   -208308.48358  21116154.533    21116153.7065   21116160.0245
      2292.285        1786.196
    261747.978 9    192258.55156  24721376.060    24721374.7745   24721380.7685
     -2235.657       -1742.070
 96 10  9 15 19 30.0000000  0  9 22 21 30 28 26  6 23 17 10          0.000371071
   -381454.277 9   -283260.31746  23816880.592    23816880.7414   23816886.7954
      2450.181        1909.232
   -685942.934 9   -512455.33445  25051753.698    25051754.2454   25051761.8324
      4493.143        3501.150
    352177.635 9    262811.10646  24032320.127    24032320.5554   24032327.0124
     -2301.874       -1793.668
   -649916.334 9   -485119.735 9  22744259.005    22744258.349    22744263.835
      4247.834        3310.001
   -373494.459 9   -278283.02747  22450882.963    22450882.6254   22450888.2904
      2405.652        1874.534
    -90457.841 9    -66238.30748  20392337.312    20392336.6694   20392342.3744
       523.988         408.302
   -545416.940 9   -149686.05048  21872519.808    21872519.5525   21872525.5244
      3530.072        2750.705
   -349409.494 9   -261827.21848  21103084.396    21103083.9284   21103090.2154
      2286.641        1781.798
    328830.580 9    244530.66746  24734141.445    24734140.1644   24734146.1454
     -2236.402       -1742.651
 96 10  9 15 20  0.0000000  0  9 22 21 30 28 26  6 23 17 10          0.000347707
   -454724.452 9   -340353.95846  23802937.922    23802937.8924   23802944.0574
      2435.606        1897.875
   -820704.614 9   -617464.44646  25026109.570    25026109.9964   25026117.3534
      4492.079        3500.321
    421221.091 9    316611.14446  24045458.898    24045459.0754   24045465.6844
     -2299.884       -1792.117
   -777281.135 9   -584365.022 9  22720021.689    22720021.653    22720027.127
      4244.237        3307.198
   -445423.401 9   -334331.54447  22437195.113    22437195.0234   22437200.6494
      2390.798        1862.959
   -105940.133 9    -78302.44048  20389390.838    20389390.5184   20389396.2334
       509.166         396.753
   -651143.923 9   -232070.70048  21852400.674    21852400.4134   21852406.4164
      3519.432        2742.415
   -417908.550 9   -315203.10248  21090049.238    21090049.0024   21090055.3084
      2280.996        1777.399
    395927.687 9    296814.06246  24746909.401    24746908.3764   24746914.3284
     -2235.693       -1742.098
 96 10  9 15 20 30.0000000  0  9 22 21 30 28 26  6 23 17 10          0.000324319
   -527509.083 9   -397069.25946  23789087.731    23789087.4904   23789093.6614
      2417.663        1883.893
   -955373.445 9   -722401.18246  25000482.795    25000483.4514   25000490.8274
      4486.664        3496.102
    490258.889 9    370406.78546  24058596.248    24058596.5704   24058603.1874
     -2301.662       -1793.503
   -904489.093 9   -683488.091 9  22695814.775    22695814.828    22695820.244
      4237.153        3301.678
   -516859.777 9   -389996.23647  22423600.903    22423601.1424   22423606.7484
      2372.488        1848.692
   -120922.461 9    -89976.98648  20386539.683    20386539.4954   20386545.1904
       490.622         382.303
   -756495.569 9   -314162.87748  21832352.939    21832352.6654   21832358.7114
      3504.905        2731.095
   -486181.677 9   -368402.93848  21077057.279    21077057.1104   21077063.3654
      2271.556        1770.044
    463044.573 9    349112.89346  24759681.476    24759680.3014   24759686.2124
     -2238.094       -1743.969
 96 10  9 15 21  0.0000000  0  9 22 21 30 28 26  6 23 17 10          0.000300910
   -599790.352 9   -453392.33346  23775333.139    23775332.8734   23775339.0624
      2401.024        1870.928
  -1089904.583 9   -827230.63146  24974882.625    24974883.0584   24974890.5054
      4482.141        3492.577
    559312.069 9    424214.40046  24071736.537    24071736.9564   24071743.6324
     -2302.003       -1793.769
  -1031515.381 9   -782469.610 9  22671642.486    22671642.603    22671647.893
      4231.237        3297.068
   -587776.245 9   -445255.81147  22410105.962    22410106.1684   22410111.7634
      2355.322        1835.316
   -135385.666 9   -101247.02348  20383787.308    20383787.2454   20383792.9424
       473.754         369.159
   -861444.571 9   -395941.30548  21812381.771    21812381.5684   21812387.6384
      3491.886        2720.950
   -554200.136 9   -421404.32948  21064113.740    21064113.6364   21064119.9014
      2263.041        1763.409
    530209.484 9    401449.14246  24772462.096    24772461.3714   24772467.2904
     -2239.626       -1745.163
 96 10  9 15 21 30.0000000  0  9 22 21 30 28 26  6 23 17 10          0.000277508
   -671541.637 9   -509302.42646  23761679.441    23761679.0644   23761685.3214
      2381.990        1856.096
  -1224267.613 9   -931929.08546  24949314.142    24949314.6634   24949322.0944
      4475.133        3487.117
    628410.221 9    478057.07146  24084885.542    24084886.0034   24084892.6954
     -2304.871       -1796.003
  -1158333.690 9   -881289.059 9  22647509.896    22647509.918    22647515.156
      4223.016        3290.662
   -658146.872 9   -500090.05147  22396714.836    22396715.0844   22396720.6694
      2335.783        1820.091
   -149317.171 9   -112102.75748  20381136.342    20381136.2464   20381141.9344
       454.666         354.285
   -965987.933 9   -477403.64848  21792487.767    21792487.6114   21792493.7154
      3477.417        2709.676
   -621936.059 9   -474185.56848  21051224.060    21051223.9454   21051230.1764
      2252.671        1755.328
    597448.728 9    453843.31946  24785257.500    24785256.5554   24785262.3784
     -2243.460       -1748.151
 96 10  9 15 22  0.0000000  0  9 22 21 30 28 26  6 23 17 10          0.000254136
   -742737.194 9   -564779.47546  23748131.247    23748131.0414   23748137.2754
      2364.099        1842.155
  -1358440.458 9  -1036479.31946  24923782.143    24923782.3024   24923789.9054
      4469.537        3482.756
    697578.769 9    531954.59346  24098047.896    24098048.4044   24098055.1114
     -2306.588       -1797.341
  -1284925.968 9   -979932.384 9  22623420.223    22623420.206    22623425.436
      4216.203        3285.353
   -727947.008 9   -554479.75247  22383432.280    22383432.5864   22383438.1664
      2317.438        1805.796
   -162692.233 9   -122524.89848  20378591.212    20378591.1124   20378596.7904
       436.695         340.282
  -1070125.429 9   -558549.73348  21772671.002    21772670.8724   21772677.0644
      3464.766        2699.818
   -689394.288 9   -526750.41948  21038387.114    21038387.0734   21038393.3114
      2244.432        1748.908
    664776.987 9    506306.84046  24798070.117    24798068.7184   24798074.5284
     -2245.533       -1749.766
 96 10  9 15 22 30.0000000  0  9 22 21 30 28 26  6 23 17 10          0.000230792
   -813381.088 9   -619826.67146  23734688.203    23734687.9884   23734694.2874
      2345.464        1827.634
  -1492445.657 9  -1140898.93746  24898281.672    24898281.9724   24898289.5854
      4464.037        3478.470
    766810.887 9    585901.65046  24111222.054    24111222.9484   24111229.6064
     -2308.823       -1799.083
  -1411301.468 9  -1078406.793 9  22599371.810    22599371.783    22599377.018
      4208.689        3279.498
   -797189.319 9   -608434.79247  22370255.776    22370256.2534   22370261.8464
      2298.529        1791.062
   -175519.679 9   -132520.32148  20376150.210    20376150.1724   20376155.8144
       418.440         326.057
  -1173871.115 9   -639390.51248  21752928.826    21752928.7364   21752934.9784
      3451.401        2689.403
   -756607.907 9   -579124.66748  21025596.772    21025596.7754   21025603.0104
      2236.573        1742.784
    732184.347 8    558832.00146  24810897.318    24810895.8494   24810901.7504
     -2248.523       -1752.096
 96 10  9 15 23  0.0000000  0  9 22 21 30 28 26  6 23 17 10          0.000207494
   -883462.703 9   -674435.72146  23721352.148    23721351.9774   23721358.2444
      2326.606        1812.940
  -1626293.346 9  -1245195.78546  24872811.473    24872811.6364   24872819.3884
      4459.365        3474.830
    836104.144 9    639896.34646  24124408.307    24124409.1044   24124415.7334
     -2310.553       -1800.431
  -1537448.175 9  -1176702.921 9  22575366.994    22575366.886    22575372.099
      4201.216        3273.675
   -865856.436 9   -661941.62748  22357189.013    22357189.4194   22357194.9724
      2279.472        1776.212
   -187800.073 9   -142089.46748  20373813.277    20373813.3334   20373818.9394
       400.421         312.016
  -1277212.893 9   -719916.55948  21733263.539    21733263.4554   21733269.7474
      3438.343        2679.228
   -823590.323 9   -631318.75248  21012850.433    21012850.4874   21012856.6854
      2229.166        1737.012
    799684.161 8    611429.19945  24823741.701    24823740.5284   24823746.6594
     -2251.220       -1754.197
 96 10  9 15 23 30.0000000  0  9 22 21 30 28 26  6 23 17 10          0.000184262
   -952935.784 9   -728570.58646  23708131.980    23708131.7234   23708137.9364
      2305.372        1796.394
  -1759968.247 9  -1349358.00646  24847373.828    24847374.1044   24847381.9584
      4452.573        3469.537
    905480.030 9    693955.41746  24137610.555    24137610.9374   24137617.6534
     -2313.931       -1803.063
  -1663336.522 9  -1274797.732 9  22551411.012    22551411.128    22551416.341
      4191.728        3266.282
   -933925.076 9   -714982.10848  22344235.886    22344236.3374   22344241.9534
      2258.882        1760.168
   -199510.296 9   -151214.32048  20371584.960    20371585.0284   20371590.5924
       380.715         296.661
  -1380132.461 9   -800113.60848  21713678.624    21713678.5174   21713684.8514
      3423.256        2667.472
   -890328.846 9   -683322.79848  21000150.541    21000150.5884   21000156.8104
      2220.407        1730.187
    867285.519 8    664105.52946  24836605.173    24836604.5354   24836610.9304
     -2255.176       -1757.280
 96 10  9 15 24  0.0000000  0  9 22 21 30 28 26  6 23 17 10          0.000161087
  -1021813.405 9   -782241.46846  23695025.042    23695024.7334   23695030.9704
      2286.577        1781.748
  -1893474.399 9  -1453388.73546  24821968.711    24821968.7624   24821976.5954
      4447.843        3465.852
    974916.515 9    748061.73946  24150823.970    24150824.2894   24150831.1054
     -2315.162       -1804.022
  -1788977.053 9  -1372699.434 9  22527502.396    22527502.534    22527507.736
      4184.268        3260.468
  -1001414.201 9   -767571.02348  22331392.937    22331393.5794   22331399.2014
      2240.336        1745.716
   -210671.052 9   -159911.02248  20369461.240    20369461.2484   20369466.7874
       363.409         283.176
  -1482627.779 9   -879980.08048  21694174.428    21694174.2994   21694180.6624
      3409.752        2656.950
   -956840.556 9   -735150.10448  20987493.755    20987493.8274   20987500.0754
      2213.570        1724.860
    934960.818 8    716839.47045  24849483.688    24849482.7784   24849489.1824
     -2256.597       -1758.387
 96 10  9 15 24 30.0000000  0  9 22 21 30 28 26  6 23 17 10          0.000137966
  -1090114.879 9   -835463.38946  23682027.710    23682027.3724   23682033.6504
      2267.001        1766.494
  -2026820.173 9  -1557294.49646  24796594.103    24796593.8924   24796601.7634
      4441.830        3461.166
   1044403.686 9    802207.53246  24164046.687    24164047.3074   24164054.1584
     -2317.193       -1805.605
  -1914373.556 9  -1470410.982 9  22503640.345    22503640.331    22503645.604
      4175.528        3253.658
  -1068326.053 9   -819710.11847  22318659.906    22318660.6574   22318666.3204
      2220.414        1730.193
   -221303.910 9   -168196.38648  20367437.859    20367437.9124   20367443.4684
       345.552         269.261
  -1584699.012 9   -959516.09348  21674750.827    21674750.7444   21674757.1534
      3395.055        2645.497
  -1023123.426 9   -786799.09148  20974880.558    20974880.6354   20974886.8734
      2205.135        1718.287
   1002698.467 9    769622.01645  24862373.873    24862372.8344   24862379.1794
     -2259.321       -1760.510
 96 10  9 15 25  0.0000000  0  9 22 21 30 28 26  6 23 17 10          0.000114914
  -1157825.244 9   -888224.72146  23669142.807    23669142.4844   23669148.8014
      2247.478        1751.282
  -2159968.904 9  -1661046.71746  24771256.806    24771256.5494   24771264.4634
      4435.154        3455.964
   1113960.072 9    856407.26546  24177282.928    24177283.4454   24177290.3424
     -2319.536       -1807.431
  -2039499.132 9  -1567911.422 9  22479829.573    22479829.692    22479835.028
      4166.634        3246.728
  -1134634.870 9   -871379.31948  22306042.007    22306042.4854   22306048.1384
      2200.643        1714.787
   -231397.456 9   -176061.50848  20365517.164    20365517.2274   20365522.7894
       327.767         255.403
  -1686327.689 9  -1038707.25548  21655411.461    21655411.3914   21655417.8244
      3380.760        2634.358
  -1089132.383 9   -838234.64448  20962319.447    20962319.5664   20962325.7984
      2195.785        1711.001
   1070525.248 8    822473.99045  24875280.929    24875279.8334   24875286.2494
     -2262.074       -1762.655
 96 10  9 15 25 30.0000000  0  9 22 21 30 28 26  6 23 17 10          0.000091919
  -1224960.036 9   -940537.56146  23656367.460    23656367.1304   23656373.5104
      2228.814        1736.738
  -2292908.492 9  -1764635.96046  24745958.864    24745958.9194   24745966.9554
      4427.993        3450.384
   1183593.950 9    910667.39046  24190534.094    24190534.3704   24190541.2744
     -2322.068       -1809.404
  -2164352.162 9  -1665199.482 9  22456070.880    22456070.970    22456076.302
      4157.397        3239.530
  -1200348.242 9   -922584.53048  22293537.070    22293537.6844   22293543.3294
      2180.690        1699.239
   -240950.992 9   -183505.83248  20363699.144    20363699.2634   20363704.8704
       309.599         241.246
  -1787526.663 9  -1117563.58548  21636153.993    21636153.8674   21636160.2614
      3366.156        2622.979
  -1154849.398 9   -889442.70348  20949813.931    20949814.0424   20949820.2844
      2185.703        1703.145
   1138439.784 9    875394.35345  24888205.138    24888203.7024   24888210.1634
     -2265.147       -1765.050
 96 10  9 15 26  0.0000000  0  9 22 21 30 28 26  6 23 17 10          0.000068967
  -1291554.150 9   -992429.08246  23643694.814    23643694.6314   23643701.0864
      2211.211        1723.022
  -2425642.434 9  -1868064.96646  24720700.639    24720700.4704   24720708.5254
      4421.581        3445.388
   1253290.699 9    964976.50246  24203797.083    24203797.2744   24203804.0614
     -2323.860       -1810.800
  -2288933.782 9  -1762276.065 9  22432363.757    22432363.857    22432369.234
      4148.553        3232.639
  -1265459.699 9   -973320.72148  22281146.847    22281147.4484   22281153.0604
      2160.647        1683.621
   -249962.408 9   -190527.72748  20361984.287    20361984.4394   20361990.0734
       291.571         227.198
  -1888286.465 9  -1196077.70148  21616980.087    21616979.9404   21616986.3334
      3351.707        2611.720
  -1220262.482 9   -940413.93848  20937366.168    20937366.3294   20937372.6284
      2175.770        1695.405
   1206448.246 9    928387.90446  24901146.516    24901145.3904   24901152.0024
     -2268.329       -1767.529
 96 10  9 15 26 30.0000000  0  9 22 21 30 28 26  6 23 17 10          0.000046034
  -1357634.058 9  -1043919.94246  23631120.194    23631120.0164   23631126.3914
      2193.977        1709.592
  -2558207.536 9  -1971362.40846  24695474.115    24695474.1884   24695482.3024
      4416.135        3441.144
   1323019.754 9   1019310.76946  24217066.174    24217066.4154   24217073.0634
     -2324.595       -1811.373
  -2413268.958 9  -1859160.610 9  22408703.710    22408703.651    22408709.046
      4140.451        3226.325
  -1329997.241 9  -1023609.70348  22268865.726    22268866.4384   22268871.9994
      2141.970        1669.068
   -258448.418 9   -197140.21348  20360369.498    20360369.6424   20360375.2564
       274.170         213.639
  -1988634.508 9  -1274270.96948  21597884.528    21597884.3904   21597890.7274
      3338.018        2601.053
  -1285399.022 9   -991169.67848  20924971.135    20924971.2594   20924977.5884
      2166.686        1688.327
   1274528.745 9    981437.59046  24914101.686    24914100.8184   24914107.3234
     -2270.357       -1769.109
 96 10  9 15 27  0.0000000  0  9 22 21 30 28 26  6 23 17 10          0.000023130
  -1423158.413 9  -1094977.88946  23618651.361    23618651.1044   23618657.5124
      2174.581        1694.479
  -2690571.052 9  -2074502.75546  24670286.463    24670286.2424   24670294.4164
      4408.573        3435.252
   1392802.809 9   1073687.11446  24230345.344    24230345.7384   24230352.3774
     -2327.260       -1813.449
  -2537329.013 9  -1955830.775 9  22385095.817    22385095.772    22385101.168
      4130.506        3218.576
  -1393940.407 9  -1073435.54448  22256697.789    22256698.5054   22256704.0404
      2121.351        1653.001
   -266370.706 9   -203313.43848  20358861.961    20358862.0884   20358867.6624
       254.291         198.149
  -2088528.846 9  -1352110.69848  21578875.352    21578875.1674   21578881.5124
      3321.901        2588.494
  -1350229.874 9  -1041687.22648  20912634.279    20912634.3574   20912640.6774
      2155.830        1679.868
   1342696.502 9   1034555.26546  24927073.253    24927072.8544   24927079.4164
     -2273.824       -1771.811
 96 10  9 15 27 30.0000000  0  9 22 21 30 28 26  6 23 17 10          0.000000254
  -1488117.705 9  -1145595.53146  23606289.995    23606289.7864   23606296.2064
      2155.575        1679.669
  -2822736.648 9  -2177488.90846  24645136.236    24645136.0594   24645144.2204
      4402.104        3430.211
   1462631.528 9   1128099.04846  24243633.137    24243633.7524   24243640.4624
     -2328.388       -1814.328
  -2661114.604 9  -2052287.073 9  22361540.117    22361540.141    22361545.541
      4121.426        3211.501
  -1457285.940 9  -1122795.69148  22244643.668    22244644.2904   22244649.8124
      2101.393        1637.449
   -273719.258 9   -209039.59348  20357463.539    20357463.7274   20357469.3154
       235.207         183.278
  -2187955.383 9  -1429585.90848  21559955.106    21559954.9064   21559961.2844
      3306.044        2576.138
  -1414767.823 9  -1091976.53448  20900353.110    20900353.2154   20900359.5414
      2146.347        1672.478
   1410940.220 9   1087732.11746  24940059.758    24940059.2834   24940065.9704
     -2276.341       -1773.772
 96 10  9 15 28  0.0000000  0  9 22 21 30 28 26  6 23 17 10         -0.000022594
  -1552494.955 9  -1195759.62746  23594039.370    23594039.1734   23594045.6294
      2135.783        1664.246
  -2954716.089 9  -2280330.00746  24620021.191    24620021.2134   24620029.4124
      4396.352        3425.729
   1532493.205 9   1182536.66746  24256927.577    24256928.0554   24256934.7744
     -2329.365       -1815.090
  -2784628.895 9  -2148531.966 9  22338036.004    22338036.133    22338041.571
      4112.590        3204.616
  -1520041.252 9  -1171695.92148  22232701.815    22232702.3704   22232707.8834
      2082.156        1622.459
   -280497.947 9   -214321.71048  20356173.616    20356173.8264   20356179.3954
       216.363         168.595
  -2286905.963 9  -1506690.24548  21541125.403    21541125.2534   21541131.5974
      3290.539        2564.056
  -1479025.879 9  -1142047.74548  20888125.244    20888125.2904   20888131.6474
      2137.454        1665.549
   1479256.553 9   1140965.55646  24953060.215    24953059.5894   24953066.1744
     -2278.291       -1775.292
 96 10  9 15 28 29.9990000  0  9 22 21 30 28 26  6 23 17 10         -0.000045415
  -1616266.819 9  -1245452.00346  23581904.081    23581903.8334   23581910.2824
      2116.001        1648.832
  -3086531.794 9  -2383043.50546  24594937.640    24594937.4374   24594945.6804
      4391.671        3422.081
   1602372.791 9   1236988.23046  24270225.476    24270225.8054   24270232.5324
     -2329.192       -1814.955
  -2907881.491 9  -2244572.942 9  22314581.839    22314581.938    22314587.426
      4104.567        3198.364
  -1582229.229 9  -1220154.07948  22220867.724    22220868.3994   22220873.9374
      2063.854        1608.198
   -286715.351 9   -219166.45948  20354990.572    20354990.7344   20354996.3164
       198.168         154.417
  -2385400.658 9  -1583439.34948  21522382.524    21522382.3784   21522388.6804
      3276.063        2552.776
  -1543030.170 9  -1191921.21448  20875945.566    20875945.6664   20875952.0454
      2129.701        1659.507
   1547619.448 9   1194235.28346  24966069.341    24966068.8114   24966075.2164
     -2279.428       -1776.178
 96 10  9 15 28 59.9990000  0  9 22 21 30 28 26  6 23 17 10         -0.000068193
  -1679411.566 9  -1294655.69046  23569887.893    23569887.7684   23569894.2314
      2094.665        1632.206
  -3218163.851 9  -2485613.90746  24569888.877    24569888.6464   24569896.8234
      4384.786        3416.716
   1672291.933 9   1291470.61446  24283530.710    24283531.0534   24283537.8184
     -2331.171       -1816.497
  -3030854.735 9  -2340396.243 9  22291180.796    22291180.952    22291186.458
      4094.609        3190.604
  -1643819.667 9  -1268146.61748  22209147.512    22209148.0924   22209153.6504
      2043.112        1592.035
   -292343.186 9   -223551.80748  20353919.733    20353919.8234   20353925.4034
       178.012         138.711
  -2483426.615 9  -1659823.19748  21503728.793    21503728.6994   21503734.9674
      3260.232        2540.441
  -1606764.687 9  -1241584.46848  20863817.314    20863817.3884   20863823.7804
      2120.316        1652.194
   1616068.897 8   1247572.47145  24979094.232    24979094.3594   24979100.7964
     -2283.058       -1779.006
 96 10  9 15 29 29.9990000  0  9 22 21 30 28 26  6 23 17 10         -0.000090907
  -1741922.498 9  -1343365.51846  23557992.549    23557992.3674   23557998.8054
      2074.399        1616.415
  -3349590.436 9  -2588024.19946  24544879.185    24544879.0144   24544887.0844
      4378.392        3411.734
   1742264.342 9   1345994.49646  24296846.315    24296846.4964   24296853.3064
     -2332.178       -1817.282
  -3153530.644 9  -2435987.851 9  22267836.423    22267836.528    22267842.057
      4085.263        3183.322
  -1704782.340 9  -1315649.99148  22197546.711    22197547.3084   22197552.8164
      2022.640        1576.083
   -297371.379 9   -227469.89048  20352962.903    20352963.0284   20352968.5924
       158.643         123.618
  -2580988.058 9  -1735845.08448  21485163.472    21485163.3804   21485169.6284
      3245.363        2528.854
  -1670222.127 9  -1291031.82648  20851741.800    20851741.8784   20851748.2364
      2111.638        1645.432
   1684627.384 9   1300994.57946  24992139.900    24992140.5104   24992147.0694
     -2286.060       -1781.345
 96 10  9 15 29 59.9990000  0  9 22 21 30 28 26  6 23 17 10         -0.000113571
  -1803826.489 9  -1391602.39146  23546212.788    23546212.5134   23546218.8814
      2053.099        1599.817
  -3480820.878 9  -2690281.65046  24519906.960    24519906.7164   24519914.5924
      4370.766        3405.792
   1812279.205 9   1400551.47546  24310169.915    24310170.0304   24310176.8274
     -2334.862       -1819.373
  -3275920.232 9  -2531356.357 9  22244546.589    22244546.577    22244552.156
      4074.598        3175.011
  -1765129.434 9  -1362673.69448  22186063.112    22186063.6634   22186069.1314
      2000.932        1559.168
   -301809.660 9   -230928.29948  20352118.417    20352118.5104   20352124.0584
       137.881         107.440
  -2678100.852 9  -1811517.37748  21466683.492    21466683.4194   21466689.6544
      3229.442        2516.448
  -1733410.802 9  -1340269.75248  20839717.399    20839717.5044   20839723.8454
      2101.541        1637.564
   1753281.049 8   1354490.86646  25005204.752    25005204.9334   25005211.6924
     -2290.255       -1784.614
 96 10  9 15 30 29.9990000  0  9 22 21 30 28 26  6 23 17 10         -0.000136159
  -1865109.542 9  -1439355.42546  23534551.062    23534550.8344   23534557.1634
      2033.376        1584.449
  -3611813.822 9  -2792354.05346  24494979.894    24494979.6574   24494987.3844
      4362.739        3399.537
   1882366.230 9   1455164.66846  24323507.180    24323507.2324   24323514.1084
     -2336.856       -1820.927
  -3397992.393 9  -2626477.516 9  22221316.933    22221317.039    22221322.602
      4064.357        3167.031
  -1824814.001 9  -1409181.14348  22174705.548    22174706.0284   22174711.4884
      1978.845        1541.957
   -305635.749 9   -233909.68048  20351390.369    20351390.4594   20351396.0004
       118.162          92.074
  -2774741.692 9  -1886821.91648  21448293.391    21448293.3004   21448299.5414
      3214.133        2504.519
  -1796300.394 9  -1389274.62648  20827749.966    20827750.0384   20827756.3344
      2091.768        1629.949
   1822055.798 9   1408081.53546  25018292.741    25018292.2984   25018299.1744
     -2293.929       -1787.477
 96 10  9 15 30 59.9990000  0  9 22 21 30 28 26  6 23 17 10         -0.000158689
  -1925834.913 9  -1486673.91346  23522995.613    23522995.2584   23523001.5384
      2014.498        1569.739
  -3742577.743 9  -2894247.99646  24470096.166    24470096.1694   24470103.7734
      4354.556        3393.160
   1952498.090 9   1509812.80246  24336853.040    24336853.0634   24336859.9424
     -2338.825       -1822.461
  -3519782.454 9  -2721378.857 9  22198141.086    22198141.187    22198146.760
      4054.586        3159.418
  -1883860.606 9  -1455191.47748  22163469.222    22163469.7864   22163475.2324
      1957.278        1525.152
   -308908.961 9   -236460.25548  20350767.440    20350767.6104   20350773.1754
        99.666          77.662
  -2870951.033 9  -1961790.22248  21429985.280    21429985.2414   21429991.5064
      3199.382        2493.025
  -1858912.411 9  -1438063.21148  20815835.342    20815835.3854   20815841.6614
      2082.002        1622.339
   1890907.465 9   1461732.13246  25031395.449    25031394.3354   25031401.3284
     -2296.517       -1789.494
 96 10  9 15 31 29.9990000  0  9 22 21 30 28 26  6 23 17 10         -0.000181170
  -1986011.174 9  -1533564.50346  23511544.404    23511544.0474   23511550.3934
      1996.485        1555.703
  -3873112.621 9  -2995963.45446  24445256.188    24445256.2394   24445263.8774
      4347.099        3387.350
   2022666.607 9   1564489.50246  24350205.917    24350205.8124   24350212.6334
     -2339.663       -1823.114
  -3641291.220 9  -2816060.999 9  22175018.720    22175018.825    22175024.457
      4045.207        3152.109
  -1942278.894 9  -1500712.21048  22152352.576    22152353.1774   22152358.6214
      1936.644        1509.073
   -311642.678 9   -238590.43948  20350247.263    20350247.4184   20350252.9824
        81.721          63.679
  -2966721.453 9  -2036416.50848  21411760.743    21411760.7344   21411767.0064
      3184.479        2481.412
  -1921238.687 9  -1486629.13348  20803975.018    20803975.0934   20803981.3834
      2072.397        1614.855
   1959810.897 9   1515423.08045  25044507.411    25044506.1634   25044513.3674
     -2297.929       -1790.594
 96 10  9 15 31 59.9990000  0  9 22 21 30 28 26  6 23 17 10         -0.000203611
  -2045635.133 9  -1580024.73446  23500198.421    23500197.9814   23500204.3244
      1977.583        1540.974
  -4003421.728 9  -3097503.00546  24420459.264    24420459.2314   24420466.8444
      4339.410        3381.358
   2092860.592 9   1619186.03646  24363563.266    24363563.4044   24363570.2274
     -2340.626       -1823.864
  -3762511.919 9  -2910518.680 9  22151951.259    22151951.323    22151956.945
      4035.402        3144.469
  -2000078.649 9  -1545750.97148  22141353.684    22141354.2824   22141359.7274
      1915.753        1492.794
   -313831.899 9   -240296.33948  20349830.656    20349830.8214   20349836.4114
        63.593          49.553
  -3062046.812 9  -2110695.99648  21393620.943    21393620.9324   21393627.1924
      3169.891        2470.045
  -1983279.012 9  -1534972.24348  20792169.096    20792169.2294   20792175.5374
      2062.890        1607.447
   2028764.945 9   1569153.48545  25057628.589    25057627.7674   25057635.0074
     -2299.808       -1792.058
 96 10  9 15 32 29.9990000  0  9 22 21 30 28 26  6 23 17 10         -0.000226016
  -2104714.681 9  -1626060.76147  23488956.030    23488955.6014   23488961.8874
      1958.963        1526.465
  -4133517.490 9  -3198876.30046  24395702.725    24395702.8174   24395710.3414
      4331.846        3375.464
   2163051.686 9   1673880.34646  24376920.126    24376920.3834   24376927.1834
     -2340.574       -1823.824
  -3883462.831 9  -3004766.129 9  22128935.062    22128935.138    22128940.778
      4026.094        3137.216
  -2057277.800 9  -1590321.72448  22130469.179    22130469.6954   22130475.1014
      1895.730        1477.192
   -315507.478 9   -241601.99348  20349511.802    20349512.0104   20349517.6064
        46.079          35.906
  -3156959.547 9  -2184653.95648  21375559.722    21375559.6424   21375565.8974
      3155.649        2458.947
  -2045061.843 9  -1583114.70248  20780412.258    20780412.3624   20780418.6744
      2053.995        1600.515
   2097749.993 9   1622908.03545  25070755.995    25070755.2134   25070762.4744
     -2301.117       -1793.078
 96 10  9 15 32 59.9990000  0  9 22 21 30 28 26  6 23 17 10         -0.000248391
  -2163214.393 9  -1671644.94447  23477823.832    23477823.4914   23477829.7864
      1940.205        1511.848
  -4263388.161 9  -3300074.19246  24370989.049    24370989.1684   24370996.7784
      4325.679        3370.659
   2233237.989 8   1728570.87446  24390276.015    24390276.3554   24390283.2774
     -2339.081       -1822.661
  -4004126.163 9  -3098789.496 9  22105973.349    22105973.648    22105979.320
      4017.368        3130.417
  -2113881.388 9  -1634428.40648  22119697.899    22119698.3814   22119703.7794
      1877.131        1462.699
   -316635.242 9   -242480.78748  20349297.205    20349297.4044   20349303.0344
        28.240          22.005
  -3251428.468 9  -2258266.09048  21357582.940    21357582.8294   21357589.0824
      3141.514        2447.933
  -2106574.919 9  -1631046.96748  20768706.634    20768706.8254   20768713.1244
      2046.279        1594.503
   2166782.260 9   1676699.37745  25083892.389    25083891.6964   25083899.0394
     -2301.913       -1793.698
 96 10  9 15 33 29.9990000  0  9 22 21 30 28 26  6 23 17 10         -0.000270749
  -2221126.739 9  -1716771.46247  23466803.482    23466803.1914   23466809.4584
      1920.035        1496.131
  -4393062.918 9  -3401119.45046  24346312.655    24346312.9094   24346320.4004
      4318.835        3365.326
   2303397.788 8   1783240.75946  24403626.949    24403627.4094   24403634.3104
     -2338.771       -1822.419
  -4124502.947 9  -3192589.581 9  22083066.561    22083066.711    22083072.378
      4007.292        3122.565
  -2169903.094 9  -1678081.67148  22109037.321    22109037.8324   22109043.2204
      1857.140        1447.122
   -317192.661 9   -242915.16148  20349191.122    20349191.3144   20349196.9754
         8.504           6.626
  -3345443.813 9  -2331524.78648  21339692.399    21339692.2934   21339698.5884
      3125.774        2435.668
  -2167843.316 9  -1678788.57048  20757047.659    20757047.8444   20757054.1494
      2037.904        1587.977
   2235870.995 8   1730534.70645  25097039.590    25097038.6974   25097046.1564
     -2304.518       -1795.728
 96 10  9 15 33 59.9990000  0  9 22 21 30 28 26  6 23 17 10         -0.000293087
  -2278445.121 9  -1761435.14047  23455896.236    23455895.9004   23455902.0814
      1901.134        1481.403
  -4522555.071 9  -3502022.39446  24321671.186    24321671.3174   24321678.7934
      4313.832        3361.428
   2373529.171 8   1837888.51246  24416972.211    24416972.9094   24416979.9334
     -2336.898       -1820.959
  -4244599.605 9  -3286171.391 9  22060212.877    22060213.090    22060218.753
      3999.026        3116.124
  -2225346.604 9  -1721284.39948  22098486.697    22098487.2904   22098492.6664
      1838.917        1432.922
   -317180.332 9   -242905.57548  20349193.394    20349193.6174   20349199.3264
        -9.254          -7.211
  -3439013.629 9  -2404436.31948  21321886.611    21321886.5664   21321892.8694
      3111.975        2424.916
  -2228886.816 9  -1726354.93748  20745431.471    20745431.6764   20745437.9854
      2031.308        1582.837
   2305009.405 8   1784408.77145  25110196.401    25110195.4204   25110202.8724
     -2304.832       -1795.973
 96 10  9 15 34 29.9990000  0  8 22 21 30 28 26  6 23 17            -0.000315414
  -2335183.803 9  -1805647.09947  23445099.250    23445098.9064   23445105.0774
      1881.884        1466.403
  -4651883.065 9  -3602797.43946  24297060.929    24297060.9984   24297068.4314
      4308.410        3357.203
   2443625.868 8   1892509.24246  24430311.517    24430311.8484   24430318.8514
     -2335.843       -1820.137
  -4364429.200 9  -3379545.093 9  22037410.262    22037410.278    22037415.907
      3989.913        3109.023
  -2280226.850 9  -1764048.22448  22088043.286    22088043.9454   22088049.2774
      1820.146        1418.296
   -316618.161 9   -242467.52848  20349300.252    20349300.5834   20349306.3494
       -27.867         -21.715
  -3532130.416 9  -2476994.84248  21304167.043    21304167.0314   21304173.3594
      3096.276        2412.682
  -2289704.410 9  -1773745.26548  20733858.261    20733858.4694   20733864.7764
      2023.537        1576.782
 96 10  9 15 34 59.9990000  0  8 22 21 30 28 26  6 23 17            -0.000337733
  -2391354.802 9  -1849416.71547  23434410.300    23434409.9344   23434416.0414
      1864.196        1452.620
  -4781053.437 9  -3703449.67046  24272480.624    24272480.6514   24272488.0554
      4303.974        3353.746
   2513699.993 8   1947112.36446  24443645.871    24443646.4924   24443653.5454
     -2334.567       -1819.143
  -4483981.189 9  -3472702.479 9  22014660.116    22014660.297    22014665.916
      3981.419        3102.404
  -2334534.944 9  -1806366.21048  22077708.876    22077709.4764   22077714.7894
      1801.475        1403.747
   -315496.310 9   -241593.37248  20349513.786    20349514.0874   20349519.8734
       -45.574         -35.512
  -3624779.482 9  -2549188.90748  21286536.454    21286536.5054   21286542.8444
      3081.677        2401.307
  -2350287.144 9  -1820952.59048  20722329.797    20722329.9624   20722336.2774
      2016.555        1571.341
 96 10  9 15 35 29.9990000  0  8 22 21 30 28 26  6 23 17            -0.000360029
  -2446983.914 9  -1892764.08647  23423824.496    23423824.1384   23423830.1824
      1844.560        1437.319
  -4910061.183 9  -3803975.15946  24247931.217    24247931.3254   24247938.7084
      4296.508        3347.928
   2583761.180 9   2001705.42246  24456978.270    24456978.8164   24456985.8094
     -2336.019       -1820.274
  -4603256.904 9  -3565644.587 9  21991962.664    21991962.898    21991968.509
      3970.364        3093.790
  -2388249.200 9  -1848221.46448  22067487.389    22067487.9914   22067493.2974
      1779.546        1386.659
   -313837.041 9   -240300.45148  20349829.539    20349829.8534   20349835.6344
       -64.867         -50.546
  -3716982.024 9  -2621035.03148  21268990.904    21268990.9314   21268997.2894
      3065.255        2388.510
  -2410635.033 9  -1867976.91448  20710845.977    20710846.1444   20710852.4704
      2006.577        1563.566
 96 10  9 15 35 59.9990000  0  8 22 21 30 28 26  6 23 17            -0.000382268
  -2502038.395 9  -1935663.68947  23413348.127    23413347.6614   23413353.7244
      1826.869        1423.534
  -5038847.104 9  -3904327.80446  24223424.212    24223424.1964   24223431.5294
      4290.157        3342.979
   2653856.058 9   2056324.73846  24470317.004    24470317.4734   24470324.4614
     -2335.937       -1820.211
  -4722205.053 9  -3658331.449 9  21969327.664    21969327.814    21969333.407
      3960.467        3086.078
  -2441309.723 9  -1889567.31748  22057390.273    22057390.8984   22057396.2244
      1758.801        1370.494
   -311613.084 9   -238567.51448  20350252.699    20350253.0844   20350258.8704
       -82.454         -64.250
  -3808704.980 9  -2692507.45248  21251536.604    21251536.6514   21251542.9974
      3050.697        2377.166
  -2470679.950 9  -1914765.15748  20699419.842    20699420.0014   20699426.3284
      1997.431        1556.440
 96 10  9 15 36 29.9990000  0  8 22 21 30 28 26  6 23 17            -0.000404497
  -2556606.007 9  -1978183.91547  23402964.116    23402963.8084   23402969.8684
      1809.710        1410.164
  -5167473.630 9  -4004556.23246  24198947.256    24198947.3424   24198954.6884
      4283.672        3337.926
   2723904.133 9   2110907.59246  24483647.126    24483647.1774   24483654.4124
     -2335.037       -1819.509
  -4840893.925 9  -3750816.274 9  21946741.955    21946742.059    21946747.658
      3950.889        3078.615
  -2493781.209 9  -1930454.18548  22047405.299    22047405.9424   22047411.2514
      1738.083        1354.350
   -308900.521 9   -236453.85148  20350768.963    20350769.2704   20350775.0744
       -99.668         -77.663
  -3900036.775 9  -2763675.07648  21234156.713    21234156.7854   21234163.1494
      3037.076        2366.553
  -2530495.765 9  -1961374.88448  20688037.280    20688037.4584   20688043.8094
      1989.206        1550.031
 96 10  9 15 36 59.9990000  0  8 22 21 30 28 26  6 23 17            -0.000426692
  -2610660.305 9  -2020304.14847  23392677.864    23392677.6204   23392683.7084
      1792.000        1396.364
  -5295898.213 9  -4104627.33146  24174508.860    24174508.9444   24174516.2734
      4276.218        3332.118
   2793915.181 9   2165461.57746  24496970.163    24496969.8934   24496977.2094
     -2333.998       -1818.700
  -4959296.701 9  -3843078.169 9  21924210.467    21924210.782    21924216.366
      3940.870        3070.808
  -2545622.333 9  -1970849.85748  22037540.242    22037540.9124   22037546.2024
      1716.416        1337.467
   -305673.292 9   -233939.14948  20351383.117    20351383.4204   20351389.2014
      -117.272         -91.381
  -3990975.015 9  -2834536.03048  21216851.782    21216851.8374   21216858.1734
      3023.608        2356.058
  -2590065.808 9  -2007793.09648  20676701.519    20676701.6774   20676708.0074
      1980.364        1543.141
 96 10  9 15 37 29.9990000  0  8 22 21 30 28 26  6 23 17            -0.000448839
  -2664159.689 9  -2061991.98947  23382497.170    23382497.0494   23382503.1584
      1773.047        1381.595
  -5424085.315 9  -4204513.35346  24150115.763    24150115.7944   24150123.0874
      4268.156        3325.836
   2863908.030 9   2220001.39245  24510289.218    24510289.1164   24510296.5434
     -2333.637       -1818.418
  -5077379.735 9  -3935090.915 9  21901740.023    21901740.347    21901745.941
      3929.776        3062.163
  -2596803.725 9  -2010731.45548  22027800.720    22027801.4254   22027806.7394
      1694.364        1320.284
   -301901.028 9   -230999.73948  20352100.997    20352101.2844   20352107.0684
      -135.806        -105.823
  -4081482.434 9  -2905061.28048  21199628.871    21199628.8624   21199635.1674
      3008.629        2344.386
  -2649348.256 9  -2053987.20848  20665420.435    20665420.5964   20665426.9274
      1970.321        1535.315
 96 10  9 15 37 59.9990000  0  8 22 21 30 28 26  6 23 17            -0.000470952
  -2717101.656 9  -2103245.48547  23372422.777    23372422.5954   23372428.7294
      1755.898        1368.232
  -5552050.422 9  -4304226.41446  24125764.787    24125764.9004   24125772.1014
      4262.386        3321.340
   2933864.288 9   2274512.68945  24523601.450    24523601.3094   24523608.6314
     -2330.543       -1816.008
  -5195144.655 9  -4026855.777 9  21879330.153    21879330.453    21879336.036
      3920.899        3055.246
  -2647352.218 9  -2050119.89148  22018181.679    22018182.3864   22018187.6634
      1675.307        1305.434
   -297580.909 9   -227633.43048  20352923.096    20352923.4004   20352929.1874
      -152.538        -118.861
  -4171556.232 9  -2975248.64448  21182488.296    21182488.4184   21182494.6714
      2995.948        2334.505
  -2708353.715 9  -2099965.48548  20654192.060    20654192.2304   20654198.5954
      1963.151        1529.728
 96 10  9 15 38 29.9990000  0  8 22 21 30 28 26  6 23 17            -0.000493039
  -2769470.036 9  -2144052.01547  23362457.461    23362457.2364   23362463.3994
      1735.735        1352.521
  -5679793.808 9  -4403766.70346  24101455.765    24101456.1004   24101463.3374
      4254.397        3315.115
   3003774.034 9   2328987.75445  24536905.010    24536904.8054   24536912.1924
     -2329.587       -1815.263
  -5312595.624 9  -4118376.004 9  21856980.042    21856980.280    21856985.871
      3909.637        3046.470
  -2697291.158 9  -2089033.35148  22008678.735    22008679.3144   22008684.5744
      1654.583        1289.285
   -292707.562 9   -223836.03948  20353850.523    20353850.8284   20353856.6024
      -171.738        -133.822
  -4261196.308 9  -3045098.04848  21165430.394    21165430.4934   21165436.7124
      2980.532        2322.492
  -2767097.567 9  -2145739.91648  20643013.439    20643013.6704   20643020.0204
      1953.578        1522.269
 96 10  9 15 38 59.9990000  0  8 22 21 30 28 26  6 23 17            -0.000515102
  -2821238.059 9  -2184390.74647  23352606.316    23352606.1084   23352612.3244
      1715.637        1336.860
  -5807310.779 9  -4503130.56046  24077190.208    24077190.4264   24077197.6644
      4247.021        3309.367
   3073648.797 9   2383435.59545  24550201.444    24550201.5454   24550208.8714
     -2328.581       -1814.479
  -5429712.723 9  -4209636.069 9  21834693.456    21834693.641    21834699.232
      3898.312        3037.646
  -2746624.462 9  -2127474.88148  21999290.815    21999291.5214   21999296.7754
      1634.577        1273.696
   -287267.584 9   -219597.11048  20354885.717    20354886.0354   20354891.8234
      -190.800        -148.675
  -4350376.304 9  -3114588.94648  21148460.012    21148460.1214   21148466.3194
      2964.853        2310.275
  -2825554.291 9  -2191290.61048  20631889.512    20631889.7414   20631896.0704
      1943.828        1514.671
 96 10  9 15 39 29.9990000  0  8 22 21 30 28 26  6 23 17            -0.000537126
  -2872379.733 9  -2224241.41247  23342874.379    23342874.1574   23342880.4574
      1694.450        1320.351
  -5934596.099 9  -4602313.91146  24052968.588    24052968.8684   24052976.0784
      4239.356        3303.394
   3143519.539 9   2437880.28045  24563497.628    24563497.4784   24563504.6084
     -2328.853       -1814.691
  -5546473.372 9  -4300618.380 9  21812474.643    21812474.825    21812480.410
      3886.376        3028.345
  -2795352.087 9  -2165444.46148  21990018.359    21990018.9934   21990024.2084
      1614.405        1257.978
   -281241.409 9   -214901.39148  20356032.514    20356032.7974   20356038.6004
      -210.322        -163.887
  -4439067.049 9  -3183698.60748  21131582.762    21131582.8944   21131589.0664
      2948.656        2297.654
  -2883713.434 9  -2236609.42548  20620822.238    20620822.4384   20620828.7414
      1934.173        1507.148
 96 10  9 15 39 59.9990000  0  8 22 21 30 28 26  6 23 17            -0.000559100
  -2922888.155 9  -2263598.62647  23333262.960    23333262.7004   23333269.0374
      1673.337        1303.899
  -6061661.300 9  -4701325.73347  24028788.901    24028789.1684   24028796.4184
      4232.079        3297.724
   3213379.451 9   2492316.52445  24576791.959    24576791.5954   24576798.6454
     -2328.164       -1814.154
  -5662889.377 9  -4391332.144 9  21790321.308    21790321.598    21790327.180
      3875.149        3019.597
  -2843473.756 9  -2202941.85948  21980861.116    21980861.7264   21980866.9274
      1594.036        1242.106
   -274640.983 9   -209758.21848  20357288.573    20357288.8594   20357294.6764
      -229.159        -178.565
  -4527291.668 9  -3252445.05248  21114794.188    21114794.3404   21114800.4774
      2933.483        2285.831
  -2941601.994 9  -2281717.39548  20609806.382    20609806.6104   20609812.9164
      1925.359        1500.280
 96 10  9 15 40 29.9990000  0  8 22 21 30 28 26  6 23 17            -0.000581024
  -2972777.471 9  -2302473.41947  23323769.360    23323769.0954   23323775.4014
      1652.528        1287.684
  -6188516.735 9  -4800174.09646  24004649.348    24004649.3724   24004656.6954
      4224.739        3292.004
   3283218.962 9   2546736.86645  24590081.700    24590081.5614   24590088.5384
     -2328.056       -1814.070
  -5778975.366 9  -4481788.751 9  21768230.900    21768231.176    21768236.744
      3863.654        3010.639
  -2890979.004 9  -2239958.93348  21971821.017    21971821.7874   21971826.9464
      1572.639        1225.433
   -267485.158 9   -204182.27648  20358650.273    20358650.5744   20358656.4164
      -247.965        -193.219
  -4615066.114 9  -3320840.71448  21098091.333    21098091.4354   21098097.5324
      2917.938        2273.718
  -2999225.493 9  -2326618.82348  20598841.004    20598841.2474   20598847.5524
      1915.969        1492.963
 96 10  9 15 40 59.9990000  0  8 22 21 30 28 26  6 23 17            -0.000602985
  -3022039.947 9  -2340859.76647  23314394.964    23314394.7504   23314401.0554
      1630.628        1270.619
  -6315144.978 9  -4898845.42747  23980552.634    23980552.8274   23980560.1524
      4215.936        3285.145
   3353070.248 9   2601166.38045  24603373.895    24603374.0144   24603380.6214
     -2329.700       -1815.351
  -5894707.096 9  -4571969.313 9  21746207.867    21746208.173    21746213.718
      3850.654        3000.510
  -2937815.084 9  -2276454.57548  21962908.451    21962909.1844   21962914.3174
      1548.590        1206.694
   -259765.231 9   -198166.77548  20360119.339    20360119.6664   20360125.5094
      -267.933        -208.779
  -4702359.673 9  -3388861.65848  21081479.853    21081480.0304   21081486.1344
      2900.427        2260.073
  -3056560.482 9  -2371295.43948  20587930.683    20587930.7604   20587937.0704
      1905.259        1484.617
 96 10  9 15 41 29.9990000  0  8 22 21 30 28 26  6 23 17            -0.000624734
  -3070683.817 9  -2378764.08947  23305138.342    23305138.1524   23305144.3934
      1609.206        1253.927
  -6441540.561 9  -4997335.47747  23956500.262    23956500.5554   23956507.8454
      4207.142        3278.292
   3422929.453 9   2655602.08945  24616667.653    24616667.8794   24616674.5404
     -2330.736       -1816.158
  -6010088.825 9  -4661877.146 9  21724251.413    21724251.768    21724257.304
      3838.126        2990.747
  -2983955.621 9  -2312408.24448  21954128.172    21954128.9714   21954134.0784
      1524.169        1187.664
   -251479.862 9   -191710.66548  20361696.006    20361696.3384   20361702.1844
      -287.616        -224.116
  -4789165.943 9  -3456502.90148  21064961.250    21064961.3904   21064967.4574
      2883.362        2246.776
  -3113615.902 9  -2415754.21048  20577073.337    20577073.5064   20577079.7884
      1895.066        1476.675
 96 10  9 15 41 59.9990000  0  8 22 21 30 28 26  6 23 17            -0.000646364
  -3118695.911 9  -2416176.11547  23296001.989    23296001.7954   23296008.0224
      1590.586        1239.418
  -6567660.584 9  -5095610.79847  23932500.404    23932500.6484   23932508.0094
      4199.580        3272.400
   3492816.717 8   2710059.61245  24629966.930    24629967.1884   24629973.7084
     -2329.584       -1815.260
  -6125088.934 9  -4751487.615 9  21702367.663    21702367.969    21702373.501
      3827.317        2982.325
  -3029353.166 9  -2347782.95848  21945489.480    21945490.1134   21945495.2474
      1501.473        1169.979
   -242603.066 9   -184793.69348  20363385.174    20363385.5394   20363391.4294
      -305.384        -237.962
  -4875454.178 9  -3523740.47648  21048541.159    21048541.2924   21048547.3474
      2867.956        2234.771
  -3170352.977 9  -2459964.91748  20566276.690    20566276.8074   20566283.0754
      1886.152        1469.729
 96 10  9 15 42 29.9990000  0  8 22 21 30 28 26  6 23 17            -0.000667919
  -3166109.814 9  -2453122.02147  23286979.381    23286979.2284   23286985.4684
      1571.099        1224.233
  -6693494.923 9  -5193663.51147  23908554.760    23908555.1674   23908562.5124
      4190.318        3265.183
   3562722.766 8   2764531.78745  24643269.843    24643269.9784   24643276.4154
     -2329.830       -1815.452
  -6239708.317 9  -4840801.414 9  21680556.348    21680556.632    21680562.140
      3814.846        2972.607
  -3074032.560 9  -2382598.07048  21936987.185    21936987.8824   21936993.0364
      1478.191        1151.837
   -233136.342 9   -177417.03648  20365186.564    20365187.0234   20365192.9264
      -324.833        -253.117
  -4961219.832 9  -3590570.84848  21032220.479    21032220.6524   21032226.6704
      2850.674        2221.304
  -3226767.271 9  -2503924.10548  20555541.420    20555541.5364   20555547.7924
      1875.894        1461.736
 96 10  9 15 42 59.9990000  0  8 22 21 30 28 26  6 23 17            -0.000689415
  -3212943.421 9  -2489615.74947  23278067.110    23278067.0794   23278073.4424
      1551.372        1208.861
  -6819060.858 9  -5291507.07547  23884660.372    23884660.7674   23884668.1574
      4180.869        3257.820
   3632619.908 8   2818997.00145  24656571.126    24656571.0094   24656577.7294
     -2329.702       -1815.352
  -6353964.217 9  -4929831.982 9  21658814.252    21658814.450    21658819.916
      3802.385        2962.897
  -3118033.588 9  -2416884.58948  21928613.997    21928614.7464   21928619.9634
      1455.561        1134.203
   -223095.712 9   -169593.17748  20367097.261    20367097.7054   20367103.6644
      -344.532        -268.466
  -5046476.082 9  -3657004.27648  21015996.789    21015996.9584   21016002.9564
      2833.391        2207.837
  -3282892.942 9  -2547658.38948  20544861.035    20544861.1704   20544867.4234
      1865.996        1454.023
 96 10  9 15 43 29.9990000  0  8 22 21 30 28 26  6 23 17            -0.000710866
  -3259182.446 9  -2525646.16947  23269268.180    23269268.1244   23269274.4944
      1531.958        1193.734
  -6944332.822 9  -5389121.57947  23860821.850    23860822.3314   23860829.6894
      4171.324        3250.382
   3702511.134 8   2873457.62145  24669870.821    24669870.8974   24669877.7694
     -2329.123       -1814.901
  -6467842.927 9  -5018568.636 9  21637143.824    21637144.101    21637149.488
      3790.170        2953.379
  -3161367.950 9  -2450651.62648  21920367.763    21920368.4714   21920373.7304
      1434.175        1117.539
   -212453.642 9   -161300.67748  20369122.391    20369122.8034   20369128.7774
      -364.146        -283.750
  -5131226.520 9  -3723043.56948  20999869.362    20999869.5094   20999875.4674
      2817.390        2195.369
  -3338716.846 9  -2591157.53548  20534238.059    20534238.2584   20534244.4804
      1856.165        1446.362
 96 10  9 15 43 59.9990000  0  8 22 21 30 28 26  6 23 17            -0.000732299
  -3304819.396 9  -2561207.44047  23260583.899    23260583.7514   23260590.0464
      1511.059        1177.448
  -7069300.423 9  -5486498.90147  23837041.412    23837041.7224   23837049.1264
      4160.743        3242.137
   3772404.676 8   2927920.01345  24683170.726    24683171.2554   24683178.1414
     -2329.602       -1815.274
  -6581333.625 9  -5107002.941 9  21615547.351    21615547.551    21615552.905
      3776.595        2942.801
  -3204052.670 9  -2483912.45048  21912245.169    21912245.8554   21912251.1224
      1412.219        1100.430
   -201200.383 9   -152531.92148  20371263.786    20371264.2364   20371270.2324
      -385.392        -300.305
  -5215482.091 9  -3788697.25448  20983836.027    20983836.1984   20983842.1214
      2800.404        2182.133
  -3394218.341 9  -2634405.45148  20523676.546    20523676.6974   20523682.8774
      1844.666        1437.402
 96 10  9 15 44 29.9990000  0  8 22 21 30 28 26  6 23 17            -0.000753718
  -3349848.798 9  -2596295.28947  23252015.085    23252014.9444   23252021.2214
      1489.239        1160.446
  -7193991.861 9  -5583661.03247  23813313.414    23813313.6944   23813321.0974
      4150.620        3234.249
   3842274.129 8   2982363.64345  24696466.428    24696467.0324   24696474.0014
     -2329.780       -1815.413
  -6694447.110 9  -5195143.312 9  21594022.566    21594022.778    21594028.105
      3762.821        2932.068
  -3246113.067 9  -2516686.78448  21904241.263    21904242.0184   21904247.3064
      1390.171        1083.250
   -189343.264 9   -143292.63648  20373520.164    20373520.5994   20373526.6144
      -406.512        -316.762
  -5299259.552 9  -3853978.37948  20967893.718    20967893.8984   20967899.7874
      2783.199        2168.726
  -3449412.605 9  -2677413.97148  20513173.357    20513173.5864   20513179.7524
      1833.494        1428.697
 96 10  9 15 44 59.9990000  0  8 22 21 30 28 26  6 23 17            -0.000775067
  -3394208.203 9  -2630861.05547  23243573.733    23243573.6504   23243579.9154
      1468.078        1143.957
  -7318379.389 9  -5680586.34747  23789643.144    23789643.4904   23789651.0084
      4141.802        3227.378
   3912149.784 8   3036812.10745  24709763.628    24709763.9744   24709770.9804
     -2328.626       -1814.514
  -6807138.137 9  -5282954.493 9  21572578.147    21572578.389    21572583.749
      3749.914        2922.011
  -3287498.204 9  -2548934.94448  21896365.840    21896366.6654   21896371.9814
      1368.767        1066.572
   -176851.500 9   -133558.81648  20375897.254    20375897.7214   20375903.7454
      -426.243        -332.137
  -5382514.605 9  -3918852.44148  20952050.831    20952051.0074   20952056.9014
      2767.188        2156.250
  -3504263.251 9  -2720154.73748  20502735.613    20502735.8514   20502742.0394
      1823.070        1420.574
 96 10  9 15 45 29.9990000  0  8 22 21 30 28 26  6 23 17            -0.000796347
  -3437893.163 9  -2664901.29447  23235260.707    23235260.6934   23235267.0274
      1445.318        1126.222
  -7442463.077 9  -5777274.90247  23766030.720    23766031.1664   23766038.7234
      4131.682        3219.492
   3982025.970 8   3091260.99345  24723060.560    24723060.9394   24723068.1464
     -2328.683       -1814.558
  -6919400.787 9  -5370431.879 9  21551215.227    21551215.542    21551220.885
      3735.352        2910.664
  -3328197.356 9  -2580648.56748  21888621.159    21888621.8964   21888627.2094
      1345.594        1048.515
   -163729.168 9   -123333.64348  20378394.427    20378394.8854   20378400.8904
      -447.307        -348.551
  -5465252.479 9  -3983323.49948  20936306.334    20936306.5214   20936312.4024
      2749.624        2142.564
  -3558754.352 9  -2762615.33048  20492366.332    20492366.5434   20492372.7084
      1810.886        1411.080
 96 10  9 15 45 59.9990000  0  8 22 21 30 28 26  6 23 17            -0.000817558
  -3480932.192 9  -2698438.21247  23227070.602    23227070.6314   23227077.0004
      1425.021        1110.406
  -7566291.792 9  -5873764.77647  23742466.775    23742467.3144   23742474.8764
      4124.617        3213.987
   4051853.452 8   3145671.92245  24736348.429    24736348.7834   24736355.7804
     -2325.484       -1812.065
  -7031264.671 9  -5457598.539 9  21529928.302    21529928.555    21529933.925
      3723.261        2901.242
  -3368236.289 9  -2611847.73848  21881002.046    21881002.7004   21881008.0654
      1324.512        1032.087
   -150019.378 9   -112650.71248  20381003.337    20381003.8164   20381009.8174
      -465.605        -362.809
  -5547489.473 9  -4047404.26548  20920657.091    20920657.3454   20920663.2274
      2733.840        2130.265
  -3612930.757 9  -2804830.71148  20482056.855    20482057.1314   20482063.2674
      1802.047        1404.192
 96 10  9 15 46 29.9990000  0  8 22 21 30 28 26  6 23 17            -0.000838665
  -3523324.618 9  -2731471.26947  23219003.750    23219003.6684   23219010.0344
      1401.490        1092.070
  -7689853.126 9  -5970046.31147  23718953.860    23718954.3444   23718961.8894
      4112.940        3204.888
   4121633.568 8   3200045.92646  24749627.458    24749627.5294   24749634.7124
     -2326.474       -1812.837
  -7142720.078 9  -5544446.901 9  21508718.861    21508719.300    21508724.691
      3707.349        2888.843
  -3407588.219 9  -2642511.57848  21873513.548    21873514.2974   21873519.6794
      1299.180        1012.348
   -135727.382 9   -101514.10248  20383723.072    20383723.5064   20383729.5344
      -486.985        -379.469
  -5629203.328 9  -4111077.38748  20905107.474    20905107.7244   20905113.5994
      2714.046        2114.841
  -3666807.027 9  -2846812.21548  20471804.492    20471804.7914   20471810.9234
      1789.893        1394.722
 96 10  9 15 46 59.9990000  0  8 22 21 30 28 26  6 23 17            -0.000859684
  -3565098.500 9  -2764022.35747  23211054.531    23211054.3764   23211060.7384
      1382.280        1077.101
  -7813144.076 9  -6066117.14846  23695492.388    23695492.8094   23695500.3934
      4105.075        3198.760
   4191367.740 8   3254384.14045  24762896.824    24762897.4904   24762904.6874
     -2323.901       -1810.832
  -7253778.203 9  -5630985.699 9  21487585.272    21487585.653    21487591.052
      3695.282        2879.441
  -3446257.531 9  -2672643.50848  21866155.041    21866155.7994   21866161.1864
      1277.583         995.519
   -120869.170 9    -89936.30348  20386550.571    20386550.9624   20386556.9994
      -504.901        -393.429
  -5710417.683 9  -4174361.29448  20889652.944    20889653.1784   20889659.0424
      2699.049        2103.155
  -3720395.575 9  -2888569.53348  20461606.972    20461607.2104   20461613.3234
      1781.373        1388.083
 96 10  9 15 47 29.9990000  0  8 22 21 30 28 26  6 23 17            -0.000880618
  -3606245.845 9  -2796085.23447  23203224.487    23203224.3734   23203230.6904
      1361.522        1060.926
  -7936136.212 9  -6161955.14346  23672087.834    23672088.2244   23672095.7364
      4095.127        3191.008
   4261090.991 8   3308713.83145  24776164.770    24776165.3214   24776172.6404
     -2323.755       -1810.718
  -7364414.621 9  -5717195.890 9  21466531.902    21466532.258    21466537.657
      3681.117        2868.403
  -3484218.016 9  -2702223.10748  21858931.426    21858932.1094   21858937.5234
      1253.866         977.038
   -105406.580 9    -77887.54448  20389493.043    20389493.4424   20389499.4664
      -525.317        -409.338
  -5791122.617 9  -4237248.24548  20874295.281    20874295.5204   20874301.4084
      2681.900        2089.792
  -3773668.530 9  -2930080.92448  20451469.457    20451469.6874   20451475.8444
      1770.846        1379.880
 96 10  9 15 47 59.9990000  0  8 22 21 30 28 26  6 23 17            -0.000901478
  -3646792.141 9  -2827679.76247  23195508.884    23195508.7004   23195514.9844
      1342.595        1046.178
  -8058846.195 9  -6257573.27646  23648737.097    23648737.2874   23648744.7774
      4086.539        3184.316
   4330801.865 9   3363033.86246  24789430.430    24789430.9654   24789438.3374
     -2322.719       -1809.911
  -7474642.925 9  -5803088.071 9  21445556.229    21445556.519    21445561.918
      3668.395        2858.490
  -3521480.864 9  -2731259.09548  21851840.488    21851841.2284   21851846.6934
      1231.275         959.435
    -89345.688 9    -65372.58248  20392549.390    20392549.7554   20392555.7744
      -544.370        -424.184
  -5871328.672 9  -4299746.46148  20859032.500    20859032.8384   20859038.7354
      2666.275        2077.617
  -3826643.357 9  -2971360.01148  20441388.644    20441388.9374   20441395.0564
      1761.755        1372.796
 96 10  9 15 48 29.9990000  0  8 22 21 30 28 26  6 23 17            -0.000922266
  -3686724.865 9  -2858796.17847  23187909.930    23187909.7604   23187916.0164
      1319.868        1028.468
  -8181247.082 9  -6352950.56546  23625444.969    23625445.1304   23625452.5674
      4074.021        3174.562
   4400540.395 8   3417375.47646  24802701.135    24802701.8274   24802709.0834
     -2326.007       -1812.473
  -7584439.331 9  -5888643.708 9  21424662.653    21424662.978    21424668.357
      3651.798        2845.557
  -3558019.061 9  -2759730.42548  21844887.471    21844888.2674   21844893.7224
      1205.202         939.118
    -72665.936 9    -52375.39348  20395723.470    20395723.8414   20395729.8434
      -567.260        -442.021
  -5951018.556 9  -4361842.46448  20843868.007    20843868.3454   20843874.2484
      2646.892        2062.513
  -3879284.979 9  -3012379.45848  20431371.245    20431371.5664   20431377.7314
      1748.157        1362.200
 96 10  9 15 48 59.9990000  0  8 22 21 30 28 26  6 23 17            -0.000942995
  -3726031.674 9  -2889424.86547  23180429.933    23180429.8904   23180436.2184
      1299.543        1012.631
  -8303351.487 9  -6448096.81546  23602209.167    23602209.4374   23602216.8274
      4065.246        3167.724
   4470300.543 8   3471733.94146  24815976.618    24815976.9124   24815984.1094
     -2325.701       -1812.235
  -7693802.058 9  -5973861.410 9  21403851.443    21403851.915    21403857.312
      3638.107        2834.889
  -3593845.433 9  -2787647.07548  21838070.080    21838070.7344   21838076.1824
      1182.322         921.290
    -55358.510 9    -38889.10748  20399016.957    20399017.3474   20399023.3814
      -587.494        -457.788
  -6030192.129 9  -4423536.14548  20828801.818    20828802.1004   20828808.0244
      2630.254        2049.548
  -3931578.814 9  -3053127.90048  20421420.110    20421420.4314   20421426.5714
      1737.237        1353.691
 96 10  9 15 49 29.9990000  0  8 22 21 30 28 26  6 23 17            -0.000963687
  -3764753.810 9  -2919597.97547  23173061.346    23173061.3544   23173067.6844
      1280.806         998.031
  -8425208.061 9  -6543049.95646  23579020.575    23579020.8994   23579028.2444
      4057.672        3161.822
   4540021.381 8   3526061.73446  24829243.896    24829244.5044   24829251.6294
     -2323.215       -1810.297
  -7802780.355 9  -6058779.560 9  21383113.544    21383114.007    21383119.452
      3626.136        2825.561
  -3629011.567 9  -2815049.25148  21831378.035    21831378.7984   21831384.2554
      1161.132         904.778
    -37474.808 9    -24953.77048  20402420.091    20402420.5114   20402426.5574
      -605.586        -471.885
  -6108877.560 9  -4484849.45848  20813828.443    20813828.7544   20813834.6664
      2614.481        2037.258
  -3983576.393 9  -3093645.49548  20411525.379    20411525.6404   20411531.7554
      1728.435        1346.832
 96 10  9 15 49 59.9990000  0  8 22 21 30 28 26  6 23 17            -0.000984299
  -3802840.882 9  -2949276.21747  23165813.691    23165813.6734   23165819.9034
      1260.122         981.913
  -8546767.042 9  -6637771.22246  23555888.679    23555889.0014   23555896.3084
      4047.919        3154.223
   4609728.211 9   3580378.62346  24842509.103    24842509.5754   24842516.6214
     -2321.964       -1809.322
  -7911330.457 9  -6143364.053 9  21362457.148    21362457.581    21362463.056
      3612.294        2814.774
  -3663480.209 9  -2841907.93448  21824818.786    21824819.6684   21824825.0824
      1138.422         887.082
    -18991.776 9    -10551.43148  20405937.247    20405937.7254   20405943.7714
      -624.760        -486.826
  -6187027.241 9  -4545745.30548  20798957.067    20798957.3684   20798963.2774
      2597.340        2023.901
  -4035250.389 9  -3133910.94548  20401692.198    20401692.4244   20401698.5044
      1718.292        1338.929
 96 10  9 15 50 29.9990000  0  8 22 21 30 28 26  6 23 17            -0.001004828
  -3840288.943 9  -2978456.54147  23158687.645    23158687.5514   23158693.7594
      1237.967         964.650
  -8668018.845 9  -6732253.12246  23532815.308    23532815.5504   23532822.9144
      4037.182        3145.856
   4679397.930 9   3634666.59245  24855767.143    24855767.2374   24855774.4674
     -2320.796       -1808.412
  -8019450.593 9  -6227613.503 9  21341882.488    21341882.994    21341888.485
      3597.390        2803.161
  -3697257.908 9  -2868228.21648  21818391.040    21818392.0324   21818397.4104
      1115.210         868.995
        76.572 9      4307.00048  20409565.890    20409566.3414   20409572.3534
      -644.808        -502.448
  -6264653.941 9  -4606233.62848  20784185.167    20784185.4874   20784191.4294
      2579.590        2010.070
  -4086607.272 9  -3173929.29748  20391919.257    20391919.5324   20391925.6294
      1707.243        1330.319
 96 10  9 15 50 59.9980000  0  8 22 21 30 28 26  6 23 17            -0.001025285
  -3877119.879 9  -3007155.97647  23151678.955    23151678.8994   23151685.0534
      1217.057         948.356
  -8788993.374 9  -6826518.97646  23509794.781    23509794.8734   23509802.2074
      4027.356        3138.199
   4748972.923 9   3688880.76845  24869006.972    24869007.1814   24869014.3644
     -2318.334       -1806.494
  -8127169.448 9  -6311550.267 9  21321384.166    21321384.759    21321390.294
      3583.444        2792.294
  -3730385.598 9  -2894042.00148  21812087.198    21812088.0834   21812093.4434
      1092.675         851.435
     19693.699 9     19593.05148  20413298.899    20413299.3744   20413305.3974
      -663.640        -517.122
  -6341805.388 9  -4666351.62948  20769503.757    20769504.0614   20769510.0044
      2563.380        1997.439
  -4137687.908 9  -3213732.38948  20382198.943    20382199.2124   20382205.3174
      1697.530        1322.751
 96 10  9 15 51 29.9980000  0  8 22 21 30 28 26  6 23 17            -0.001045670
  -3913343.654 9  -3035382.31147  23144785.731    23144785.7314   23144791.8694
      1198.283         933.727
  -8909681.021 9  -6920561.27247  23486828.685    23486828.8254   23486836.1344
      4018.992        3131.682
   4818463.461 9   3743029.14245  24882230.497    24882230.8004   24882238.0494
     -2314.059       -1803.163
  -8234479.344 9  -6395168.363 9  21300963.830    21300964.379    21300969.918
      3570.808        2782.448
  -3762846.105 9  -2919335.90348  21805910.128    21805911.0594   21805916.4634
      1071.642         835.046
     39862.482 9     35308.96148  20417136.950    20417137.3924   20417143.4084
      -680.612        -530.347
  -6418490.972 9  -4726106.62048  20754910.984    20754911.2964   20754917.2604
      2549.358        1986.513
  -4188488.990 9  -3253317.65448  20372531.894    20372532.1004   20372538.1924
      1689.332        1316.362
 96 10  9 15 51 59.9980000  0  8 22 21 30 28 26  6 23 17            -0.001065980
  -3948943.087 9  -3063122.14347  23138011.389    23138011.3664   23138017.5384
      1179.661         919.216
  -9030057.954 9  -7014361.46747  23463921.734    23463921.9324   23463929.1464
      4010.836        3125.327
   4887891.768 8   3797128.98545  24895442.291    24895442.6054   24895450.2074
     -2309.940       -1799.953
  -8341339.736 9  -6478436.196 9  21280629.062    21280629.499    21280635.070
      3557.828        2772.334
  -3794604.498 9  -2944082.70348  21799866.705    21799867.6514   21799873.0384
      1050.201         818.338
     60608.500 9     51474.67548  20421084.764    20421085.2364   20421091.2534
      -697.948        -543.856
  -6494693.241 9  -4785485.00148  20740410.149    20740410.4704   20740416.4204
      2535.310        1975.566
  -4238963.804 9  -3292648.67548  20362926.861    20362927.0694   20362933.1614
      1680.216        1309.259
 96 10  9 15 52 29.9980000  0  8 22 21 30 28 26  6 23 17            -0.001086286
  -3984014.755 9  -3090450.72947  23131337.603    23131337.4594   23131343.6134
      1158.989         903.108
  -9150237.023 9  -7108007.47947  23441052.546    23441052.6334   23441059.8114
      4001.664        3118.180
   4957171.426 8   3851113.00845  24908625.851    24908626.2844   24908633.6424
     -2308.221       -1798.614
  -8447843.879 9  -6561426.433 9  21260361.972    21260362.434    21260368.005
      3542.999        2760.778
  -3825750.975 9  -2968352.68948  21793939.753    21793940.6874   21793946.0594
      1026.888         800.172
     81846.820 9     68024.00048  20425126.256    20425126.7844   20425132.8044
      -717.501        -559.092
  -6570497.651 9  -4844553.36348  20725985.016    20725985.3694   20725991.3244
      2518.750        1962.662
  -4289193.666 9  -3331788.83048  20353368.477    20353368.6544   20353374.7484
      1668.953        1300.483
 96 10  9 15 52 59.9980000  0  8 22 21 30 28 26  6 23 17            -0.001106551
  -4018492.877 9  -3117316.80247  23124776.661    23124776.4974   23124782.6984
      1141.472         889.459
  -9270159.168 9  -7201453.28847  23418231.846    23418232.1564   23418239.4034
      3994.955        3112.952
   5026391.575 8   3905050.68745  24921797.916    24921798.2984   24921805.7584
     -2304.754       -1795.912
  -8553923.159 9  -6644085.608 9  21240175.793    21240176.222    21240181.768
      3530.752        2751.235
  -3856213.645 9  -2992089.83548  21788142.979    21788143.8044   21788149.1754
      1005.801         783.741
    103658.583 9     85020.16548  20429276.896    20429277.4564   20429283.4614
      -734.844        -572.606
  -6645820.577 9  -4903246.54348  20711651.522    20711651.8644   20711657.8164
      2504.317        1951.416
  -4339100.586 9  -3370677.33648  20343871.524    20343871.7004   20343877.7874
      1659.930        1293.452
 96 10  9 15 53 29.9980000  0  8 22 21 30 28 26  6 23 17            -0.001126808
  -4052414.860 9  -3143749.53047  23118321.540    23118321.3864   23118327.6384
      1121.465         873.869
  -9389853.762 9  -7294721.78247  23395454.754    23395455.0934   23395462.3334
      3986.172        3106.108
   5095544.144 8   3958935.71345  24934957.354    24934957.3514   24934965.0554
     -2303.964       -1795.297
  -8659604.159 9  -6726434.435 9  21220065.291    21220065.790    21220071.326
      3516.156        2739.862
  -3886019.774 9  -3015315.38548  21782471.129    21782471.8464   21782477.2384
       982.865         765.869
    126023.417 9    102447.28948  20433532.778    20433533.3794   20433539.3764
      -754.692        -588.072
  -6720665.060 9  -4961566.90548  20697409.118    20697409.4494   20697415.3604
      2486.788        1937.757
  -4388702.431 9  -3409328.12448  20334432.699    20334432.8224   20334438.8834
      1648.419        1284.482
 96 10  9 15 53 59.9980000  0  8 22 21 30 28 26  6 23 17            -0.001147027
  -4085728.113 9  -3169707.92247  23111982.260    23111982.0904   23111988.3734
      1100.132         857.246
  -9509274.672 9  -7387777.02647  23372729.805    23372730.0474   23372737.3354
      3976.011        3098.190
   5164682.298 8   4012809.51345  24948114.402    24948113.9054   24948121.7394
     -2304.336       -1795.586
  -8764848.113 9  -6808442.708 9  21200037.958    21200038.547    21200044.064
      3500.954        2728.016
  -3915138.473 9  -3038005.28648  21776929.885    21776930.7224   21776936.1174
       959.338         747.536
    148990.939 9    120344.03748  20437903.394    20437903.9664   20437909.9234
      -775.567        -604.338
  -6794971.286 9  -5019467.85348  20683269.086    20683269.4514   20683275.3264
      2467.816        1922.974
  -4437962.887 9  -3447712.89348  20325058.635    20325058.8714   20325064.9624
      1636.658        1275.318
 96 10  9 15 54 29.9980000  0  8 22 21 30 28 26  6 23 17            -0.001167189
  -4118414.988 9  -3195178.21947  23105762.118    23105762.0154   23105768.2814
      1077.570         839.665
  -9628406.791 9  -7480607.22347  23350059.811    23350059.9284   23350067.1654
      3964.435        3089.170
   5233813.560 8   4066677.95345  24961269.899    24961269.4744   24961276.7774
     -2305.658       -1796.617
  -8869654.748 9  -6890110.213 9  21180093.963    21180094.531    21180100.011
      3484.564        2715.245
  -3943579.224 9  -3060166.90848  21771517.800    21771518.6434   21771524.0204
       935.206         728.732
    172564.226 9    138712.81248  20442389.253    20442389.8064   20442395.7854
      -797.437        -621.379
  -6868723.366 9  -5076936.99348  20669234.525    20669234.9144   20669240.7654
      2447.520        1907.158
  -4486894.812 9  -3485841.66448  20315747.203    20315747.4294   20315753.5514
      1623.920        1265.392
 96 10  9 15 54 59.9980000  0  7 22 21 28 26  6 23 17               -0.001187298
  -4150473.634 9  -3220158.99847  23099661.478    23099661.4684   23099667.7644
      1059.415         825.518
  -9747224.584 9  -7573192.49147  23327449.404    23327449.6644   23327456.8614
      3956.497        3082.985
  -8974011.999 9  -6971427.545 9  21160235.512    21160236.041    21160241.493
      3472.353        2705.730
  -3971338.931 9  -3081797.84648  21766235.347    21766236.1274   21766241.5264
       915.369         713.274
    196746.063 9    157555.78848  20446990.879    20446991.4874   20446997.4654
      -814.686        -634.820
  -6941917.919 9  -5133971.70148  20655306.069    20655306.4314   20655312.2734
      2431.895        1894.983
  -4535490.765 9  -3523708.64148  20306499.709    20306499.9454   20306506.0634
      1615.738        1259.017
 96 10  9 15 55 29.9980000  0  7 22 21 28 26  6 23 17               -0.001207375
  -4181955.564 9  -3244690.38047  23093670.743    23093670.6854   23093676.9884
      1038.988         809.601
  -9865777.863 9  -7665571.65747  23304889.357    23304889.6784   23304896.8954
      3946.619        3075.288
  -9077973.427 9  -7052436.444 9  21140452.350    21140452.819    21140458.284
      3458.061        2694.593
  -3998480.658 9  -3102947.24048  21761070.353    21761071.2604   21761076.6514
       893.726         696.410
    221463.826 9    176816.35848  20451694.489    20451695.1484   20451701.1484
      -833.369        -649.378
  -7014619.766 9  -5190622.48248  20641471.316    20641471.7434   20641477.5894
      2414.845        1881.697
  -4583825.855 9  -3561372.35048  20297301.851    20297302.0694   20297308.2104
      1606.348        1251.700
 96 10  9 15 55 59.9980000  0  7 22 21 28 26  6 23 17               -0.001227388
  -4212835.157 9  -3268752.41647  23087794.499    23087794.4924   23087800.8074
      1019.832         794.674
  -9984044.731 9  -7757727.64347  23282383.857    23282384.2184   23282391.4004
      3938.114        3068.660
  -9181519.366 9  -7133121.584 9  21120748.152    21120748.683    21120754.152
      3445.092        2684.487
  -4024979.783 9  -3123595.90748  21756027.566    21756028.6864   21756034.0794
       872.989         680.251
    246718.962 9    196495.66248  20456500.439    20456501.0884   20456507.0574
      -850.118        -662.430
  -7086835.617 9  -5246894.56248  20627729.106    20627729.5044   20627735.3594
      2399.771        1869.951
  -4631895.351 9  -3598829.10148  20288154.587    20288154.7704   20288160.9194
      1598.369        1245.482
 96 10  9 15 56 29.9980000  0  7 22 21 28 26  6 23 17               -0.001247341
  -4243124.273 9  -3292354.33247  23082030.634    23082030.6604   23082036.9884
       998.772         778.264
 -10102041.071 9  -7849672.80747  23259929.867    23259930.2224   23259937.4754
      3927.485        3060.378
  -9284644.803 9  -7213479.060 9  21101124.008    21101124.574    21101130.036
      3429.201        2672.105
  -4050825.639 9  -3143735.53248  21751109.267    21751110.3674   21751115.7754
       849.199         661.714
    272502.672 9    216586.84948  20461406.966    20461407.5804   20461413.5254
      -869.565        -677.583
  -7158579.198 9  -5302798.64648  20614076.764    20614077.1664   20614082.9814
      2382.581        1856.557
  -4679695.789 9  -3636076.19448  20279058.496    20279058.6734   20279064.7804
      1587.634        1237.117
 96 10  9 15 56 59.9980000  0  7 22 21 28 26  6 23 17               -0.001267243
  -4272865.503 9  -3315529.32247  23076371.052    23076371.1104   23076377.4574
       980.974         764.395
 -10219796.042 9  -7941429.90447  23237522.048    23237522.2374   23237529.4104
      3919.963        3054.517
  -9387375.331 9  -7293528.815 9  21081575.066    21081575.611    21081581.045
      3416.585        2662.274
  -4076030.359 9  -3163375.56748  21746313.029    21746314.0884   21746319.4924
       828.324         645.447
    298791.183 9    237071.38848  20466409.565    20466410.1464   20466416.0714
      -885.817        -690.247
  -7229903.863 9  -5358376.29548  20600504.171    20600504.5304   20600510.3434
      2369.441        1846.318
  -4727259.294 9  -3673138.66348  20270007.396    20270007.6434   20270013.7064
      1580.390        1231.473
 96 10  9 15 57 29.9980000  0  7 22 21 28 26  6 23 17               -0.001287050
  -4301998.820 9  -3338230.62247  23070827.192    23070827.2424   23070833.6724
       962.442         749.955
 -10337250.864 9  -8032953.11447  23215171.128    23215171.2984   23215178.4574
      3911.467        3047.896
  -9489648.834 9  -7373222.450 9  21062113.183    21062113.649    21062119.026
      3402.737        2651.483
  -4100526.269 9  -3182463.28648  21741651.548    21741652.6604   21741658.0824
       805.901         627.975
    325640.925 9    257993.24748  20471518.888    20471519.4934   20471525.4114
      -903.146        -703.750
  -7300759.491 9  -5413588.46348  20587020.713    20587021.1244   20587026.9524
      2355.381        1835.362
  -4774526.413 9  -3709970.18848  20261012.722    20261013.0044   20261019.0864
      1571.643        1224.657
 96 10  9 15 57 59.9980000  0  7 22 21 28 26  6 23 17               -0.001306806
  -4330570.660 9  -3360494.40547  23065390.131    23065390.1924   23065396.6774
       944.429         735.919
 -10454433.464 9  -8124264.20747  23192872.003    23192872.1784   23192879.3144
      3902.634        3041.014
  -9591492.494 9  -7452581.138 9  21042733.052    21042733.474    21042738.812
      3388.729        2640.568
  -4124335.783 9  -3201016.15548  21737120.751    21737121.8784   21737127.3014
       783.470         610.496
    353026.341 9    279332.51548  20476730.151    20476730.7574   20476736.6884
      -920.858        -717.552
  -7371173.620 9  -5468456.60448  20573621.295    20573621.7484   20573627.5874
      2340.698        1823.921
  -4821503.921 9  -3746576.03848  20252073.058    20252073.4664   20252079.5584
      1562.186        1217.288
 96 10  9 15 58 29.9980000  0  7 22 21 28 26  6 23 17               -0.001326515
  -4358582.865 9  -3382322.10547  23060059.584    23060059.6464   23060066.1604
       925.848         721.440
 -10571317.466 9  -8215342.62047  23170629.694    23170629.8764   23170637.0024
      3892.509        3033.124
  -9692885.592 9  -7531588.740 9  21023438.457    21023439.012    21023444.342
      3373.785        2628.923
  -4147449.291 9  -3219026.67748  21732722.470    21732723.5284   21732728.9184
       760.444         592.554
    380978.767 9    301113.60748  20482049.260    20482049.9304   20482055.8674
      -939.594        -732.151
  -7441115.757 9  -5522956.96348  20560311.822    20560312.2144   20560318.0264
      2325.071        1811.744
  -4868176.233 9  -3782944.07048  20243191.722    20243192.0484   20243198.0994
      1552.255        1209.549
 96 10  9 15 58 59.9980000  0  7 22 21 28 26  6 23 17               -0.001346252
  -4386141.719 9  -3403796.54247  23054815.303    23054815.4004   23054821.8424
       911.015         709.882
 -10688007.505 9  -8306269.89747  23148424.266    23148424.4724   23148431.5884
      3886.689        3028.589
  -9793944.720 9  -7610336.105 9  21004207.499    21004208.110    21004213.414
      3363.146        2620.633
  -4169991.484 9  -3236592.01548  21728432.907    21728433.8984   21728439.2704
       742.090         578.252
    409373.164 9    323239.09148  20487452.522    20487453.2294   20487459.1734
      -953.595        -743.061
  -7510693.712 9  -5577173.54048  20547071.562    20547071.9654   20547077.7714
      2312.991        1802.331
  -4914658.289 9  -3819163.85148  20234346.355    20234346.8074   20234352.8534
      1546.184        1204.819
 96 10  9 15 59 29.9980000  0  8 22 21 28 26  6 23 17  3            -0.001365964
  -4413138.851 9  -3424833.28547  23049677.961    23049678.0034   23049684.4404
       889.831         693.375
 -10804410.431 9  -8396973.45247  23126273.449    23126273.6814   23126280.8454
      3874.654        3019.211
  -9894564.409 9  -7688741.052 9  20985060.280    20985060.828    20985066.104
      3345.935        2607.222
  -4191865.884 9  -3253636.99548  21724270.303    21724271.3454   21724276.7584
       717.390         559.005
    438305.445 9    345783.70948  20492958.166    20492958.8534   20492964.8344
      -974.150        -759.078
  -7579780.400 9  -5631007.31148  20533924.745    20533925.1934   20533931.0184
      2293.899        1787.454
  -4960838.255 9  -3855148.24348  20225558.689    20225559.0594   20225565.0954
      1533.526        1194.955
  -2035228.88019  -1568475.24155  24789568.434    24789569.8155   24789576.0675
      4616.531        3597.297
 96 10  9 15 59 59.9980000  0  8 22 21 28 26  6 23 17  3            -0.001385639
  -4439546.351 9  -3445410.56947  23044652.707    23044652.8754   23044659.3294
       870.448         678.271
 -10920509.254 9  -8487440.04347  23104180.634    23104180.8714   23104187.9984
      3865.192        3011.838
  -9994723.872 9  -7766787.379 9  20966000.601    20966001.125    20966006.380
      3331.221        2595.757
  -4213061.981 9  -3270153.42748  21720236.808    21720237.8624   21720243.3134
       695.542         541.981
    467801.366 9    368767.51848  20498571.112    20498571.7574   20498577.7244
      -992.375        -773.279
  -7648344.235 9  -5684433.66448  20520877.463    20520877.9594   20520883.7684
      2276.961        1774.255
  -5006695.605 9  -3890881.24148  20216832.333    20216832.7154   20216838.7294
      1523.583        1187.207
  -2173688.248 9  -1676365.67745  24763220.796    24763221.8354   24763228.1534
      4613.987        3595.314
 96 10  9 16  0 29.9980000  0  8 22 21 28 26  6 23 17  3            -0.001405273
  -4465376.002 9  -3465537.58447  23039737.517    23039737.6884   23039744.1024
       851.603         663.587
 -11036349.230 9  -8577704.94347  23082136.920    23082137.2844   23082144.3944
      3857.718        3006.014
 -10094458.008 9  -7844502.286 9  20947021.776    20947022.367    20947027.590
      3317.867        2585.351
  -4233611.632 9  -3286166.13748  21716326.250    21716327.3714   21716332.8334
       674.632         525.687
    497825.965 9    392163.28448  20504284.621    20504285.2694   20504291.2324
     -1008.920        -786.171
  -7716420.075 9  -5737479.76548  20507923.107    20507923.5854   20507929.3594
      2261.586        1762.275
  -5052273.202 9  -3926396.25348  20208159.096    20208159.5884   20208165.5924
      1514.971        1180.497
  -2312077.271 9  -1784201.26945  24736886.497    24736887.2494   24736893.5504
      4612.123        3593.862
 96 10  9 16  0 59.9980000  0  8 22 21 28 26  6 23 17  3            -0.001424851
  -4490603.911 9  -3485195.69547  23034936.893    23034936.9514   23034943.3564
       831.578         647.983
 -11151931.480 9  -8667769.01047  23060142.272    23060142.6924   23060149.7804
      3849.090        2999.291
 -10193755.868 9  -7921877.234 9  20928126.027    20928126.630    20928131.829
      3303.253        2573.963
  -4253498.672 9  -3301662.52748  21712541.936    21712542.9704   21712548.4154
       652.556         508.485
    528379.672 9    415971.33948  20510098.780    20510099.4684   20510105.4564
     -1026.813        -800.114
  -7784000.802 9  -5790140.05848  20495062.953    20495063.4024   20495069.1684
      2245.106        1749.433
  -5097551.307 9  -3961677.89348  20199543.071    20199543.4894   20199549.4814
      1504.945        1172.684
  -2450367.570 9  -1891959.94845  24710571.033    24710571.5964   24710577.6924
      4608.474        3591.019
 96 10  9 16  1 29.9980000  0  8 22 21 28 26  6 23 17  3            -0.001444391
  -4515264.687 9  -3504411.90347  23030244.155    23030244.1954   23030250.5214
       810.946         631.906
 -11267288.967 9  -8757657.94347  23038190.460    23038190.9264   23038197.9414
      3839.769        2992.028
 -10292648.064 9  -7998936.086 9  20909307.501    20909308.088    20909313.275
      3287.952        2562.041
  -4272759.950 9  -3316671.31448  21708876.810    21708877.6874   21708883.1374
       630.115         490.999
    559439.767 9    440173.98748  20516009.380    20516010.0594   20516016.0604
     -1045.384        -814.585
  -7851126.956 9  -5842446.14448  20482289.250    20482289.7084   20482295.4634
      2228.457        1736.460
  -5142570.504 9  -3996757.78848  20190976.325    20190976.6304   20190982.5964
      1494.825        1164.799
  -2588578.168 9  -1999656.49946  24684270.606    24684271.0444   24684277.2184
      4604.017        3587.546
 96 10  9 16  1 59.9980000  0  8 22 21 28 26  6 23 17  3            -0.001463830
  -4539278.748 9  -3523124.16347  23025674.627    23025674.5104   23025680.8144
       790.697         616.128
 -11382340.910 9  -8847308.78747  23016296.854    23016297.2574   23016304.2744
      3830.805        2985.043
 -10391052.641 9  -8075614.972 9  20890581.694    20890582.304    20890587.523
      3272.923        2550.330
  -4291323.567 9  -3331136.46148  21705344.291    21705345.1674   21705350.5984
       607.970         473.743
    591079.324 9    464828.16548  20522030.193    20522030.8934   20522036.8944
     -1063.300        -828.545
  -7917731.464 9  -5894345.74948  20469614.833    20469615.2854   20469621.0134
      2212.451        1723.988
  -5187265.566 9  -4031585.10948  20182470.940    20182471.4554   20182477.3834
      1485.435        1157.482
  -2726629.292 9  -2107228.79946  24658000.431    24658000.7974   24658007.1584
      4600.011        3584.424
 96 10  9 16  2 29.9980000  0  8 22 21 28 26  6 23 17  3            -0.001483223
  -4562738.220 9  -3541404.28547  23021210.510    23021210.3614   23021216.6324
       771.878         601.463
 -11497158.701 9  -8936777.16447  22994447.567    22994448.0994   22994455.1624
      3822.077        2978.242
 -10489046.800 9  -8151974.054 9  20871934.032    20871934.642    20871939.865
      3258.447        2539.050
  -4309264.837 9  -3345116.66548  21701930.119    21701931.0224   21701936.4574
       586.693         457.163
    623213.046 9    489867.40648  20528145.074    20528145.7794   20528151.7684
     -1080.429        -841.893
  -7983900.583 9  -5945906.09448  20457023.252    20457023.7594   20457029.4504
      2197.253        1712.145
  -5231724.463 9  -4066228.40448  20174010.694    20174011.2014   20174017.1294
      1476.982        1150.895
  -2864596.856 9  -2214735.97746  24631746.019    24631746.4074   24631752.8144
      4596.387        3581.600
 96 10  9 16  2 59.9980000  0  8 22 21 28 26  6 23 17  3            -0.001502607
  -4585689.673 9  -3559288.54447  23016842.826    23016842.8514   23016849.0934
       756.005         589.095
 -11611752.025 9  -9026070.64847  22972641.110    22972641.7094   22972648.7934
      3815.256        2972.927
 -10586650.801 9  -8228029.117 9  20853360.634    20853361.206    20853366.457
      3246.188        2529.497
  -4326624.583 9  -3358643.73748  21698626.521    21698627.5484   21698632.9694
       568.434         442.936
    655812.027 9    515269.18948  20534348.401    20534349.1664   20534355.1764
     -1095.120        -853.340
  -8049663.947 9  -5997150.26548  20444508.931    20444509.4094   20444515.0994
      2184.770        1702.418
  -5275976.796 9  -4100710.74548  20165589.912    20165590.2914   20165596.1884
      1470.832        1146.103
  -3002504.542 9  -2322196.49046  24605502.827    24605503.4744   24605509.9234
      4595.209        3580.682
 96 10  9 16  3 29.9980000  0  8 22 21 28 26  6 23 17  3            -0.001521952
  -4608084.712 9  -3576739.23447  23012581.236    23012581.2374   23012587.4704
       737.436         574.625
 -11726056.796 9  -9115139.27947  22950889.828    22950890.2384   22950897.2914
      3805.370        2965.223
 -10683799.680 9  -8303729.539 9  20834873.753    20834874.374    20834879.655
      3230.686        2517.418
  -4343349.792 9  -3371676.35748  21695443.826    21695444.8744   21695450.2874
       546.779         426.062
    688936.474 9    541080.42248  20540651.768    20540652.5354   20540658.5704
     -1112.914        -867.206
  -8114973.093 9  -6048040.50248  20432080.956    20432081.4584   20432087.1494
      2169.434        1690.468
  -5319954.446 9  -4134979.04448  20157221.272    20157221.6264   20157227.5114
      1461.262        1138.646
  -3140289.209 9  -2429561.15546  24579283.421    24579283.9184   24579290.4764
      4590.832        3577.272
 96 10  9 16  3 59.9980000  0  8 22 21 28 26  6 23 17  3            -0.001541301
  -4629987.348 9  -3593806.23347  23008413.205    23008413.2744   23008419.5364
       720.020         561.055
 -11840122.213 9  -9204021.40147  22929183.918    22929184.3224   22929191.3654
      3796.257        2958.122
 -10780540.336 9  -8379111.865 9  20816464.634    20816465.227    20816470.515
      3216.021        2505.990
  -4359476.365 9  -3384242.51148  21692374.979    21692376.0644   21692381.5104
       525.536         409.509
    722539.726 9    567264.75148  20547046.319    20547047.0474   20547053.0714
     -1129.984        -880.507
  -8179879.550 9  -6098616.95248  20419729.650    20419730.1904   20419735.8544
      2154.868        1679.118
  -5363693.786 9  -4169061.64348  20148897.943    20148898.3194   20148904.2064
      1451.896        1131.348
  -3278005.691 9  -2536872.67546  24553076.730    24553077.3194   24553083.9504
      4587.499        3574.675
 96 10  9 16  4 29.9980000  0  8 22 21 28 26  6 23 17  3            -0.001560608
  -4651319.309 9  -3610428.55347  23004353.873    23004353.9294   23004360.2504
       703.152         547.911
 -11953865.898 9  -9292652.82047  22907539.208    22907539.5994   22907546.6004
      3787.702        2951.456
 -10876794.529 9  -8454115.131 9  20798148.001    20798148.643    20798153.975
      3201.894        2494.982
  -4374916.510 9  -3396273.78948  21689436.831    21689437.8854   21689443.3564
       504.826         393.371
    756700.630 9    593883.61348  20553546.958    20553547.6684   20553553.7024
     -1146.370        -893.275
  -8244298.989 9  -6148813.91148  20407470.968    20407471.5604   20407477.2334
      2140.726        1668.098
  -5407098.890 9  -4202883.80548  20140637.917    20140638.6144   20140644.4804
      1442.778        1124.243
  -3415575.061 8  -2644069.57546  24526897.997    24526898.8034   24526905.4394
      4584.932        3572.674
 96 10  9 16  4 59.9980000  0  8 22 21 28 26  6 23 17  3            -0.001579911
  -4672139.753 9  -3626652.28747  23000391.868    23000391.9784   23000398.3344
       686.194         534.697
 -12067352.386 9  -9381083.83047  22885943.465    22885943.8814   22885950.8294
      3779.416        2944.999
 -10972617.583 9  -8528782.445 9  20779913.458    20779914.111    20779919.455
      3187.634        2483.871
  -4389724.259 9  -3407812.28848  21686618.997    21686620.0544   21686625.5184
       483.629         376.854
    791357.351 9    620888.83148  20560141.963    20560142.6614   20560148.7114
     -1162.905        -906.160
  -8308289.423 9  -6198676.57948  20395294.010    20395294.6074   20395300.2694
      2126.585        1657.079
  -5450224.219 9  -4236487.95448  20132431.463    20132432.1664   20132438.0044
      1433.598        1117.089
  -3553068.013 8  -2751206.91646  24500734.170    24500734.9324   24500741.4044
      4582.447        3570.738
 96 10  9 16  5 29.9980000  0  8 22 21 28 26  6 23 17  3            -0.001599211
  -4692470.463 9  -3642494.40847  22996522.989    22996523.1744   22996529.5584
       668.460         520.878
 -12180620.071 9  -9469344.33847  22864389.440    22864389.7674   22864396.7004
      3771.088        2938.510
 -11068036.414 9  -8603134.775 9  20761755.934    20761756.513    20761761.877
      3173.003        2472.470
  -4403918.719 9  -3418872.90148  21683917.964    21683918.9594   21683924.4084
       462.142         360.111
    826493.527 9    648267.64948  20566828.190    20566828.8534   20566834.9594
     -1180.092        -919.552
  -8371870.662 9  -6248220.38548  20383194.907    20383195.4884   20383201.1744
      2111.392        1645.241
  -5493103.449 9  -4269900.34248  20124271.793    20124272.5084   20124278.3774
      1424.643        1110.111
  -3690504.680 8  -2858300.40246  24474581.183    24474581.7634   24474588.1634
      4579.353        3568.327
 96 10  9 16  5 59.9980000  0  8 22 21 28 26  6 23 17  3            -0.001618455
  -4712231.938 9  -3657892.97047  22992762.461    22992762.6764   22992769.0234
       648.868         505.611
 -12293607.154 9  -9557386.18547  22842888.601    22842889.0204   22842895.9444
      3761.375        2930.942
 -11162989.777 9  -8677124.402 9  20743686.869    20743687.477    20743692.866
      3157.178        2460.139
  -4417449.274 9  -3429416.18648  21681343.284    21681344.1874   21681349.6174
       440.011         342.866
    862163.620 9    676062.50448  20573615.986    20573616.6644   20573622.7944
     -1197.791        -933.344
  -8434964.634 9  -6297384.51048  20371188.580    20371189.1094   20371194.8044
      2094.858        1632.357
  -5535700.264 9  -4303092.66748  20116165.937    20116166.6074   20116172.4814
      1415.258        1102.798
  -3827817.756 8  -2965297.57046  24448451.881    24448452.0034   24448458.4094
      4574.867        3564.831
 96 10  9 16  6 29.9980000  0  8 22 21 28 26  6 23 17  3            -0.001637675
  -4731478.315 9  -3672890.15547  22989099.911    22989100.2024   22989106.5804
       632.538         492.887
 -12406373.598 9  -9645256.11647  22821429.895    22821430.2414   22821437.2114
      3754.667        2925.715
 -11257535.554 9  -8750796.430 9  20725695.367    20725696.009    20725701.402
      3144.065        2449.921
  -4430399.537 9  -3439507.29448  21678878.935    21678879.8524   21678885.2544
       421.653         328.561
    898296.440 9    704217.92648  20580491.778    20580492.5034   20580498.6904
     -1212.834        -945.065
  -8497635.265 9  -6346218.75448  20359262.718    20359263.2914   20359268.9934
      2081.412        1621.879
  -5578100.844 9  -4336132.07748  20108097.534    20108098.0384   20108103.9044
      1409.653        1098.431
  -3965063.317 8  -3072242.13846  24422334.991    24422334.9374   24422341.4544
      4573.196        3563.529
 96 10  9 16  6 59.9980000  0  8 22 21 28 26  6 23 17  3            -0.001656873
  -4750216.851 9  -3687491.62047  22985534.193    22985534.3604   22985540.8254
       613.967         478.416
 -12518920.251 9  -9732954.78247  22800012.892    22800013.3014   22800020.2834
      3745.919        2918.898
 -11351667.900 9  -8824146.313 9  20707782.491    20707783.209    20707788.616
      3128.815        2438.038
  -4442783.348 9  -3449157.01648  21676522.442    21676523.3304   21676528.7014
       401.378         312.762
    934897.260 9    732738.01548  20587456.553    20587457.3984   20587463.6294
     -1229.849        -958.324
  -8559885.080 9  -6394725.10048  20347416.951    20347417.5484   20347423.2504
      2065.976        1609.851
  -5620317.929 9  -4369028.50348  20100064.017    20100064.4144   20100070.2654
      1402.066        1092.519
  -4102238.126 8  -3179131.55045  24396231.493    24396231.4664   24396238.0244
      4568.988        3560.250
 96 10  9 16  7 29.9980000  0  8 22 21 28 26  6 23 17  3            -0.001676018
  -4768382.698 9  -3701646.83247  22982077.388    22982077.5224   22982083.9664
       596.414         464.738
 -12631196.834 9  -9820443.00847  22778647.326    22778647.7624   22778654.7364
      3738.424        2913.058
 -11445333.055 9  -8897132.140 9  20689958.575    20689959.305    20689964.737
      3114.794        2427.112
  -4454554.927 9  -3458329.66648  21674282.303    21674283.2584   21674288.6154
       382.678         298.191
    972010.439 9    761657.35348  20594518.926    20594519.8244   20594526.0874
     -1244.862        -970.022
  -8621662.015 9  -6442862.95748  20335661.165    20335661.7614   20335667.4794
      2051.769        1598.781
  -5662292.053 9  -4401735.61148  20092076.670    20092076.9984   20092082.8324
      1395.366        1087.298
  -4239277.241 8  -3285915.23546  24370153.732    24370153.7664   24370160.3424
      4566.248        3558.115
 96 10  9 16  7 59.9980000  0  8 22 21 28 26  6 23 17  3            -0.001695111
  -4785964.157 9  -3715346.68047  22978731.754    22978731.9384   22978738.3304
       576.183         448.974
 -12743173.050 9  -9907697.17547  22757338.962    22757339.4084   22757346.3814
      3727.030        2904.179
 -11538505.181 9  -8969733.789 9  20672228.566    20672229.249    20672234.695
      3096.970        2413.223
  -4465686.991 9  -3467003.99948  21672163.904    21672164.9384   21672170.2794
       359.673         280.265
   1009637.471 9    790977.09848  20601679.226    20601680.0804   20601686.3224
     -1263.365        -984.440
  -8682952.443 9  -6490621.71948  20323998.057    20323998.6044   20324004.3164
      2034.566        1585.376
  -5703983.779 9  -4434222.66848  20084143.017    20084143.3274   20084149.1664
      1384.217        1078.611
  -4376170.849 8  -3392585.53845  24344103.968    24344103.7184   24344110.2534
      4560.212        3553.412
 96 10  9 16  8 29.9980000  0  8 22 21 28 26  6 23 17  3            -0.001714207
  -4803045.554 9  -3728656.87647  22975481.337    22975481.4734   22975487.8434
       562.508         438.318
 -12854904.887 9  -9994760.91447  22736077.020    22736077.5404   22736084.5174
      3721.765        2900.077
 -11631231.721 9  -9041988.236 9  20654583.327    20654583.997    20654589.425
      3084.861        2403.788
  -4476209.460 9  -3475203.32548  21670161.507    21670162.5904   21670167.8894
       341.651         266.221
   1047736.282 9    820664.46148  20608929.287    20608930.0964   20608936.3384
     -1276.433        -994.623
  -8743814.219 9  -6538046.47348  20312416.413    20312417.0004   20312422.6904
      2022.981        1576.349
  -5745414.373 9  -4466506.25348  20076259.129    20076259.3534   20076265.1854
      1377.661        1073.502
  -4512975.154 8  -3499186.27146  24318070.666    24318070.6624   24318077.0954
      4560.038        3553.276
 96 10  9 16  8 59.9980000  0  8 22 21 28 26  6 23 17  3            -0.001733306
  -4819625.334 9  -3741576.19747  22972326.229    22972326.4334   22972332.8494
       544.119         423.989
 -12966388.088 9 -10081630.91147  22714862.391    22714862.9594   22714869.9644
      3711.645        2892.191
 -11723510.246 9  -9113893.575 9  20637023.365    20637023.995    20637029.401
      3068.263        2390.854
  -4486089.594 9  -3482902.12848  21668281.507    21668282.4834   21668287.7744
       318.325         248.045
   1086303.194 9    850716.58148  20616268.371    20616269.1734   20616275.4174
     -1293.512       -1007.931
  -8804247.302 9  -6585137.18148  20300916.358    20300916.9334   20300922.6414
      2007.112        1563.983
  -5786544.187 9  -4498555.45648  20068432.301    20068432.5974   20068438.4524
      1365.593        1064.098
  -4649683.134 9  -3605711.95946  24292055.499    24292055.9754   24292062.4224
      4554.876        3549.254
 96 10  9 16  9 29.9980000  0  8 22 21 28 26  6 23 17  3            -0.001752409
  -4835706.498 9  -3754106.97247  22969266.131    22969266.3324   22969272.7124
       528.425         411.760
 -13077612.920 9 -10168299.58747  22693696.961    22693697.5694   22693704.5884
      3703.655        2885.965
 -11815334.267 9  -9185444.757 9  20619549.807    20619550.466    20619555.868
      3053.743        2379.540
  -4495315.953 9  -3490091.49948  21666525.840    21666526.7874   21666532.0744
       297.271         231.640
   1125342.482 9    881136.78448  20623697.344    20623698.0944   20623704.3614
     -1308.766       -1019.818
  -8864244.819 9  -6631888.48648  20289499.186    20289499.7764   20289505.4934
      1993.156        1553.109
  -5827357.003 9  -4530357.65048  20060665.726    20060666.1954   20060672.0514
      1355.830        1056.491
  -4786282.038 9  -3712152.63746  24266061.632    24266062.0494   24266068.5034
      4552.043        3547.046
 96 10  9 16  9 59.9980000  0  8 22 21 28 26  6 23 17  3            -0.001771538
  -4851333.005 9  -3766283.48747  22966292.486    22966292.7184   22966299.0674
       513.141         399.850
 -13188608.038 9 -10254789.25347  22672575.389    22672575.8694   22672582.8814
      3696.090        2880.070
 -11906732.641 9  -9256664.264 9  20602157.248    20602157.947    20602163.344
      3039.572        2368.498
  -4503919.891 9  -3496795.86648  21664888.559    21664889.4864   21664894.7924
       276.448         215.414
   1164836.526 9    911911.33948  20631212.777    20631213.6014   20631219.8664
     -1324.127       -1031.787
  -8923835.897 9  -6678323.07948  20278159.349    20278159.9804   20278165.7284
      1979.657        1542.590
  -5867893.621 9  -4561944.62348  20052951.686    20052952.3154   20052958.2174
      1346.796        1049.451
  -4922799.100 9  -3818529.54146  24240083.421    24240083.6604   24240090.2414
      4549.092        3544.747
 96 10  9 16 10 29.9980000  0  8 22 21 28 26  6 23 17  3            -0.001790647
  -4866441.546 9  -3778056.38247  22963417.424    22963417.6534   22963424.0374
       493.800         384.779
 -13299332.445 9 -10341067.99147  22651505.143    22651505.6954   22651512.6934
      3685.360        2871.709
 -11997663.150 9  -9327519.202 9  20584853.727    20584854.448    20584859.846
      3022.330        2355.062
  -4511865.762 9  -3502987.45948  21663376.458    21663377.4234   21663382.7394
       253.166         197.272
   1204830.094 9    943075.13048  20638823.338    20638824.1354   20638830.3894
     -1342.152       -1045.833
  -8982972.156 9  -6724403.27148  20266906.050    20266906.7114   20266912.4924
      1962.752        1529.417
  -5908118.533 9  -4593288.71348  20045296.976    20045297.7704   20045303.6594
      1334.979        1040.243
  -5059188.747 9  -3924807.18445  24214129.461    24214129.4914   24214136.1874
      4543.440        3540.343
 96 10  9 16 10 59.9980000  0  8 22 21 28 26  6 23 17  3            -0.001809724
  -4881011.353 9  -3789409.49047  22960644.899    22960645.0844   22960651.5354
       477.840         372.343
 -13409774.952 9 -10427127.06347  22630488.628    22630489.1274   22630496.1634
      3677.682        2865.726
 -12088120.570 9  -9398005.503 9  20567640.233    20567640.982    20567646.375
      3008.361        2344.177
  -4519167.405 9  -3508677.05548  21661986.871    21661987.9474   21661993.3044
       234.074         182.395
   1245311.996 9    974619.43848  20646526.878    20646527.6244   20646533.9004
     -1356.492       -1057.007
  -9041644.884 9  -6770122.27648  20255740.918    20255741.6374   20255747.4574
      1948.998        1518.700
  -5948053.801 9  -4624407.10748  20037697.543    20037698.3654   20037704.2294
      1327.772        1034.628
  -5195451.560 9  -4030985.99345  24188199.452    24188199.5344   24188206.3814
      4541.009        3538.448
 96 10  9 16 11 29.9980000  0  8 22 21 28 26  6 23 17  3            -0.001828806
  -4895100.114 9  -3800387.76747  22957964.068    22957964.1514   22957970.4844
       459.522         358.069
 -13519993.495 9 -10513011.62247  22609514.612    22609515.1824   22609522.1994
      3668.314        2858.426
 -12178159.281 9  -9468165.533 9  20550506.413    20550507.194    20550512.565
      2992.394        2331.736
  -4525908.781 9  -3513930.07648  21660704.026    21660705.1254   21660710.4774
       213.509         166.371
   1286227.434 9   1006501.56748  20654312.957    20654313.6404   20654319.8854
     -1373.017       -1069.883
  -9099902.081 9  -6815517.49048  20244654.906    20244655.6354   20244661.4754
      1933.152        1506.352
  -5987788.232 9  -4655369.00348  20030136.412    20030137.1574   20030143.0164
      1319.324        1028.045
  -5331645.615 9  -4137111.23845  24162282.586    24162282.7144   24162289.4764
      4536.795        3535.165
 96 10  9 16 11 59.9980000  0  8 22 21 28 26  6 23 17  3            -0.001847850
  -4908651.546 9  -3810947.32347  22955385.283    22955385.4284   22955391.7424
       441.797         344.257
 -13629945.477 9 -10598688.45947  22588591.481    22588592.0304   22588598.9864
      3659.715        2851.726
 -12267738.912 9  -9537967.841 9  20533460.050    20533460.781    20533466.114
      2977.378        2320.035
  -4532046.293 9  -3518712.55548  21659536.282    21659537.1974   21659542.5454
       193.541         150.811
   1327613.721 9   1038750.59748  20662188.495    20662189.2094   20662195.4314
     -1388.311       -1081.801
  -9157714.191 9  -6860565.87748  20233653.713    20233654.3714   20233660.2104
      1918.895        1495.243
  -6027285.344 9  -4686145.97248  20022620.576    20022621.1124   20022626.9904
      1311.575        1022.006
  -5467733.423 9  -4243153.70645  24136385.985    24136386.2194   24136392.6714
      4533.609        3532.682
 96 10  9 16 12 29.9980000  0  8 22 21 28 26  6 23 17  3            -0.001866824
  -4921625.133 9  -3821056.63547  22952916.588    22952916.6404   22952922.9774
       423.547         330.037
 -13739585.622 9 -10684122.31947  22567727.612    22567728.2364   22567735.1144
      3649.982        2844.142
 -12356811.240 9  -9607374.851 9  20516510.197    20516510.898    20516516.221
      2961.091        2307.344
  -4537529.435 9  -3522985.13348  21658492.773    21658493.7554   21658499.1634
       172.422         134.355
   1369517.450 9   1071402.82248  20670162.457    20670163.2384   20670169.4534
     -1404.933       -1094.753
  -9215043.547 9  -6905238.09248  20222744.241    20222744.9254   20222750.8034
      1903.479        1483.230
  -6066494.371 9  -4716698.45848  20015159.317    20015159.8654   20015165.7664
      1302.847        1015.205
  -5603673.463 9  -4349081.00945  24110517.379    24110517.6864   24110523.9454
      4529.337        3529.354
 96 10  9 16 12 59.9980000  0  8 22 21 28 26  6 23 17  3            -0.001885725
  -4934116.163 9  -3830789.92247  22950539.560    22950539.6594   22950546.0304
       408.516         318.324
 -13848987.621 9 -10769370.61247  22546909.045    22546909.6824   22546916.5584
      3642.876        2838.605
 -12445451.211 9  -9676444.958 9  20499642.645    20499643.287    20499648.599
      2947.571        2296.809
  -4542434.790 9  -3526807.49448  21657559.354    21657560.3074   21657565.6934
       154.027         120.021
   1411870.009 9   1104404.78948  20678221.871    20678222.6794   20678228.8864
     -1419.289       -1105.939
  -9271972.711 9  -6949598.47448  20211910.958    20211911.6614   20211917.5424
      1891.205        1473.666
  -6105506.674 9  -4747097.65748  20007735.349    20007736.0614   20007741.9484
      1297.151        1010.767
  -5739532.387 9  -4454945.10445  24084664.144    24084664.7444   24084670.8124
      4527.294        3527.762
 96 10  9 16 13 29.9980000  0  8 22 21 28 26  6 23 17  3            -0.001904672
  -4946159.920 9  -3840174.67847  22948247.663    22948247.7934   22948254.1564
       393.818         306.871
 -13958188.880 9 -10854462.47647  22526128.492    22526129.2844   22526136.1964
      3636.560        2833.683
 -12533691.147 9  -9745203.348 9  20482851.105    20482851.787    20482857.115
      2934.462        2286.594
  -4546790.337 9  -3530201.43448  21656730.478    21656731.4834   21656736.8694
       135.636         105.690
   1454655.179 9   1137743.85348  20686363.661    20686364.4504   20686370.6504
     -1433.621       -1117.107
  -9328544.338 9  -6993680.25448  20201145.723    20201146.4334   20201152.3284
      1879.693        1464.696
  -6144342.867 9  -4777359.63048  20000345.136    20000345.7844   20000351.6954
      1291.242        1006.163
  -5875338.259 9  -4560767.86845  24058820.965    24058821.6444   24058827.5934
      4525.808        3526.604
 96 10  9 16 13 59.9980000  0  8 22 21 28 26  6 23 17  3            -0.001923569
  -4957711.339 9  -3849175.80547  22946049.466    22946049.6334   22946056.0164
       377.818         294.404
 -14067140.732 9 -10939360.00347  22505395.722    22505396.4574   22505403.3794
      3628.513        2827.413
 -12621476.292 9  -9813607.357 9  20466146.093    20466146.826    20466152.143
      2919.350        2274.818
  -4550529.427 9  -3533115.01348  21656018.803    21656019.9374   21656025.3674
       115.221          89.782
   1497928.385 9   1171463.20148  20694598.320    20694599.1094   20694605.2694
     -1449.632       -1129.583
  -9384713.514 9  -7037448.43648  20190457.134    20190457.7934   20190463.6844
      1866.283        1454.246
  -6182937.428 9  -4807433.31548  19993001.089    19993001.4894   19993007.4144
      1283.327         999.995
  -6011041.547 9  -4666510.70445  24032997.516    24032998.1834   24033004.0784
      4522.527        3524.047
 96 10  9 16 14 29.9980000  0  8 22 21 28 26  6 23 17  3            -0.001942477
  -4968826.709 9  -3857837.15547  22943934.266    22943934.4594   22943940.8984
       363.061         282.905
 -14175892.843 9 -11024101.88747  22484700.929    22484701.6514   22484708.5684
      3621.424        2821.889
 -12708846.252 9  -9881687.844 9  20449520.098    20449520.900    20449526.177
      2905.229        2263.815
  -4553699.400 9  -3535585.12648  21655415.583    21655416.7184   21655422.1484
        96.169          74.937
   1541634.275 9   1205519.71148  20702915.330    20702916.1134   20702922.2594
     -1463.959       -1140.747
  -9440515.398 9  -7080930.41848  20179838.374    20179839.0304   20179844.9194
      1853.767        1444.494
  -6221342.467 9  -4837359.32248  19985692.571    19985693.2454   19985699.1754
      1277.002         995.066
  -6146685.310 9  -4772207.12445  24007185.579    24007185.9274   24007191.8014
      4520.160        3522.203
 96 10  9 16 14 59.9980000  0  8 22 21 28 26  6 23 17  3            -0.001961364
  -4979462.725 9  -3866124.97847  22941910.321    22941910.5244   22941916.9244
       348.045         271.204
 -14284400.018 9 -11108652.91447  22464052.773    22464053.4644   22464060.3314
      3614.487        2816.483
 -12795758.307 9  -9949411.524 9  20432981.319    20432982.096    20432987.352
      2890.888        2252.640
  -4556265.387 9  -3537584.60048  21654927.386    21654928.4574   21654933.8884
        76.918          59.936
   1585794.995 9   1239930.62748  20711318.876    20711319.6534   20711325.7854
     -1478.045       -1151.723
  -9495909.419 9  -7124094.58648  20169297.234    20169297.8914   20169303.7694
      1841.136        1434.651
  -6259516.600 9  -4867105.40548  19978428.253    19978428.9344   19978434.8564
      1269.832         989.479
  -6282223.001 9  -4877820.89545  23981393.766    23981393.9274   23981399.9424
      4517.650        3520.247
 96 10  9 16 15 29.9980000  0  8 22 21 28 26  6 23 17  3            -0.001980244
  -4989619.437 9  -3874039.31047  22939977.707    22939977.8074   22939984.1864
       330.546         257.568
 -14392679.616 9 -11193026.60347  22443447.826    22443448.5264   22443455.4164
      3605.557        2809.525
 -12882210.362 9 -10016776.758 9  20416530.064    20416530.820    20416536.065
      2874.051        2239.520
  -4558224.825 9  -3539111.44048  21654554.436    21654555.5644   21654561.0014
        55.335          43.118
   1630392.038 9   1274681.54048  20719805.457    20719806.2394   20719812.3614
     -1493.538       -1163.796
  -9550896.112 9  -7166941.35048  20158833.658    20158834.2904   20158840.1604
      1826.110        1422.943
  -6297441.787 9  -4896657.50048  19971211.516    19971212.0034   19971217.9304
      1260.097         981.894
  -6417655.739 9  -4983352.88046  23955621.602    23955621.8794   23955627.9134
      4512.687        3516.379
 96 10  9 16 15 59.9980000  0  8 22 21 28 26  6 23 17  3            -0.001999156
  -4999342.449 9  -3881615.70347  22938127.513    22938127.6324   22938134.0144
       316.546         246.659
 -14500777.816 9 -11277258.94447  22422877.408    22422878.0934   22422884.9994
      3599.936        2805.145
 -12968247.405 9 -10083818.611 9  20400157.759    20400158.519    20400163.764
      2860.698        2229.115
  -4559637.441 9  -3540212.18348  21654285.525    21654286.7534   21654292.1654
        37.898          29.531
   1675353.517 9   1309716.42548  20728361.320    20728362.1374   20728368.2774
     -1504.911       -1172.658
  -9605521.364 9  -7209506.47748  20148438.823    20148439.4224   20148445.2934
      1814.495        1413.892
  -6335169.479 9  -4926055.70748  19964032.038    19964032.6624   19964038.5584
      1254.007         977.148
  -6553026.107 9  -5088836.26046  23929861.353    23929861.7164   23929867.7904
      4510.914        3514.998
 96 10  9 16 16 29.9980000  0  8 22 21 28 26  6 23 17  3            -0.002018070
  -5008570.843 9  -3888806.67847  22936371.486    22936371.5254   22936377.9574
       299.963         233.737
 -14608626.286 9 -11361296.68647  22402354.482    22402355.1924   22402362.1104
      3591.226        2798.358
 -13053810.805 9 -10150491.386 9  20383875.605    20383876.362    20383881.573
      2844.844        2216.762
  -4560458.594 9  -3540852.03848  21654129.350    21654130.4994   21654135.8864
        18.268          14.235
   1720726.680 9   1345072.11448  20736995.554    20736996.4024   20737002.4974
     -1518.777       -1183.463
  -9659722.121 9  -7251740.82648  20138124.694    20138125.3314   20138131.2174
      1800.151        1402.715
  -6372634.030 9  -4955248.86248  19956902.851    19956903.3924   19956909.2774
      1244.890         970.044
  -6688263.493 9  -5194216.01846  23904126.318    23904126.7974   23904133.0524
      4506.187        3511.314
 96 10  9 16 16 59.9970000  0  8 22 21 28 26  6 23 17  3            -0.002036978
  -5017284.645 9  -3895596.67547  22934713.234    22934713.3244   22934719.8024
       281.396         219.270
 -14716195.027 9 -11445116.46347  22381884.961    22381885.5674   22381892.4554
      3580.790        2790.226
 -13138878.129 9 -10216777.616 9  20367687.845    20367688.598    20367693.794
      2826.945        2202.814
  -4560678.195 9  -3541023.17148  21654087.619    21654088.7254   21654094.0864
        -3.106          -2.420
   1766540.382 9   1380771.07348  20745713.658    20745714.4764   20745720.5584
     -1535.061       -1196.151
  -9713467.082 9  -7293620.01048  20127897.385    20127898.0254   20127903.8854
      1783.459        1389.708
  -6409797.375 9  -4984207.31648  19949830.915    19949831.4874   19949837.3384
      1233.318         961.027
  -6823333.039 9  -5299464.98146  23878423.138    23878423.9154   23878430.1894
      4499.312        3505.957
 96 10  9 16 17 29.9970000  0  8 22 21 28 26  6 23 17  3            -0.002055873
  -5025469.151 9  -3901974.22047  22933155.746    22933155.8844   22933162.3524
       265.427         206.826
 -14823479.804 9 -11528714.96847  22361469.229    22361469.9284   22361476.8304
      3572.513        2783.776
 -13223442.860 9 -10282672.211 9  20351595.743    20351596.451    20351601.660
      2811.828        2191.035
  -4560298.248 9  -3540727.10948  21654159.966    21654161.0074   21654166.3574
       -21.056         -16.407
   1812807.532 9   1416823.37048  20754518.072    20754518.8584   20754524.9484
     -1548.358       -1206.513
  -9766750.760 9  -7335139.75548  20117757.819    20117758.4864   20117764.3304
      1769.912        1379.152
  -6446653.211 9  -5012926.15148  19942817.394    19942818.0564   19942823.9034
      1224.928         954.489
  -6958234.334 9  -5404582.84746  23852752.194    23852753.1224   23852759.3734
      4495.293        3502.826
 96 10  9 16 17 59.9970000  0  8 22 21 28 26  6 23 17  3            -0.002074794
  -5033194.863 9  -3907994.28347  22931685.676    22931685.7834   22931692.2514
       250.305         195.043
 -14930520.909 9 -11612123.59547  22341100.049    22341100.6864   22341107.6194
      3564.203        2777.301
 -13307564.738 9 -10348221.729 9  20335587.847    20335588.596    20335593.790
      2796.906        2179.407
  -4559391.938 9  -3540020.89848  21654332.370    21654333.4744   21654338.7854
       -38.885         -30.300
   1859474.766 9   1453187.41848  20763398.571    20763399.3824   20763405.4784
     -1562.162       -1217.269
  -9819637.961 9  -7376350.55448  20107693.694    20107694.3754   20107700.2254
      1756.583        1368.766
  -6483270.194 9  -5041458.87248  19935849.544    19935850.0944   19935855.9264
      1216.806         948.161
  -7093028.886 9  -5509617.53846  23827102.040    23827102.5444   23827108.7794
      4491.569        3499.924
 96 10  9 16 18 29.9970000  0  8 22 21 28 26  6 23 17  3            -0.002093725
  -5040461.493 9  -3913656.61847  22930302.766    22930302.9974   22930309.5694
       235.059         183.163
 -15037301.190 9 -11695328.98947  22320780.441    22320781.0634   22320788.0184
      3555.477        2770.502
 -13391229.352 9 -10413414.934 9  20319667.051    20319667.747    20319672.944
      2781.620        2167.496
  -4557931.479 9  -3538882.88048  21654610.383    21654611.4034   21654616.6944
       -57.567         -44.857
   1906565.207 9   1489881.24248  20772359.574    20772360.3674   20772366.5224
     -1576.272       -1228.264
  -9872120.023 9  -7417245.66448  20097706.693    20097707.3744   20097713.2314
      1743.192        1358.331
  -6519637.181 9  -5069796.77748  19928929.200    19928929.7204   19928935.5444
      1208.760         941.891
  -7227701.181 9  -5614556.96346  23801475.334    23801475.2424   23801481.5124
      4487.550        3496.792
 96 10  9 16 18 59.9970000  0  8 22 21 28 26  6 23 17  3            -0.002112657
  -5047270.904 9  -3918962.68147  22929006.988    22929007.2024   22929013.7744
       218.841         170.525
 -15143829.880 9 -11778338.33947  22300508.627    22300509.3334   22300516.2544
      3546.397        2763.426
 -13474435.901 9 -10478251.211 9  20303833.335    20303834.080    20303839.267
      2765.348        2154.817
  -4555910.714 9  -3537308.26748  21654994.964    21654995.9874   21655001.2534
       -77.327         -60.255
   1954076.042 9   1526902.64448  20781400.569    20781401.3614   20781407.5624
     -1591.091       -1239.811
  -9924210.079 9  -7457835.31348  20087794.284    20087794.9674   20087800.8224
      1729.605        1347.744
  -6555777.807 9  -5097958.30848  19922051.848    19922052.4064   19922058.2124
      1200.557         935.499
  -7362264.924 9  -5719411.80846  23775868.628    23775868.5104   23775874.8664
      4483.217        3493.416
 96 10  9 16 19 29.9970000  0  8 22 21 28 26  6 23 17  3            -0.002131567
  -5053612.012 9  -3923903.83147  22927800.252    22927800.5184   22927807.0644
       203.397         158.491
 -15250096.443 9 -11861143.42347  22280286.879    22280287.4614   22280294.3594
      3537.471        2756.471
 -13557164.472 9 -10542715.032 9  20288090.640    20288091.348    20288096.527
      2749.270        2142.288
  -4553296.770 9  -3535271.42548  21655492.482    21655493.4284   21655498.6514
       -97.570         -76.029
   2002017.966 9   1564259.96048  20790523.551    20790524.4084   20790530.6614
     -1605.776       -1251.254
  -9975915.081 9  -7498124.91648  20077955.126    20077955.8254   20077961.6784
      1716.721        1337.705
  -6591688.811 9  -5125940.91248  19915218.160    19915218.7844   19915224.5894
      1192.794         929.450
  -7496711.507 9  -5824175.34646  23750284.188    23750284.0734   23750290.5184
      4479.253        3490.327
 96 10  9 16 19 59.9970000  0  8 22 21 28 26  6 23 17  3            -0.002150470
  -5059528.076 9  -3928513.77647  22926674.399    22926674.7384   22926681.2784
       190.625         148.539
 -15356138.453 9 -11943773.53947  22260107.825    22260108.3374   22260115.2094
      3531.693        2751.968
 -13639445.182 9 -10606829.875 9  20272433.132    20272433.839    20272439.031
      2735.776        2131.774
  -4550105.772 9  -3532784.93348  21656099.778    21656100.6664   21656105.8724
      -115.428         -89.944
   2050374.842 9   1601940.61648  20799725.445    20799726.4404   20799732.7244
     -1618.233       -1260.961
 -10027262.205 9  -7538135.65648  20068184.081    20068184.7654   20068190.6494
      1706.179        1329.490
  -6627397.799 9  -5153766.10648  19908422.937    19908423.5804   19908429.4014
      1187.452         925.287
  -7631073.917 9  -5928873.29846  23724716.012    23724715.7284   23724722.2534
      4477.822        3489.212
 96 10  9 16 20 29.9970000  0  8 22 21 28 26  6 23 17  3            -0.002169344
  -5064986.005 9  -3932766.72347  22925635.876    22925636.1714   22925642.7014
       175.217         136.533
 -15461938.753 9 -12026215.30747  22239974.514    22239975.1804   22239982.0824
      3523.788        2745.809
 -13721249.522 9 -10670573.514 9  20256866.191    20256866.979    20256872.178
      2719.881        2119.388
  -4546306.378 9  -3529824.37548  21656822.761    21656823.6964   21656828.8694
      -135.585        -105.651
   2099172.772 9   1639964.94548  20809011.450    20809012.3714   20809018.6844
     -1632.891       -1272.383
 -10078228.838 9  -7577849.91048  20058485.487    20058486.1524   20058492.0184
      1693.467        1319.585
  -6662873.456 9  -5181409.48048  19901672.184    19901672.7804   19901678.6334
      1179.690         919.239
  -7765319.980 9  -6033480.59646  23699169.539    23699169.5254   23699176.0524
      4473.936        3486.184
 96 10  9 16 20 59.9970000  0  8 22 21 28 26  6 23 17  3            -0.002188200
  -5069992.156 9  -3936667.65547  22924683.291    22924683.5714   22924690.1024
       159.380         124.192
 -15567518.335 9 -12108485.08847  22219883.392    22219884.0584   22219890.9634
      3515.594        2739.424
 -13802585.963 9 -10733952.563 9  20241388.336    20241389.186    20241394.392
      2703.357        2106.512
  -4541923.794 9  -3526409.38348  21657656.670    21657657.6704   21657662.8204
      -155.753        -121.366
   2148402.437 9   1678325.69448  20818379.557    20818380.4854   20818386.7934
     -1648.210       -1284.319
 -10128816.628 9  -7617268.96448  20048858.904    20048859.6244   20048865.5064
      1679.806        1308.940
  -6698122.862 9  -5208876.55448  19894964.388    19894965.0534   19894970.8824
      1171.030         912.491
  -7899455.963 9  -6138002.11646  23673644.407    23673644.2534   23673650.8534
      4469.141        3482.448
 96 10  9 16 21 29.9970000  0  8 22 21 28 26  6 23 17  3            -0.002207033
  -5074533.787 9  -3940206.61347  22923819.175    22923819.3504   22923825.8684
       144.628         112.697
 -15672855.182 9 -12190565.72647  22199838.467    22199839.1134   22199845.9994
      3508.103        2733.587
 -13883435.550 9 -10796952.242 9  20226003.211    20226004.023    20226009.238
      2687.857        2094.434
  -4536947.902 9  -3522532.07248  21658603.365    21658604.5484   21658609.7044
      -174.543        -136.007
   2198084.780 9   1717039.17448  20827833.782    20827834.7674   20827841.0904
     -1662.637       -1295.561
 -10178997.341 9  -7656370.80948  20039309.843    20039310.5494   20039316.4034
      1666.701        1298.728
  -6733117.716 9  -5236145.27248  19888305.116    19888305.7424   19888311.5804
      1163.223         906.408
  -8033449.439 9  -6242412.58846  23648146.246    23648146.1074   23648152.7764
      4465.046        3479.257
 96 10  9 16 21 59.9970000  0  8 22 21 28 26  6 23 17  3            -0.002225862
  -5078628.746 9  -3943397.51047  22923039.973    22923040.1124   22923046.6764
       129.142         100.630
 -15777970.067 9 -12272473.41047  22179835.671    22179836.3824   22179843.2504
      3500.213        2727.439
 -13963820.166 9 -10859589.607 9  20210706.515    20210707.330    20210712.558
      2671.815        2081.934
  -4531420.405 9  -3518224.93948  21659655.231    21659656.4244   21659661.5874
      -193.190        -150.538
   2248194.329 9   1756085.53848  20837369.329    20837370.3354   20837376.6614
     -1677.010       -1306.761
 -10228780.375 9  -7695162.78248  20029836.434    20029837.1534   20029842.9924
      1652.848        1287.934
  -6767883.691 9  -5263235.64748  19881689.434    19881690.0114   19881695.8324
      1155.363         900.283
  -8167316.092 9  -6346724.25546  23622671.960    23622672.2114   23622678.8154
      4460.012        3475.334
 96 10  9 16 22 29.9970000  0  8 22 21 28 26  6 23 17  3            -0.002244675
  -5082249.463 9  -3946218.87647  22922351.065    22922351.1834   22922357.7284
       111.521          86.899
 -15882832.402 9 -12354184.30347  22159880.992    22159881.6934   22159888.5984
      3489.961        2719.450
 -14043706.853 9 -10921838.977 9  20195504.549    20195505.392    20195510.627
      2653.233        2067.454
  -4525324.522 9  -3513474.91148  21660815.236    21660816.4494   21660821.6384
      -213.854        -166.639
   2298735.067 9   1795467.89448  20846987.005    20846987.9654   20846994.2864
     -1693.045       -1319.256
 -10278131.884 9  -7733618.49748  20020445.197    20020445.8734   20020451.6714
      1636.439        1275.147
  -6802406.842 9  -5290136.81048  19875119.855    19875120.5094   19875126.3374
      1145.555         892.640
  -8301011.494 9  -6450902.46546  23597231.018    23597230.8134   23597237.4144
      4452.389        3469.394
 96 10  9 16 22 59.9970000  0  8 22 21 28 26  6 23 17  3            -0.002263489
  -5085410.443 9  -3948682.00147  22921749.453    22921749.6694   22921756.2604
        96.636          75.301
 -15987456.782 9 -12435709.76447  22139971.626    22139972.3114   22139979.2234
      3482.268        2713.456
 -14123103.398 9 -10983706.416 9  20180395.912    20180396.732    20180401.949
      2637.194        2054.956
  -4518677.861 9  -3508295.69948  21662079.918    21662081.2724   21662086.4474
      -232.056        -180.823
   2349682.725 9   1835167.34448  20856681.982    20856683.0004   20856689.3624
     -1706.042       -1329.383
 -10327052.164 9  -7771738.19048  20011136.014    20011136.6774   20011142.4514
      1622.499        1264.285
  -6836711.600 9  -5316867.79148  19868591.869    19868592.5284   19868598.3634
      1138.630         887.244
  -8434545.307 9  -6554954.76046  23571820.315    23571820.2004   23571826.7644
      4447.279        3465.412
 96 10  9 16 23 29.9970000  0  8 22 21 28 26  6 23 17  3            -0.002282319
  -5088140.038 9  -3950808.99047  22921229.978    22921230.2424   22921236.8884
        84.285          65.677
 -16091855.382 9 -12517059.31447  22120105.228    22120105.9374   22120112.8154
      3476.625        2709.058
 -14202028.585 9 -11045206.568 9  20165376.934    20165377.775    20165383.002
      2623.443        2044.241
  -4511489.133 9  -3502694.10248  21663448.023    21663449.2904   21663454.4474
      -248.267        -193.455
   2401002.391 9   1875156.66048  20866447.956    20866448.8454   20866455.1864
     -1716.278       -1337.359
 -10375576.241 9  -7809549.15248  20001902.209    20001902.8424   20001908.6244
      1611.470        1255.691
  -6870816.460 9  -5343443.01548  19862101.931    19862102.5874   19862108.4334
      1133.859         883.526
  -8567947.143 9  -6658904.23246  23546434.527    23546434.6964   23546441.2814
      4445.169        3463.768
 96 10  9 16 23 59.9970000  0  8 22 21 28 26  6 23 17  3            -0.002301171
  -5090448.515 9  -3952607.82247  22920790.708    22920790.9884   22920797.6274
        69.568          54.209
 -16196031.827 9 -12598235.74448  22100281.121    22100281.8174   22100288.6844
      3468.387        2702.639
 -14280484.784 9 -11106341.272 9  20150447.191    20150448.058    20150453.298
      2606.983        2031.415
  -4503755.809 9  -3496668.14248  21664919.778    21664920.9244   21664926.0494
      -267.303        -208.288
   2452681.892 9   1915426.37448  20876282.262    20876283.1254   20876289.4714
     -1729.020       -1347.288
 -10423715.432 9  -7847060.20348  19992741.541    19992742.2734   19992748.0524
      1597.868        1245.092
  -6904712.744 9  -5369855.70848  19855651.669    19855652.2984   19855658.1984
      1125.789         877.238
  -8701228.493 9  -6762759.81046  23521071.466    23521072.0554   23521078.6424
      4440.150        3459.857
 96 10  9 16 24 29.9970000  0  8 22 21 28 26  6 23 17  3            -0.002320045
  -5092339.743 9  -3954081.52847  22920430.806    22920431.1214   22920437.7674
        56.178          43.775
 -16299980.993 9 -12679235.08047  22080500.166    22080500.9304   22080507.8254
      3461.337        2697.146
 -14358473.286 9 -11167111.535 9  20135606.439    20135607.340    20135612.593
      2592.027        2019.761
  -4495474.145 9  -3490214.90148  21666495.710    21666496.8694   21666502.0274
      -285.021        -222.094
   2504720.553 9   1955975.94548  20886184.857    20886185.7734   20886192.1254
     -1740.583       -1356.298
 -10471483.123 9  -7884281.77748  19983651.632    19983652.3924   19983658.1504
      1586.360        1236.125
  -6938382.296 9  -5396091.72748  19849244.500    19849245.1914   19849251.0754
      1118.514         871.569
  -8834390.237 9  -6866522.20246  23495731.767    23495732.2294   23495738.7244
      4437.009        3457.410
 96 10  9 16 24 59.9970000  0  8 22 21 28 26  6 23 17  3            -0.002338927
  -5093797.125 9  -3955217.18847  22920153.482    22920153.8084   22920160.4824
        41.054          31.990
 -16403678.864 9 -12760038.59448  22060767.139    22060767.8684   22060774.7604
      3451.868        2689.767
 -14435977.042 9 -11227504.072 9  20120857.978    20120858.876    20120864.127
      2574.962        2006.464
  -4486617.553 9  -3483313.67248  21668180.943    21668182.2514   21668187.3914
      -305.230        -237.842
   2557142.640 9   1996824.30048  20896160.444    20896161.4084   20896167.7724
     -1754.127       -1366.852
 -10518873.099 9  -7921209.02348  19974633.697    19974634.3614   19974640.1194
      1573.117        1225.805
  -6971790.965 9  -5422124.46148  19842887.125    19842887.7554   19842893.6354
      1108.607         863.850
  -8967425.728 9  -6970186.21746  23470415.640    23470416.3644   23470422.8424
      4432.073        3453.563
 96 10  9 16 25 29.9970000  0  8 22 21 28 26  6 23 17  3            -0.002357821
  -5094829.042 9  -3956021.29647  22919957.097    22919957.3994   22919964.0564
        28.353          22.093
 -16507121.333 9 -12840643.10448  22041082.666    22041083.4204   22041090.3284
      3445.140        2684.525
 -14512997.306 9 -11287519.868 9  20106201.571    20106202.426    20106207.679
      2560.469        1995.171
  -4477191.656 9  -3475968.82748  21669974.691    21669975.9724   21669981.1014
      -322.361        -251.190
   2609944.019 9   2037968.18948  20906208.262    20906209.1924   20906215.5514
     -1765.251       -1375.520
 -10565898.701 9  -7957852.34848  19965684.993    19965685.6784   19965691.4684
      1562.503        1217.535
  -7004920.049 9  -5447939.33848  19836582.923    19836583.5274   19836589.4194
      1100.838         857.796
  -9100343.684 9  -7073758.62946  23445122.132    23445122.9074   23445129.3654
      4429.854        3451.834
 96 10  9 16 25 59.9970000  0  8 22 21 28 26  6 23 17  3            -0.002376741
  -5095444.953 9  -3956501.24647  22919839.937    22919840.2514   22919846.8834
        14.167          11.039
 -16610330.662 9 -12921065.93548  22021442.629    22021443.3464   22021450.2364
      3436.961        2678.151
 -14589547.812 9 -11347169.614 9  20091634.557    20091635.374    20091640.628
      2544.355        1982.614
  -4467225.189 9  -3468202.75348  21671871.220    21671872.4994   21671877.6114
      -340.510        -265.332
   2663113.414 9   2079398.85848  20916325.989    20916327.0374   20916333.3844
     -1777.921       -1385.393
 -10612565.261 9  -7994215.89448  19956804.562    19956805.3244   19956811.1304
      1550.023        1207.810
  -7037785.604 9  -5473548.86248  19830328.844    19830329.4194   19830335.3044
      1091.889         850.822
  -9233153.221 9  -7177246.56046  23419848.990    23419850.0814   23419856.3954
      4425.580        3448.504
 96 10  9 16 26 29.9970000  0  8 22 21 28 26  6 23 17  3            -0.002395677
  -5095638.154 9  -3956651.82847  22919803.126    22919803.5044   22919810.1394
        -1.178          -0.918
 -16713304.959 9 -13001305.62248  22001847.212    22001847.9944   22001854.8444
      3428.047        2671.205
 -14665618.264 9 -11406445.292 9  20077158.779    20077159.666    20077164.912
      2526.936        1969.041
  -4456721.805 9  -3460018.30048  21673869.865    21673871.2144   21673876.3614
      -359.698        -280.284
   2716653.982 9   2121118.75248  20926514.446    20926515.5114   20926521.8574
     -1791.466       -1395.947
 -10658863.105 9  -8030292.12248  19947994.374    19947995.1394   19948000.9534
      1536.444        1197.229
  -7070404.714 9  -5498966.35148  19824121.572    19824122.2244   19824128.0974
      1082.722         843.679
  -9365840.166 9  -7280638.97346  23394599.519    23394600.5584   23394606.7074
      4420.080        3444.218
 96 10  9 16 26 59.9970000  0  8 22 21 28 26  6 23 17  3            -0.002414623
  -5095406.277 9  -3956471.17547  22919847.395    22919847.6694   22919854.3234
       -14.861         -11.580
 -16816042.041 9 -13081360.47848  21982297.064    21982297.8044   21982304.6074
      3420.627        2665.424
 -14741188.857 9 -11465331.473 9  20062778.077    20062779.088    20062784.323
      2510.575        1956.292
  -4445669.643 9  -3451406.23648  21675972.956    21675974.3834   21675979.5534
      -377.488        -294.146
   2770578.669 9   2163137.95148  20936776.031    20936777.0864   20936783.3954
     -1804.022       -1405.731
 -10704776.873 9  -8066069.08348  19939257.416    19939258.0454   19939263.8404
      1524.070        1187.587
  -7102778.541 9  -5524192.71848  19817961.034    19817961.6734   19817967.5614
      1075.083         837.727
  -9498385.395 9  -7383920.96946  23369376.821    23369378.0644   23369384.1194
      4415.611        3440.736
 96 10  9 16 27 29.9970000  0  8 22 21 28 26  6 23 17  3            -0.002433558
  -5094736.425 9  -3955949.23547  22919974.743    22919975.1604   22919981.7854
       -28.522         -22.225
 -16918536.083 9 -13161225.95248  21962793.093    21962793.8444   21962800.6404
      3413.564        2659.920
 -14816245.231 9 -11523816.965 9  20048495.322    20048496.344    20048501.578
      2494.450        1943.727
  -4434070.591 9  -3442368.01348  21678180.294    21678181.6484   21678186.8184
      -394.559        -307.449
   2824910.101 9   2205474.10048  20947114.959    20947116.0674   20947122.3744
     -1816.882       -1415.752
 -10750302.036 9  -8101543.23848  19930594.181    19930594.9144   19930600.7204
      1512.117        1178.273
  -7134909.376 9  -5549229.73748  19811846.786    19811847.3744   19811853.2804
      1068.384         832.507
  -9630762.083 9  -7487071.60846  23344186.684    23344187.5964   23344193.4604
      4410.715        3436.921
 96 10  9 16 27 59.9970000  0  8 22 21 28 26  6 23 17  3            -0.002452485
  -5093653.947 9  -3955105.77947  22920180.619    22920181.1744   22920187.7964
       -42.904         -33.432
 -17020807.742 9 -13240918.13748  21943331.387    21943332.1774   21943338.9664
      3405.229        2653.425
 -14890811.234 9 -11581920.349 9  20034305.901    20034306.909    20034312.166
      2477.333        1930.389
  -4421951.185 9  -3432924.33348  21680486.573    21680487.9284   21680493.0824
      -412.598        -321.505
   2879638.440 9   2248119.51648  20957529.421    20957530.5464   20957536.8914
     -1830.931       -1426.699
 -10795463.352 9  -8136733.87748  19922000.230    19922001.0134   19922006.8074
      1499.416        1168.376
  -7166843.899 9  -5574113.78848  19805769.858    19805770.4644   19805776.3584
      1061.338         827.017
  -9762976.898 9  -7590096.13346  23319026.714    23319027.8984   23319033.7984
      4404.229        3431.867
 96 10  9 16 28 29.9970000  0  8 22 21 28 26  6 23 17  3            -0.002471396
  -5092176.406 9  -3953954.47447  22920461.876    22920462.3734   22920469.0374
       -55.242         -43.046
 -17122868.367 9 -13320445.87948  21923909.860    21923910.6434   21923917.4504
      3399.061        2648.619
 -14964902.201 9 -11639653.572 9  20020206.826    20020207.871    20020213.131
      2462.431        1918.777
  -4409324.914 9  -3423085.68448  21682889.403    21682890.6404   21682895.7624
      -428.767        -334.104
   2934753.470 9   2291066.25848  20968017.522    20968018.5714   20968024.9574
     -1843.024       -1436.123
 -10840295.184 9  -8171667.76948  19913468.997    19913469.8024   19913475.5894
      1489.624        1160.746
  -7198606.581 9  -5598863.93248  19799725.654    19799726.2654   19799732.1424
      1056.359         823.137
  -9895031.436 9  -7692995.76046  23293897.550    23293898.7624   23293904.6864
      4399.771        3428.393
 96 10  9 16 28 59.9970000  0  8 22 21 28 26  6 23 17  3            -0.002490270
  -5090266.106 9  -3952465.96347  22920825.585    22920825.9424   22920832.5904
       -72.649         -56.610
 -17224678.290 9 -13399778.27448  21904536.030    21904536.8044   21904543.6374
      3387.743        2639.800
 -15038487.127 9 -11696992.480 9  20006204.123    20006205.150    20006210.406
      2442.811        1903.489
  -4396157.146 9  -3412825.09048  21685395.173    21685396.3864   21685401.5214
      -449.542        -350.292
   2990292.810 9   2334343.63048  20978586.297    20978587.3604   20978593.7774
     -1859.853       -1449.236
 -10884767.141 9  -8206321.24248  19905006.261    19905007.0684   19905012.8714
      1474.588        1149.030
  -7230150.817 9  -5623443.86148  19793722.958    19793723.6054   19793729.4694
      1046.164         815.193
 -10026892.376 9  -7795744.51446  23268805.274    23268806.4024   23268812.3914
      4390.518        3421.183
 96 10  9 16 29 29.9970000  0  8 22 21 28 26  6 23 17  3            -0.002509086
  -5087867.241 9  -3950596.74047  22921282.113    22921282.4564   22921289.1044
       -87.685         -68.326
 -17326182.010 9 -13478872.06848  21885220.436    21885221.2584   21885228.1074
      3378.637        2632.704
 -15111523.190 9 -11753903.699 9  19992305.882    19992306.863    19992312.110
      2425.835        1890.261
  -4382405.096 9  -3402109.21148  21688012.012    21688013.2924   21688018.4354
      -467.853        -364.561
   3046281.956 9   2377971.50148  20989240.748    20989241.7614   20989248.2064
     -1873.065       -1459.531
 -10928818.830 9  -8240647.23048  19896623.500    19896624.3024   19896630.1214
      1461.657        1138.954
  -7261424.358 9  -5647812.86248  19787771.781    19787772.4424   19787778.3164
      1038.267         809.039
 -10158512.118 9  -7898305.33446  23243759.392    23243759.9984   23243766.0164
      4383.928        3416.048
 96 10  9 16 29 59.9970000  0  8 22 21 28 26  6 23 17  3            -0.002527878
  -5085010.589 9  -3948370.80246  22921825.585    22921826.0674   22921832.7424
      -101.803         -79.327
 -17427398.283 9 -13557741.87548  21865959.619    21865960.4344   21865967.2454
      3370.091        2626.045
 -15184039.528 9 -11810409.942 9  19978506.533    19978507.484    19978512.720
      2409.419        1877.469
  -4368091.409 9  -3390955.69348  21690735.774    21690737.1024   21690742.2504
      -485.636        -378.418
   3102665.328 9   2421906.55948  20999970.147    20999971.1534   20999977.6394
     -1884.849       -1468.714
 -10972468.817 9  -8274660.20348  19888317.193    19888318.0074   19888323.7924
      1449.202        1129.248
  -7292447.997 9  -5671987.13448  19781868.144    19781868.8574   19781874.7184
      1030.728         803.165
 -10289929.218 9  -8000708.25446  23218751.936    23218752.1644   23218758.0934
      4377.990        3411.421
 96 10  9 16 30 29.9970000  0  8 22 21 28 26  6 23 17  3            -0.002546673
  -5081722.941 9  -3945809.02546  22922451.298    22922451.6584   22922458.4364
      -116.902         -91.092
 -17528356.707 9 -13636410.75848  21846747.849    21846748.6584   21846755.4514
      3360.798        2618.804
 -15256053.420 9 -11866524.664 9  19964802.755    19964803.710    19964808.935
      2391.835        1863.768
  -4353229.187 9  -3379374.74248  21693563.905    21693565.3034   21693570.4344
      -504.751        -393.312
   3159403.818 9   2466118.32948  21010767.169    21010768.1564   21010774.6564
     -1897.269       -1478.391
 -11015729.429 9  -8308369.77148  19880084.911    19880085.7794   19880091.5844
      1435.101        1118.261
  -7323221.923 9  -5695966.81748  19776012.053    19776012.7884   19776018.6154
      1021.186         795.729
 -10421166.326 9  -8102970.91146  23193777.966    23193778.5144   23193784.4484
      4371.463        3406.335
 96 10  9 16 30 59.9970000  0  8 22 21 28 26  6 23 17  3            -0.002565495
  -5078020.188 9  -3942923.79246  22923155.800    22923156.3164   22923163.0974
      -130.834        -101.949
 -17629065.291 9 -13714884.96548  21827583.675    21827584.4204   21827591.2044
      3352.167        2612.078
 -15327566.160 9 -11922248.884 9  19951194.304    19951195.270    19951200.516
      2374.755        1850.458
  -4337827.699 9  -3367373.59048  21696494.676    21696496.0954   21696501.2454
      -522.880        -407.439
   3216478.353 9   2510591.95348  21021628.042    21021629.0494   21021635.5814
     -1908.605       -1487.225
 -11058585.731 9  -8341764.29748  19871929.577    19871930.4754   19871936.2834
      1421.208        1107.435
  -7353736.781 9  -5719744.63548  19770205.238    19770206.0134   19770211.8124
      1012.240         788.758
 -10552239.957 9  -8205106.20146  23168835.513    23168836.0704   23168842.0464
      4365.625        3401.786
 96 10  9 16 31 29.9970000  0  8 22 21 28 26  6 23 17  3            -0.002584338
  -5073899.966 9  -3939713.25846  22923939.982    22923940.4014   22923947.1734
      -143.823        -112.070
 -17729502.199 9 -13793147.47748  21808471.119    21808471.9024   21808478.6464
      3343.544        2605.359
 -15398559.246 9 -11977568.178 9  19937684.778    19937685.760    19937690.998
      2358.007        1837.408
  -4321872.996 9  -3354941.35748  21699530.844    21699532.1624   21699537.3034
      -540.885        -421.469
   3273897.171 9   2555333.84848  21032554.479    21032555.4974   21032562.0174
     -1919.648       -1495.830
 -11101030.017 9  -8374837.76648  19863852.690    19863853.6074   19863859.4364
      1408.425        1097.474
  -7383976.496 9  -5743308.05648  19764450.838    19764451.6094   19764457.4204
      1003.690         782.096
 -10683132.555 9  -8307100.40246  23143927.467    23143928.0384   23143934.0264
      4360.385        3397.703
 96 10  9 16 31 59.9970000  0  8 22 21 28 26  6 23 17  3            -0.002603187
  -5069374.000 9  -3936186.55546  22924801.306    22924801.6654   22924808.4614
      -157.124        -122.434
 -17829660.308 9 -13871192.73948  21789411.696    21789412.4184   21789419.1704
      3334.549        2598.350
 -15469020.023 9 -12032472.681 9  19924276.496    19924277.522    19924282.783
      2340.140        1823.486
  -4305348.344 9  -3342065.01248  21702675.523    21702676.6944   21702681.8424
      -559.858        -436.253
   3331687.677 9   2600365.36748  21043551.597    21043552.6814   21043559.2194
     -1932.340       -1505.719
 -11143066.003 9  -8407593.07948  19855853.554    19855854.4424   19855860.2734
      1394.830        1086.880
  -7413931.934 9  -5766649.96148  19758750.475    19758751.2894   19758757.1024
       994.065         774.596
 -10813835.204 9  -8408946.59946  23119055.767    23119056.1484   23119062.1854
      4353.825        3392.591
 96 10  9 16 32 29.9970000  0  8 22 21 28 26  6 23 17  3            -0.002622044
  -5064451.467 9  -3932350.83146  22925738.012    22925738.3714   22925745.2374
      -170.840        -133.122
 -17929555.627 9 -13949033.23048  21770402.245    21770402.9544   21770409.7004
      3325.332        2591.168
 -15538947.580 9 -12086961.693 9  19910969.673    19910970.759    19910976.029
      2321.918        1809.287
  -4288257.389 9  -3328747.38848  21705927.828    21705929.0064   21705934.1654
      -579.150        -451.286
   3389860.628 9   2645694.90247  21054621.728    21054622.6484   21054629.2334
     -1945.565       -1516.025
 -11184700.691 9  -8440035.68548  19847930.724    19847931.6204   19847937.4744
      1381.135        1076.209
  -7443595.677 9  -5789764.56648  19753105.709    19753106.4494   19753112.2864
       983.875         766.656
 -10944348.019 9  -8510644.87046  23094219.685    23094220.3264   23094226.4424
      4347.335        3387.534
 96 10  9 16 32 59.9970000  0  8 22 21 28 26  6 23 17  3            -0.002640912
  -5059147.758 9  -3928218.10246  22926747.388    22926747.6744   22926754.5184
      -183.390        -142.901
 -18029200.249 9 -14026678.37148  21751440.413    21751441.1964   21751447.9684
      3316.966        2584.649
 -15608357.433 9 -12141047.295 9  19897761.481    19897762.498    19897767.784
      2304.749        1795.908
  -4270625.552 9  -3315008.30048  21709283.261    21709284.2524   21709289.3994
      -597.052        -465.235
   3448398.961 9   2691309.14347  21065761.170    21065762.1124   21065768.7674
     -1957.603       -1525.405
 -11225961.428 9  -8472186.90748  19840079.094    19840079.9044   19840085.7994
      1369.044        1066.788
  -7472993.429 9  -5812671.90948  19747511.517    19747512.2814   19747518.0824
       975.282         759.960
 -11074696.054 9  -8612214.74246  23069415.130    23069415.9314   23069422.1244
      4341.871        3383.276
 96 10  9 16 33 29.9970000  0  8 22 21 28 26  6 23 17  3            -0.002659774
  -5053441.004 9  -3923771.30246  22927833.427    22927833.6364   22927840.5164
      -195.980        -152.712
 -18128573.812 9 -14104112.29748  21732530.221    21732531.0034   21732537.7934
      3309.223        2578.615
 -15677228.811 9 -12194713.311 9  19884655.714    19884656.728    19884661.980
      2287.823        1782.719
  -4252431.877 9  -3300831.41948  21712745.292    21712746.3714   21712751.5704
      -614.673        -478.966
   3507317.468 9   2737219.62647  21076972.934    21076973.9474   21076980.6574
     -1969.277       -1534.502
 -11266841.424 9  -8504041.44748  19832299.844    19832300.6964   19832306.6004
      1357.431        1057.738
  -7502116.067 9  -5835364.88148  19741969.668    19741970.4224   19741976.2354
       967.429         753.841
 -11204860.862 9  -8713641.85146  23044645.497    23044646.4134   23044652.6564
      4336.967        3379.455
 96 10  9 16 33 59.9970000  0  8 22 21 28 26  6 23 17  3            -0.002678634
  -5047328.075 9  -3919007.99546  22928996.680    22928996.9414   22929003.7504
      -210.955        -164.381
 -18227708.109 9 -14181359.78048  21713665.561    21713666.3864   21713673.1734
      3300.468        2571.793
 -15745569.649 9 -12247965.916 9  19871650.868    19871651.914    19871657.149
      2269.025        1768.071
  -4233693.804 9  -3286230.33148  21716310.797    21716312.1324   21716317.3124
      -633.583        -493.701
   3566611.312 9   2783422.58447  21088256.240    21088257.2094   21088263.9654
     -1982.748       -1544.998
 -11307348.629 9  -8535605.49148  19824591.527    19824592.4394   19824598.3264
      1343.921        1047.211
  -7530981.512 9  -5857857.44148  19736476.776    19736477.5544   19736483.3584
       957.806         746.342
 -11334860.484 9  -8814940.23546  23019907.511    23019908.3364   23019914.6174
      4330.284        3374.247
 96 10  9 16 34 29.9970000  0  8 22 21 28 26  6 23 17  3            -0.002697490
  -5040791.044 9  -3913914.23646  22930240.452    22930240.9204   22930247.7624
      -224.967        -175.299
 -18326613.334 9 -14258428.76548  21694844.542    21694845.3684   21694852.0924
      3292.886        2565.885
 -15813380.166 9 -12300805.284 9  19858746.939    19858747.996    19858753.232
      2251.551        1754.455
  -4214424.423 9  -3271215.23247  21719977.524    21719978.9964   21719984.1454
      -651.097        -507.348
   3626269.709 9   2829909.61247  21099608.955    21099609.8664   21099616.6234
     -1994.439       -1554.108
 -11347483.651 9  -8566879.53448  19816954.135    19816955.0114   19816960.9114
      1331.669        1037.664
  -7559600.935 9  -5880158.30348  19731030.623    19731031.4764   19731037.2434
       950.165         740.388
 -11464689.502 9  -8916105.69346  22995201.769    22995202.6964   22995209.0044
      4324.746        3369.932
 96 10  9 16 34 59.9970000  0  8 22 21 28 26  6 23 17  3            -0.002716353
  -5033851.851 9  -3908507.10346  22931560.880    22931561.4194   22931568.2804
      -238.402        -185.768
 -18425297.830 9 -14335325.75748  21676065.476    21676066.3464   21676073.0554
      3285.252        2559.937
 -15880684.403 9 -12353250.150 9  19845939.411    19845940.432    19845945.684
      2234.609        1741.254
  -4194656.047 9  -3255811.31047  21723739.303    21723740.7924   21723745.9174
      -667.668        -520.261
   3686255.894 9   2876652.04747  21111023.805    21111024.9084   21111031.6664
     -2005.561       -1562.775
 -11387274.163 9  -8597885.13248  19809382.246    19809383.1324   19809389.0354
      1320.253        1028.769
  -7588020.039 9  -5902303.06248  19725622.704    19725623.5304   19725629.2774
       943.613         735.283
 -11594359.214 9  -9017147.00947  22970526.534    22970527.3534   22970533.6394
      4319.066        3365.506
 96 10  9 16 35 29.9970000  0  8 22 21 28 26  6 23 17  3            -0.002735166
  -5026430.600 9  -3902724.32846  22932973.261    22932973.7284   22932980.4274
      -255.886        -199.392
 -18523678.317 9 -14411985.85248  21657344.298    21657345.1774   21657351.8624
      3273.891        2551.084
 -15947404.459 9 -12405239.807 9  19833243.081    19833244.033    19833249.299
      2213.796        1725.036
  -4174314.361 9  -3239960.65447  21727610.217    21727611.6314   21727616.7964
      -687.856        -535.992
   3746658.189 9   2923718.73447  21122517.981    21122519.1154   21122525.8874
     -2020.876       -1574.709
 -11426645.464 9  -8628564.06148  19801890.141    19801891.0494   19801896.9594
      1304.970        1016.860
  -7616169.308 9  -5924237.56048  19720266.065    19720266.8734   19720272.6414
       933.432         727.350
 -11723778.993 9  -9117993.57947  22945898.654    22945899.6174   22945905.9014
      4309.266        3357.870
 96 10  9 16 35 59.9970000  0  8 22 21 28 26  6 23 17  3            -0.002753927
  -5018535.421 9  -3896572.26546  22934475.795    22934476.1734   22934482.8504
      -270.629        -210.880
 -18621756.453 9 -14488410.35548  21638680.667    21638681.4994   21638688.1924
      3264.248        2543.570
 -16013540.909 9 -12456774.710 9  19820657.701    19820658.686    19820663.951
      2195.034        1710.416
  -4153411.631 9  -3223672.82547  21731587.810    21731589.2694   21731594.4124
      -705.806        -549.979
   3807481.390 9   2971113.38847  21134092.212    21134093.4444   21134100.1944
     -2034.103       -1585.015
 -11465600.014 9  -8658918.25548  19794477.322    19794478.2534   19794484.1694
      1291.761        1006.567
  -7644043.009 9  -5945957.34448  19714961.820    19714962.7024   19714968.4594
       924.583         720.454
 -11852937.927 9  -9218636.88647  22921320.338    22921321.5194   22921327.8004
      4300.848        3351.310
 96 10  9 16 36 29.9970000  0  8 22 21 28 26  6 23 17  3            -0.002772689
  -5010261.104 9  -3890124.77446  22936050.379    22936050.7664   22936057.4274
      -281.766        -219.558
 -18719584.964 9 -14564640.33848  21620064.537    21620065.3234   21620072.0314
      3256.679        2537.672
 -16079162.448 9 -12507908.380 9  19808170.366    19808171.329    19808176.591
      2178.907        1697.850
  -4132019.412 9  -3207003.56747  21735658.708    21735660.1014   21735665.2044
      -721.126        -561.916
   3868643.143 9   3018771.84847  21145730.962    21145732.1954   21145738.9054
     -2044.187       -1592.873
 -11504210.817 9  -8689004.59048  19787129.969    19787130.8474   19787136.7634
      1281.502         998.573
  -7671704.457 9  -5967511.71648  19709698.089    19709698.9314   19709704.6904
       918.571         715.770
 -11981888.284 9  -9319117.67546  22896782.219    22896783.0934   22896789.4194
      4295.098        3346.830
 96 10  9 16 36 59.9970000  0  8 22 21 28 26  6 23 17  3            -0.002791465
  -5001635.492 9  -3883403.55246  22937691.725    22937692.2294   22937698.8334
      -295.418        -230.196
 -18817157.709 9 -14640671.02648  21601497.058    21601497.8294   21601504.5164
      3246.249        2529.545
 -16144276.730 9 -12558646.786 9  19795779.522    19795780.486    19795785.769
      2159.920        1683.055
  -4110150.312 9  -3189962.71747  21739820.233    21739821.6464   21739826.7614
      -738.990        -575.836
   3930137.376 9   3066689.39547  21157433.076    21157434.1764   21157440.9024
     -2057.648       -1603.362
 -11542497.368 9  -8718838.26348  19779844.254    19779845.1684   19779851.0764
      1268.799         988.675
  -7699154.287 9  -5988901.19648  19704474.536    19704475.4064   19704481.1544
       909.199         708.467
 -12110654.738 9  -9419455.14746  22872278.883    22872279.6564   22872285.9864
      4287.275        3340.734
 96 10  9 16 37 29.9970000  0  8 22 21 28 26  6 23 17  3            -0.002810201
  -4992572.404 9  -3876341.43546  22939416.401    22939416.8624   22939423.5224
      -309.522        -241.186
 -18914397.872 9 -14716442.56748  21582992.786    21582993.6494   21583000.2944
      3235.918        2521.495
 -16208787.591 9 -12608914.997 9  19783503.503    19783504.475    19783509.775
      2140.075        1667.591
  -4087709.527 9  -3172476.40447  21744090.680    21744092.0024   21744097.1244
      -757.738        -590.445
   3992065.968 9   3114945.39047  21169217.862    21169218.8934   21169225.5844
     -2071.472       -1614.134
 -11580366.527 9  -8748346.70448  19772637.977    19772638.8884   19772644.8054
      1255.048         977.959
  -7726280.960 9  -6010038.87448  19699312.555    19699313.4004   19699319.1194
       898.571         700.185
 -12239161.218 9  -9519590.04946  22847824.965    22847825.6354   22847832.0154
      4278.994        3334.281
 96 10  9 16 37 59.9970000  0  8 22 21 28 26  6 23 17  3            -0.002828881
  -4983046.612 9  -3868918.76946  22941229.008    22941229.5674   22941236.2274
      -326.561        -254.463
 -19011289.359 9 -14791942.40148  21564554.839    21564555.8074   21564562.4404
      3222.524        2511.058
 -16272655.901 9 -12658682.517 9  19771349.733    19771350.725    19771356.044
      2116.877        1649.514
  -4064656.348 9  -3154512.88847  21748477.579    21748478.8644   21748484.0154
      -780.199        -607.947
   4054451.394 9   3163557.37647  21181089.137    21181090.5094   21181097.1954
     -2088.473       -1627.382
 -11617778.216 9  -8777498.66948  19765518.740    19765519.6614   19765525.6104
      1238.111         964.762
  -7753041.197 9  -6030891.01848  19694220.319    19694221.0944   19694226.8224
       884.641         689.331
 -12367366.690 9  -9619490.40046  22823427.966    22823428.9234   22823435.2494
      4267.086        3325.002
 96 10  9 16 38 29.9970000  0  8 22 21 28 26  6 23 17  3            -0.002847509
  -4973078.449 9  -3861151.39946  22943125.949    22943126.5244   22943133.1594
      -339.037        -264.185
 -19107852.639 9 -14867186.49548  21546179.434    21546180.4164   21546187.0564
      3214.178        2504.554
 -16335904.373 9 -12707967.046 9  19759313.950    19759314.952    19759320.275
      2098.775        1635.409
  -4040996.232 9  -3136076.45347  21752979.937    21752981.2324   21752986.4124
      -797.928        -621.762
   4117271.723 9   3212508.24247  21193043.424    21193044.8534   21193051.5494
     -2100.471       -1636.731
 -11654754.045 9  -8806311.00248  19758482.410    19758483.3894   19758489.3044
      1225.972         955.303
  -7779467.496 9  -6051482.94248  19689191.520    19689192.3484   19689198.0694
       876.155         682.718
 -12495295.375 9  -9719175.07146  22799083.952    22799084.8614   22799091.1914
      4260.734        3320.052
 96 10  9 16 38 59.9970000  0  8 22 21 28 26  6 23 17  3            -0.002866133
  -4962721.225 9  -3853080.85746  22945096.814    22945097.4484   22945104.1194
      -351.955        -274.251
 -19204162.394 9 -14942233.03748  21527852.295    21527853.2264   21527859.8954
      3206.094        2498.255
 -16398602.532 9 -12756822.759 9  19747382.827    19747383.893    19747389.223
      2080.584        1621.234
  -4016800.344 9  -3117222.52747  21757584.174    21757585.5434   21757590.7094
      -815.607        -635.538
   4180459.328 9   3261745.28047  21205067.815    21205069.0614   21205075.7714
     -2112.497       -1646.101
 -11691352.350 9  -8834829.16048  19751517.971    19751518.9744   19751524.8874
      1213.319         945.443
  -7805623.983 9  -6071864.63248  19684214.072    19684214.9464   19684220.6834
       867.225         675.760
 -12623029.407 9  -9818708.07146  22774776.669    22774777.9124   22774784.1334
      4254.196        3314.958
 96 10  9 16 39 29.9970000  0  8 22 21 28 26  6 23 17  3            -0.002884736
  -4951953.746 9  -3844690.64446  22947145.878    22947146.4114   22947153.0714
      -365.783        -285.026
 -19300213.553 9 -15017078.07348  21509574.371    21509575.2924   21509581.9434
      3197.151        2491.286
 -16460729.947 9 -12805233.734 9  19735560.404    19735561.449    19735566.773
      2061.279        1606.191
  -3992045.640 9  -3097933.15847  21762294.809    21762296.2404   21762301.3974
      -834.604        -650.341
   4244025.812 9   3311277.56947  21217164.123    21217165.3924   21217172.1144
     -2125.128       -1655.944
 -11727538.924 9  -8863026.48248  19744631.872    19744632.8484   19744638.7854
      1199.067         934.338
  -7831492.480 9  -6092021.91148  19679291.419    19679292.3434   19679298.0724
       857.510         668.190
 -12750523.663 9  -9918054.23746  22750515.338    22750516.4724   22750522.6784
      4245.360        3308.073
 96 10  9 16 39 59.9970000  0  8 22 21 28 26  6 23 17  3            -0.002903350
  -4940826.224 9  -3836019.88046  22949263.272    22949263.8864   22949270.5024
      -377.362        -294.048
 -19396035.905 9 -15091744.82148  21491339.947    21491340.9134   21491347.5234
      3189.538        2485.354
 -16522332.477 9 -12853235.705 9  19723837.862    19723838.879    19723844.201
      2044.236        1592.911
  -3966780.622 9  -3078246.14647  21767102.593    21767104.0604   21767109.1934
      -850.960        -663.086
   4307913.505 9   3361060.13747  21229321.792    21229322.8824   21229329.5804
     -2135.376       -1663.929
 -11763350.114 9  -8890931.30648  19737817.286    19737818.2024   19737824.1384
      1187.025         924.955
  -7857126.142 9  -6111996.19248  19674413.504    19674414.4284   19674420.1314
       850.003         662.340
 -12877800.471 9 -10017230.95146  22726295.257    22726296.4904   22726302.7044
      4238.542        3302.760
 96 10  9 16 40 29.9970000  0  8 22 21 28 26  6 23 17  3            -0.002921943
  -4929275.276 9  -3827019.16146  22951461.543    22951461.9714   22951468.5584
      -392.269        -305.664
 -19491549.415 9 -15166170.90948  21473164.438    21473165.3014   21473171.8874
      3178.505        2476.757
 -16583343.814 9 -12900777.013 9  19712227.778    19712228.806    19712234.123
      2023.603        1576.834
  -3940958.649 9  -3058125.13647  21772016.425    21772017.8214   21772022.9714
      -869.869        -677.820
   4372181.829 9   3411139.30947  21241551.562    21241552.7794   21241559.4844
     -2148.655       -1674.277
 -11798713.808 9  -8918487.42648  19731087.825    19731088.7044   19731094.6474
      1171.076         912.527
  -7882448.548 9  -6131727.93848  19669594.886    19669595.7284   19669601.4754
       838.606         653.459
 -13004792.837 9 -10116186.02646  22702129.284    22702130.6144   22702136.8404
      4228.112        3294.633
 96 10  9 16 40 59.9970000  0  8 22 21 28 26  6 23 17  3            -0.002940532
  -4917320.696 9  -3817703.93346  22953736.570    22953736.9364   22953743.4674
      -405.467        -315.948
 -19586771.702 9 -15240370.07348  21455044.289    21455045.0854   21455051.6974
      3168.858        2469.240
 -16643774.273 9 -12947865.689 9  19700728.193    19700729.288    19700734.600
      2004.238        1561.744
  -3914614.062 9  -3037596.89947  21777029.712    21777031.0334   21777036.2184
      -887.343        -691.436
   4436803.957 9   3461494.17547  21253848.792    21253850.0084   21253856.7204
     -2160.371       -1683.406
 -11833643.926 9  -8945705.70148  19724440.782    19724441.7164   19724447.6544
      1156.970         901.535
  -7907468.807 9  -6151224.25548  19664833.735    19664834.5434   19664840.2914
       828.787         645.808
 -13131503.909 9 -10214921.92746  22678017.163    22678018.2584   22678024.4634
      4218.240        3286.940
 96 10  9 16 41 29.9970000  0  8 22 21 28 26  6 23 17  3            -0.002959123
  -4904997.699 9  -3808101.62446  22956081.548    22956081.9104   22956088.5174
      -418.580        -326.166
 -19681731.410 9 -15314364.62848  21436974.012    21436974.8314   21436981.4754
      3159.356        2461.836
 -16703651.042 9 -12994522.916 9  19689334.066    19689335.129    19689340.432
      1985.071        1546.809
  -3887771.495 9  -3016680.62447  21782137.675    21782138.9964   21782144.1524
      -904.597        -704.881
   4501748.271 9   3512100.09047  21266207.462    21266208.5304   21266215.2854
     -2171.660       -1692.203
 -11868185.375 9  -8972621.11548  19717867.682    19717868.6934   19717874.6464
      1143.474         891.019
  -7932227.189 9  -6170516.51148  19660122.372    19660123.1594   19660128.9344
       819.277         638.398
 -13257936.708 9 -10313440.96546  22653957.643    22653958.8904   22653965.0354
      4208.257        3279.161
 96 10  9 16 41 59.9970000  0  8 22 21 28 26  6 23 17  3            -0.002977707
  -4892283.861 9  -3798194.76046  22958500.875    22958501.3154   22958507.8584
      -429.694        -334.826
 -19776409.181 9 -15388139.49348  21418957.338    21418958.2394   21418964.8984
      3151.903        2456.028
 -16762959.581 9 -13040737.368 9  19678048.052    19678049.089    19678054.385
      1968.065        1533.557
  -3860419.538 9  -2995367.42347  21787342.568    21787343.9384   21787349.0874
      -919.597        -716.569
   4567021.448 9   3562962.26047  21278628.572    21278629.6294   21278636.4334
     -2180.749       -1699.285
 -11902340.749 9  -8999235.69748  19711368.100    19711369.1344   19711375.0704
      1132.974         882.837
  -7956700.865 9  -6189586.92048  19655465.163    19655465.9994   19655471.7534
       811.578         632.398
 -13384092.579 9 -10411744.22846  22629951.022    22629952.2824   22629958.4164
      4201.444        3273.852
 96 10  9 16 42 29.9970000  0  8 22 21 28 26  6 23 17  3            -0.002996290
  -4879201.065 9  -3788000.41346  22960990.400    22960990.8934   22960997.4894
      -442.768        -345.014
 -19870829.247 9 -15461713.54648  21400989.779    21400990.7344   21400997.3724
      3142.513        2448.711
 -16821717.779 9 -13086522.982 9  19666866.729    19666867.773    19666873.088
      1948.924        1518.642
  -3832576.371 9  -2973671.46347  21792640.941    21792642.3194   21792647.4864
      -936.956        -730.096
   4632609.758 9   3614069.98747  21291109.535    21291110.7194   21291117.5164
     -2191.979       -1708.036
 -11936150.166 9  -9025580.69648  19704934.380    19704935.4314   19704941.3634
      1120.806         873.355
  -7980912.300 9  -6208452.97448  19650857.896    19650858.7094   19650864.4854
       802.417         625.260
 -13510007.608 9 -10509859.82046  22605990.101    22605991.4474   22605997.5834
      4192.828        3267.139
 96 10  9 16 42 59.9970000  0  8 22 21 28 26  6 23 17  3            -0.003014861
  -4865744.308 9  -3777514.65147  22963551.045    22963551.6684   22963558.2844
      -454.874        -354.447
 -19964980.981 9 -15535078.51748  21383073.454    21383074.2824   21383080.8944
      3133.694        2441.839
 -16879923.143 9 -13131877.818 9  19655790.576    19655791.671    19655796.970
      1930.773        1504.498
  -3804219.569 9  -2951575.27147  21798037.085    21798038.4464   21798043.6074
      -954.053        -743.418
   4698513.664 9   3665423.63847  21303650.512    21303651.8584   21303658.6494
     -2202.258       -1716.045
 -11969623.851 9  -9051664.08948  19698564.518    19698565.5974   19698571.5374
      1110.189         865.082
  -8004879.222 9  -6227128.50748  19646297.120    19646297.9584   19646303.7454
       794.687         619.237
 -13635695.158 9 -10607798.15946  22582072.599    22582073.8174   22582080.0054
      4185.712        3261.594
 96 10  9 16 43 29.9960000  0  8 22 21 28 26  6 23 17  3            -0.003033399
  -4851881.069 9  -3766712.16047  22966189.205    22966189.8314   22966196.4374
      -468.027        -364.696
 -20058823.000 9 -15608202.14748  21365215.923    21365216.7084   21365223.3374
      3123.875        2434.188
 -16937534.953 9 -13176770.144 9  19644827.445    19644828.519    19644833.815
      1911.343        1489.358
  -3775308.731 9  -2929047.35147  21803538.516    21803539.9844   21803545.1674
      -972.005        -757.406
   4764763.488 9   3717046.82547  21316257.363    21316258.7864   21316265.5774
     -2213.319       -1724.664
 -12002732.810 9  -9077463.28048  19692264.042    19692265.1644   19692271.1344
      1098.272         855.796
  -8028562.249 9  -6245582.82448  19641790.422    19641791.2744   19641797.0454
       785.336         611.950
 -13761129.143 9 -10705538.91446  22558203.166    22558204.4984   22558210.6974
      4178.143        3255.696
 96 10  9 16 43 59.9960000  0  9 22 21  1 28 26  6 23 17  3         -0.003051926
  -4837637.213 9  -3755613.06947  22968899.867    22968900.3374   22968907.0094
      -481.158        -374.928
 -20152373.564 9 -15681098.67048  21347413.662    21347414.6054   21347421.2144
      3113.234        2425.897
   -426194.13818   -313044.48954  24144375.385           0.0005          0.0005
      4657.374        3629.123
 -16994564.351 9 -13221208.639 9  19633975.127    19633976.207    19633981.483
      1890.864        1473.400
  -3745862.478 9  -2906102.23947  21809142.059    21809143.4134   21809148.6194
      -990.669        -771.950
   4831350.521 9   3768932.77547  21328928.548    21328929.9204   21328936.6914
     -2225.594       -1734.229
 -12035479.437 9  -9102980.12948  19686032.683    19686033.7234   19686039.6754
      1085.116         845.545
  -8051965.103 9  -6263818.81748  19637336.956    19637337.8934   19637343.6664
       775.251         604.092
 -13886344.091 9 -10803108.99246  22534375.578    22534376.9084   22534383.0104
      4169.533        3248.987
 96 10  9 16 44 29.9960000  0  9 22 21  1 28 26  6 23 17  3         -0.003070449
  -4823040.366 9  -3744238.93347  22971677.534    22971678.0724   22971684.7614
      -491.986        -383.366
 -20245648.815 9 -15753780.67048  21329663.926    21329664.9084   21329671.4574
      3105.165        2419.609
   -565942.986 8    -88071.05652  24117781.110           0.0005          0.0005
      4659.236        3630.573
 -17051016.635 9 -13265197.438 9  19623232.624    19623233.703    19623238.985
      1872.623        1459.187
  -3715895.361 9  -2882751.25747  21814844.658    21814846.0064   21814851.1794
     -1007.093        -784.748
   4898267.002 9   3821075.44247  21341662.488    21341663.7084   21341670.5034
     -2235.422       -1741.887
 -12067867.055 9  -9128217.23448  19679869.533    19679870.5784   19679876.5194
      1073.968         836.858
  -8075111.221 9  -6281854.76248  19632932.374    19632933.3364   19632939.1054
       767.758         598.253
 -14011324.770 9 -10900496.53647  22510592.534    22510593.8764   22510600.0064
      4162.453        3243.470
 96 10  9 16 44 59.9960000  0  9 22 21  1 28 26  6 23 17  3         -0.003088966
  -4808088.993 9  -3732588.54847  22974522.743    22974523.2244   22974530.0034
      -504.447        -393.076
 -20338659.563 9 -15826256.55748  21311964.536    21311965.5594   21311972.1004
      3095.864        2412.361
   -705718.846 9   -196987.40555  24091182.891           0.0004          0.0005
      4659.528        3630.801
 -17106890.402 9 -13308735.445 9  19612600.197    19612601.299    19612606.563
      1852.558        1443.552
  -3685410.382 9  -2858996.74147  21820645.903    21820647.1394   21820652.2934
     -1024.824        -798.564
   4965503.658 9   3873467.59247  21354457.219    21354458.4654   21354465.2494
     -2246.840       -1750.784
 -12099890.477 9  -9153170.54548  19673775.636    19673776.7184   19673782.6564
      1061.208         826.915
  -8097996.632 9  -6299687.56348  19628577.426    19628578.3934   19628584.1554
       757.957         590.616
 -14136053.016 9 -10997687.36747  22486857.689    22486858.8394   22486864.9534
      4152.680        3235.855
 96 10  9 16 45 29.9960000  0  9 22 21  1 28 26  6 23 17  3         -0.003107464
  -4792774.014 9  -3720654.83447  22977437.243    22977437.5964   22977444.3684
      -515.809        -401.929
 -20431407.179 9 -15898527.40348  21294315.251    21294316.2534   21294322.8204
      3088.061        2406.281
   -845513.947 9   -305918.60855  24064581.011           0.0005   24064590.1325
      4661.037        3631.977
 -17162170.324 9 -13351810.716 9  19602080.846    19602081.917    19602087.136
      1833.652        1428.820
  -3654408.544 9  -2834839.48347  21826545.429    21826546.5964   21826551.7454
     -1041.088        -811.237
   5033080.066 9   3926124.48347  21367316.579    21367317.8614   21367324.6644
     -2257.568       -1759.144
 -12131536.271 9  -9177829.60648  19667753.675    19667754.6914   19667760.6834
      1049.357         817.681
  -8120585.531 9  -6317289.31548  19624278.919    19624279.8644   19624285.6154
       748.896         583.555
 -14260482.069 9 -11094645.05647  22463179.667    22463180.7934   22463186.8534
      4143.422        3228.640
 96 10  9 16 45 59.9960000  0  9 22 21  1 28 26  6 23 17  3         -0.003125932
  -4777091.387 9  -3708434.62947  22980421.549    22980421.9064   22980428.7074
      -530.299        -413.220
 -20523893.459 9 -15970594.61248  21276715.699    21276716.7094   21276723.2704
      3077.116        2397.753
   -985335.208 8   -414870.19345  24037973.513    24037973.7725   24037983.5774
      4659.974        3631.149
 -17216860.267 9 -13394426.263 9  19591673.735    19591674.769    19591679.994
      1811.840        1411.823
  -3622895.400 9  -2810283.80347  21832542.058    21832543.3444   21832548.4664
     -1060.326        -826.228
   5101011.190 9   3979057.78047  21380243.546    21380244.7994   21380251.5834
     -2271.675       -1770.136
 -12162807.490 9  -9202196.78948  19661802.870    19661803.9604   19661809.9614
      1035.004         806.497
  -8142881.846 9  -6334663.07148  19620036.033    19620037.0044   19620042.7764
       737.101         574.364
 -14384598.629 9 -11191359.25847  22439561.206    22439562.2374   22439568.2724
      4130.567        3218.624
 96 10  9 16 46 29.9960000  0  9 22 21  1 28 26  6 23 17  3         -0.003144362
  -4761034.653 9  -3695922.92247  22983476.893    22983477.4324   22983484.2524
      -541.119        -421.651
 -20616108.406 9 -16042450.39648  21259167.726    21259168.7494   21259175.3574
      3069.549        2391.856
  -1125191.452 8   -523849.03655  24011359.818    24011360.0084   24011369.2395
      4662.788        3633.341
 -17270960.997 9 -13436582.685 9  19581378.724    19581379.761    19581384.972
      1793.963        1397.893
  -3590867.146 9  -2785326.74247  21838636.882    21838638.1534   21838643.2784
     -1075.809        -838.293
   5169298.823 9   4032268.86847  21393238.453    21393239.5824   21393246.3694
     -2281.656       -1777.914
 -12193711.739 9  -9226278.02348  19655922.033    19655923.0694   19655929.0724
      1024.317         798.169
  -8164888.822 9  -6351811.37648  19615848.232    19615849.2334   19615855.0084
       729.018         568.066
 -14508399.278 9 -11287827.27747  22416002.619    22416003.7584   22416009.8334
      4121.999        3211.947
 96 10  9 16 46 59.9960000  0  9 22 21  1 28 26  6 23 17  3         -0.003162786
  -4744645.074 9  -3683151.85447  22986595.915    22986596.3174   22986603.1214
      -552.193        -430.280
 -20708082.431 9 -16114118.44648  21241665.637    21241666.6414   21241673.2574
      3061.156        2385.316
  -1265126.440 8   -632889.23046  23984731.042    23984732.0395   23984740.7344
      4665.425        3635.396
 -17324518.020 9 -13478315.434 9  19571187.130    19571188.201    19571193.418
      1775.780        1383.725
  -3558370.408 9  -2760004.62847  21844820.740    21844822.1054   21844827.2344
     -1091.281        -850.349
   5237893.700 9   4085719.37047  21406291.625    21406292.8324   21406299.6104
     -2292.105       -1786.056
 -12224286.244 9  -9250102.31048  19650103.875    19650104.9394   19650110.9324
      1013.279         789.568
  -8186640.805 9  -6368760.98248  19611708.971    19611710.0044   19611715.7504
       720.336         561.301
 -14631937.229 9 -11384090.60347  22392494.186    22392495.2704   22392501.3744
      4113.135        3205.040
 96 10  9 16 47 29.9960000  0  9 22 21  1 28 26  6 23 17  3         -0.003181189
  -4727893.180 9  -3670098.46447  22989783.582    22989784.0794   22989790.9854
      -564.154        -439.601
 -20799766.119 9 -16185560.26948  21224218.759    21224219.8204   21224226.4194
      3051.645        2377.905
  -1405109.278 8   -741966.73946  23958093.101    23958093.9754   23958102.8704
      4667.291        3636.850
 -17377499.679 9 -13519599.857 9  19561105.017    19561106.145    19561111.369
      1756.847        1368.972
  -3525382.365 9  -2734299.68647  21851098.039    21851099.5924   21851104.7284
     -1107.373        -862.888
   5306833.880 9   4139438.93347  21419410.410    21419411.7694   21419418.6004
     -2303.216       -1794.714
 -12254495.466 9  -9273641.96848  19644355.320    19644356.3204   19644362.2844
      1001.233         780.182
  -8208103.737 9  -6385485.35748  19607624.749    19607625.7464   19607631.4884
       711.230         554.205
 -14755189.807 9 -11480131.56847  22369040.270    22369041.1134   22369047.1814
      4104.374        3198.214
 96 10  9 16 47 59.9960000  0  9 22 21  1 28 26  6 23 17  3         -0.003199577
  -4710769.306 9  -3656755.21447  22993042.023    22993042.5974   22993049.5734
      -574.341        -447.538
 -20891145.829 9 -16256765.22248  21206829.795    21206830.8224   21206837.4074
      3043.416        2371.493
  -1545137.967 8   -851079.94946  23931445.974    23931447.3804   23931456.2834
      4670.946        3639.698
 -17429897.013 9 -13560428.958 9  19551134.181    19551135.270    19551140.494
      1739.280        1355.283
  -3491899.718 9  -2708209.33447  21857469.399    21857471.1234   21857476.2584
     -1121.827        -874.151
   5376109.421 9   4193419.81147  21432593.196    21432594.5354   21432601.3644
     -2311.964       -1801.530
 -12284330.465 9  -9296890.02148  19638677.840    19638678.9064   19638684.8754
       990.725         771.994
  -8229278.259 9  -6401984.99648  19603595.383    19603596.3804   19603602.1254
       703.355         548.069
 -14878165.597 9 -11575956.84447  22345638.772    22345639.5424   22345645.6724
      4097.080        3192.530
 96 10  9 16 48 29.9960000  0  9 22 21  1 28 26  6 23 17  3         -0.003217970
  -4693293.584 9  -3643137.80047  22996367.746    22996368.1954   22996375.0764
      -588.505        -458.575
 -20982230.558 9 -16327740.31548  21189496.925    21189497.9414   21189504.5364
      3031.330        2362.075
  -1685212.309 8   -960228.73145  23904790.251    23904792.0764   23904801.0914
      4669.713        3638.737
 -17481716.034 9 -13600807.422 9  19541273.307    19541274.440    19541279.684
      1717.623        1338.408
  -3457938.459 9  -2681746.03847  21863931.928    21863933.7144   21863938.8934
     -1139.908        -888.240
   5445690.484 9   4247638.77747  21445834.208    21445835.4574   21445842.2654
     -2324.346       -1811.179
 -12313792.316 9  -9319847.30648  19633071.459    19633072.5204   19633078.5014
       975.792         760.357
  -8250165.132 9  -6418260.49248  19599620.783    19599621.7524   19599627.5294
       691.439         538.784
 -15000879.965 9 -11671578.41447  22322286.781    22322287.7834   22322293.8994
      4086.082        3183.960
 96 10  9 16 48 59.9960000  0  9 22 21  1 28 26  6 23 17  3         -0.003236368
  -4675449.384 9  -3629233.25747  22999763.476    22999763.8534   22999770.7564
      -602.141        -469.201
 -21073024.790 9 -16398489.05548  21172219.303    21172220.3804   21172226.9404
      3020.515        2353.648
  -1825307.577 8  -1069393.83246  23878131.360    23878132.8534   23878141.8034
      4668.933        3638.130
 -17532951.835 9 -13640731.433 9  19531523.468    19531524.594    19531529.829
      1696.922        1322.277
  -3423505.539 9  -2654915.21047  21870484.406    21870486.1144   21870491.3124
     -1156.681        -901.310
   5515571.170 9   4302091.19647  21459132.000    21459133.3244   21459140.1314
     -2335.588       -1819.939
 -12342879.669 9  -9342512.78148  19627536.369    19627537.3794   19627543.3754
       962.304         749.847
  -8270762.478 9  -6434310.38548  19595701.224    19595702.2254   19595707.9934
       680.535         530.287
 -15123326.050 9 -11766990.93147  22298986.009    22298987.0304   22298993.2124
      4075.840        3175.979
 96 10  9 16 49 29.9960000  0  9 22 21  1 28 26  6 23 17  3         -0.003254764
  -4657227.578 9  -3615034.47747  23003230.927    23003231.3684   23003238.3184
      -613.528        -478.074
 -21163529.082 9 -16469011.86048  21154996.906    21154998.0024   21155004.5314
      3012.409        2347.332
  -1965400.063 8  -1178556.75845  23851472.744    23851474.1024   23851482.9754
      4670.025        3638.981
 -17583592.714 9 -13680191.863 9  19521886.780    19521887.956    19521893.192
      1678.295        1307.762
  -3388600.958 9  -2627716.85747  21877126.601    21877128.2624   21877133.4154
     -1171.223        -912.641
   5585756.500 9   4356781.00947  21472487.783    21472489.1574   21472496.0154
     -2344.227       -1826.670
 -12371591.853 9  -9364885.91448  19622072.618    19622073.6134   19622079.6434
       951.068         741.092
  -8291060.552 9  -6450127.07148  19591838.715    19591839.6454   19591845.4204
       672.000         523.636
 -15245497.840 9 -11862189.71647  22275737.402    22275738.4644   22275744.7024
      4068.065        3169.921
 96 10  9 16 49 59.9960000  0  9 22 21  1 28 26  6 23 17  3         -0.003273151
  -4638621.703 9  -3600536.42947  23006771.495    23006772.0024   23006779.0004
      -624.711        -486.788
 -21253743.315 9 -16539308.64748  21137829.703    21137830.7884   21137837.3274
      3004.012        2340.789
  -2105469.868 8  -1287701.97045  23824818.596    23824819.6614   23824828.5274
      4670.272        3639.173
 -17633625.038 9 -13719178.098 9  19512365.918    19512367.136    19512372.371
      1659.261        1292.931
  -3353207.795 9  -2600137.79147  21883861.794    21883863.3684   21883868.5134
     -1186.325        -924.409
   5656250.854 9   4411711.61647  21485902.471    21485903.7984   21485910.6964
     -2353.378       -1833.801
 -12399924.223 9  -9386963.07748  19616681.148    19616682.1584   19616688.1924
       939.831         732.336
  -8311054.849 9  -6465707.05448  19588033.885    19588034.8674   19588040.6474
       663.111         516.710
 -15367382.538 9 -11957164.79247  22252543.297    22252544.5344   22252550.8074
      4059.750        3163.442
 96 10  9 16 50 29.9960000  0  9 22 21  1 28 26  6 23 17  3         -0.003291542
  -4619668.020 9  -3585767.36147  23010378.246    23010378.8304   23010385.8174
      -638.981        -497.907
 -21343700.346 9 -16609405.02148  21120711.445    21120712.5354   21120719.0194
      2993.012        2332.217
  -2245527.943 8  -1396838.07645  23798166.615    23798167.4624   23798176.3564
      4666.970        3636.600
 -17683074.161 9 -13757709.889 9  19502956.132    19502957.292    19502962.539
      1637.249        1275.778
  -3317346.024 9  -2572193.57947  21890685.906    21890687.5924   21890692.7704
     -1204.527        -938.592
   5727032.645 9   4466866.20247  21499371.734    21499373.1654   21499380.0474
     -2365.371       -1843.146
 -12427909.295 9  -9408769.63048  19611355.763    19611356.7894   19611362.8134
       925.862         721.451
  -8330782.703 9  -6481079.42248  19584279.786    19584280.8004   19584286.5774
       651.946         508.010
 -15489009.966 9 -12051939.39947  22229398.550    22229399.6334   22229405.8994
      4048.552        3154.716
 96 10  9 16 50 59.9960000  0  9 22 21  1 28 26  6 23 17  3         -0.003309893
  -4600315.316 9  -3570687.36047  23014060.982    23014061.5534   23014068.5904
      -650.192        -506.643
 -21433346.697 9 -16679259.30648  21103652.288    21103653.4014   21103659.8704
      2984.057        2325.239
  -2385526.587 8  -1505927.86945  23771525.867    23771526.4644   23771535.5324
      4666.927        3636.566
 -17731885.659 9 -13795744.832 9  19493667.644    19493668.771    19493674.031
      1617.558        1260.435
  -3280956.176 9  -2543837.87047  21897610.657    21897612.3804   21897617.5654
     -1220.635        -951.144
   5798149.540 9   4522281.91247  21512904.900    21512906.3104   21512913.1734
     -2374.970       -1850.626
 -12455505.839 9  -9430273.43448  19606104.257    19606105.3354   19606111.3994
       914.617         712.689
  -8350195.184 9  -6496206.04248  19580585.831    19580586.7654   19580592.5184
       642.920         500.977
 -15610314.636 9 -12146462.51647  22206315.035    22206316.1094   22206322.3794
      4039.174        3147.408
 96 10  9 16 51 29.9960000  0  9 22 21  1 28 26  6 23 17  3         -0.003328237
  -4580636.776 9  -3555353.46847  23017805.641    23017806.2544   23017813.3504
      -660.517        -514.688
 -21522718.775 9 -16748899.87248  21086645.300    21086646.4004   21086652.9084
      2975.282        2318.401
  -2525527.593 8  -1615019.51845  23744885.104    23744885.2104   23744894.1114
      4667.498        3637.011
 -17780102.740 9 -13833316.592 9  19484492.169    19484493.392    19484498.627
      1598.119        1245.288
  -3244081.554 9  -2515104.42647  21904627.719    21904629.4074   21904634.6224
     -1236.487        -963.496
   5869551.852 9   4577920.03047  21526492.383    21526493.7814   21526500.6854
     -2383.944       -1857.619
 -12482767.208 9  -9451516.06248  19600916.498    19600917.6634   19600923.7014
       904.020         704.431
  -8369338.167 9  -6511122.66648  19576943.106    19576943.9924   19576949.7554
       634.582         494.479
 -15731332.732 9 -12240762.31947  22183286.080    22183287.1514   22183293.4044
      4029.857        3140.148
 96 10  9 16 51 59.9960000  0  9 22 21  1 28 26  6 23 17  3         -0.003346586
  -4560666.261 9  -3539792.05947  23021605.954    23021606.5184   23021613.6254
      -670.871        -522.757
 -21611838.286 9 -16818343.62648  21069686.453    21069687.5374   21069694.0164
      2965.945        2311.126
  -2665561.818 8  -1724137.04846  23718237.424    23718237.7384   23718246.4824
      4668.069        3637.456
 -17827748.881 9 -13870443.461 9  19475425.377    19475426.643    19475431.880
      1578.294        1229.839
  -3206744.603 9  -2486010.71847  21911732.708    21911734.4344   21911739.6724
     -1252.549        -976.012
   5941210.405 9   4633757.81247  21540128.496    21540130.0304   21540136.9084
     -2393.355       -1864.952
 -12509722.532 9  -9472520.21048  19595787.059    19595788.2184   19595794.2704
       892.954         695.808
  -8388245.239 9  -6525855.46248  19573345.205    19573346.1024   19573351.8844
       625.782         487.622
 -15852076.933 9 -12334848.70747  22160309.301    22160310.3104   22160316.5514
      4019.678        3132.217
 96 10  9 16 52 29.9960000  0  9 22 21  1 28 26  6 23 17  3         -0.003364930
  -4540386.951 9  -3523990.03247  23025464.968    23025465.5444   23025472.6624
      -681.375        -530.942
 -21700676.660 9 -16887568.32148  21052781.079    21052782.1604   21052788.5924
      2956.170        2303.509
  -2805616.959 8  -1833270.89046  23691585.737    23691586.1964   23691594.9544
      4668.528        3637.814
 -17874805.847 9 -13907111.236 9  19466470.748    19466472.019    19466477.249
      1558.483        1214.402
  -3168935.177 9  -2456548.85647  21918927.694    21918929.3054   21918934.5464
     -1268.277        -988.268
   6013142.155 9   4689808.46947  21553816.538    21553818.2234   21553825.0854
     -2402.588       -1872.146
 -12536349.196 9  -9493268.26448  19590720.202    19590721.3364   19590727.4034
       881.814         687.128
  -8406893.067 9  -6540386.25248  19569796.614    19569797.5234   19569803.3324
       616.893         480.696
 -15972516.137 9 -12428697.41847  22137390.405    22137391.4714   22137397.7534
      4009.055        3123.939
 96 10  9 16 52 59.9960000  0  9 22 21  1 28 26  6 23 17  3         -0.003383260
  -4519794.590 9  -3507944.07447  23029383.653    23029384.1844   23029391.2704
      -689.873        -537.563
 -21789212.344 9 -16956557.15848  21035933.311    21035934.3724   21035940.7954
      2948.021        2297.159
  -2945682.544 8  -1942412.86845  23664932.342    23664932.5174   23664941.3174
      4670.832        3639.609
 -17921263.886 9 -13943312.316 9  19457630.071    19457631.361    19457636.585
      1540.425        1200.331
  -3130655.979 9  -2426720.93647  21926211.943    21926213.6224   21926218.8624
     -1281.900        -998.883
   6085362.884 9   4746084.30247  21567559.741    21567561.4234   21567568.3114
     -2410.552       -1878.352
 -12562636.488 9  -9513751.87548  19585717.934    19585719.0394   19585725.1294
       872.320         679.730
  -8425261.031 9  -6554698.96948  19566301.322    19566302.2594   19566308.0424
       609.324         474.798
 -16092627.493 9 -12522290.68647  22114533.951    22114535.0264   22114541.3054
      4000.136        3116.989
 96 10  9 16 53 29.9960000  0  9 22 21  1 28 26  6 23 17  3         -0.003401588
  -4498897.890 9  -3491660.95847  23033360.182    23033360.6964   23033367.8024
      -702.525        -547.422
 -21877472.378 9 -17025331.19148  21019137.975    21019139.0564   21019145.4584
      2936.970        2288.548
  -3085779.271 9  -2051579.11045  23638273.188    23638273.1034   23638281.7664
      4669.594        3638.645
 -17967143.767 9 -13979062.877 9  19448899.386    19448900.695    19448905.937
      1519.019        1183.651
  -3091930.618 9  -2396545.35347  21933581.022    21933582.8124   21933588.0184
     -1299.089       -1012.277
   6157863.189 9   4802577.99247  21581355.990    21581357.7964   21581364.7554
     -2422.057       -1887.317
 -12588596.850 9  -9533980.72648  19580777.833    19580778.9494   19580785.0474
       859.103         669.431
  -8443365.486 9  -6568806.34448  19562856.146    19562857.1254   19562862.9094
       598.374         466.265
 -16212438.457 9 -12615649.86347  22091734.634    22091735.7564   22091742.0254
      3988.059        3107.578
 96 10  9 16 53 59.9960000  0  9 22 21  1 28 26  6 23 17  3         -0.003419909
  -4477665.084 9  -3475115.96246  23037400.538    23037401.1664   23037408.2834
      -714.172        -556.498
 -21965453.826 9 -17093888.14848  21002395.740    21002396.7774   21002403.1374
      2927.221        2280.951
  -3225878.204 9  -2160747.07845  23611613.123    23611613.0614   23611621.7654
      4669.081        3638.245
 -18012423.271 9 -14014345.617 9  19440283.078    19440284.320    19440289.540
      1498.402        1167.586
  -3052725.055 9  -2365995.58847  21941041.736    21941043.3904   21941048.5534
     -1315.831       -1025.323
   6230676.840 9   4859315.84347  21595211.964    21595213.7894   21595220.8264
     -2433.384       -1896.143
 -12614202.691 9  -9553933.33648  19575905.229    19575906.3314   19575912.4024
       846.790         659.836
  -8461175.406 9  -6582684.21648  19559467.017    19559468.0174   19559473.8024
       587.634         457.897
 -16331932.607 9 -12708762.18347  22068995.630    22068996.7314   22069003.0264
      3976.934        3098.910
 96 10  9 16 54 29.9960000  0  9 22 21  1 28 26  6 23 17  3         -0.003438169
  -4456065.788 9  -3458285.36846  23041510.829    23041511.3754   23041518.5044
      -725.774        -565.538
 -22053129.157 9 -17162206.57448  20985711.597    20985712.7274   20985719.0734
      2917.834        2273.637
  -3365934.079 9  -2269881.50245  23584961.219    23584961.2694   23584969.7324
      4667.877        3637.307
 -18057065.099 9 -14049131.468 9  19431788.058    19431789.289    19431794.499
      1477.630        1151.400
  -3012999.185 9  -2335040.39647  21948601.351    21948602.9884   21948608.1594
     -1332.643       -1038.423
   6303847.790 9   4916332.11247  21609136.147    21609137.7724   21609144.9174
     -2444.644       -1904.917
 -12639421.004 9  -9573583.97548  19571106.371    19571107.4894   19571113.5354
       834.408         650.188
  -8478638.501 9  -6596291.83848  19556143.929    19556144.9304   19556150.7064
       576.528         449.243
 -16451078.509 9 -12801603.14247  22046322.898    22046324.0274   22046330.2744
      3965.981        3090.375
 96 10  9 16 54 59.9960000  0  9 22 21  1 28 26  6 23 17  3         -0.003456401
  -4434129.039 9  -3441191.82646  23045685.366    23045685.9084   23045692.9474
      -736.425        -573.838
 -22140540.210 9 -17230319.07348  20969077.882    20969078.9534   20969085.2904
      2909.813        2267.387
  -3505962.256 9  -2378994.32945  23558314.198    23558314.7364   23558323.1834
      4667.626        3637.111
 -18101091.256 9 -14083437.577 9  19423410.127    19423411.409    19423416.610
      1457.664        1135.842
  -2972773.053 9  -2303695.39147  21956256.186    21956257.8214   21956262.9604
     -1348.811       -1051.022
   6377340.412 9   4973599.02147  21623121.433    21623122.9834   21623130.1704
     -2454.504       -1912.601
 -12664274.281 9  -9592950.17048  19566376.944    19566378.0594   19566384.0934
       822.613         640.997
  -8495775.410 9  -6609645.29148  19552882.857    19552883.9064   19552889.6664
       566.186         441.184
 -16569902.660 9 -12894193.38547  22023711.255    22023712.5714   22023718.7964
      3955.977        3082.579
 96 10  9 16 55 29.9960000  0  9 22 21  1 28 26  6 23 17  3         -0.003474597
  -4411839.128 9  -3423823.09846  23049926.915    23049927.5324   23049934.6434
      -748.305        -583.095
 -22227674.337 9 -17298215.78248  20952496.821    20952497.8954   20952504.2254
      2900.168        2259.871
  -3645937.730 9  -2488066.09545  23531677.631    23531678.2624   23531686.7104
      4665.249        3635.259
 -18144479.863 9 -14117246.888 9  19415153.556    19415154.834    19415160.050
      1435.987        1118.951
  -2932022.482 9  -2271941.72347  21964010.663    21964012.4264   21964017.6124
     -1366.656       -1064.927
   6451157.032 9   5031118.40847  21637168.319    21637169.8464   21637177.0504
     -2465.459       -1921.137
 -12688736.324 9  -9612011.50548  19561721.956    19561723.0844   19561729.1204
       809.363         630.672
  -8512567.984 9  -6622730.42248  19549687.338    19549688.4104   19549694.1524
       554.565         432.129
 -16688387.935 9 -12986519.57147  22001164.280    22001165.6064   22001171.8044
      3944.071        3073.302
 96 10  9 16 55 59.9960000  0  9 22 21  1 28 26  6 23 17  3         -0.003492772
  -4389235.367 9  -3406209.81146  23054228.372    23054228.8924   23054236.0444
      -757.107        -589.954
 -22314540.348 9 -17365903.56848  20935966.688    20935967.8174   20935974.1744
      2892.241        2253.694
  -3785870.532 9  -2597104.62345  23505049.345    23505050.0014   23505058.4724
      4665.084        3635.130
 -18187244.850 9 -14150570.263 9  19407015.691    19407016.940    19407022.166
      1416.554        1103.808
  -2890778.657 9  -2239803.71147  21971859.290    21971860.9154   21971866.1244
     -1381.210       -1076.268
   6525270.604 9   5088869.17947  21651271.814    21651273.2694   21651280.4274
     -2473.694       -1927.554
 -12712830.071 9  -9630785.85748  19557137.107    19557138.1854   19557144.2474
       798.364         622.102
  -8529043.472 9  -6635568.48048  19546552.165    19546553.2384   19546558.9484
       545.414         424.998
 -16806540.210 9 -13078586.27647  21978680.629    21978682.0004   21978688.1614
      3934.139        3065.563
 96 10  9 16 56 29.9960000  0  9 22 21  1 28 26  6 23 17  3         -0.003510987
  -4366397.889 9  -3388414.41746  23058574.239    23058574.7024   23058581.8864
      -765.869        -596.781
 -22401193.032 9 -17433425.12348  20919477.161    20919478.3334   20919484.7154
      2884.116        2247.363
  -3925830.804 9  -2706164.53645  23478415.512    23478416.3284   23478424.7844
      4665.222        3635.238
 -18229460.670 9 -14183465.717 9  19398982.305    19398983.541    19398988.789
      1397.449        1088.921
  -2849147.479 9  -2207363.86747  21979781.426    21979783.0814   21979788.3714
     -1394.505       -1086.627
   6599579.410 9   5146772.08147  21665412.516    21665413.8094   21665421.0174
     -2480.605       -1932.939
 -12736620.229 9  -9649323.64648  19552609.997    19552611.0814   19552617.1714
       787.275         613.461
  -8545288.639 9  -6648227.06848  19543460.889    19543461.8864   19543467.6154
       537.276         418.657
 -16924418.453 9 -13170439.44447  21956249.171    21956250.5594   21956256.6374
      3923.988        3057.653
 96 10  9 16 56 59.9960000  0  9 22 21  1 28 26  6 23 17  3         -0.003529216
  -4343267.864 9  -3370391.05046  23062975.695    23062976.1904   23062983.3754
      -775.414        -604.219
 -22487560.530 9 -17500724.46248  20903041.981    20903043.1524   20903049.4954
      2874.460        2239.839
  -4065772.117 9  -2815209.68845  23451785.171    23451786.3544   23451794.8294
      4664.917        3635.000
 -18271075.251 9 -14215892.674 9  19391063.284    19391064.566    19391069.828
      1377.603        1073.457
  -2807097.337 9  -2174597.55847  21987783.236    21987784.9514   21987790.3124
     -1407.987       -1097.133
   6674122.853 9   5204857.81747  21679597.776    21679599.0274   21679606.2344
     -2488.259       -1938.903
 -12760049.906 9  -9667580.54448  19548151.490    19548152.5704   19548158.6614
       775.518         604.300
  -8561263.876 9  -6660675.32048  19540420.904    19540421.9394   19540427.6674
       528.497         411.816
 -17041963.233 9 -13262032.77047  21933881.168    21933882.4994   21933888.5434
      3913.100        3049.169
 96 10  9 16 57 29.9960000  0  9 22 21  1 28 26  6 23 17  3         -0.003547455
  -4319843.999 9  -3352138.72346  23067433.151    23067433.6264   23067440.7794
      -786.401        -612.780
 -22573626.984 9 -17567789.21648  20886664.133    20886665.2484   20886671.5924
      2863.135        2231.014
  -4205695.562 9  -2924240.87945  23425158.536    23425159.8164   23425168.2314
      4663.180        3633.647
 -18312086.062 9 -14247849.160 9  19383259.245    19383260.495    19383265.727
      1356.252        1056.820
  -2764638.620 9  -2141512.87347  21995862.762    21995864.5854   21995869.9834
     -1422.759       -1108.643
   6748908.400 9   5263132.19747  21693829.189    21693830.3034   21693837.4854
     -2497.657       -1946.226
 -12783127.638 9  -9685563.19548  19543759.909    19543761.0254   19543767.0874
       762.901         594.468
  -8576971.377 9  -6672914.94448  19537431.885    19537432.9414   19537438.6594
       518.478         404.009
 -17159167.245 9 -13353360.55847  21911578.001    21911579.3024   21911585.3554
      3900.364        3039.245
 96 10  9 16 57 59.9960000  0  9 22 21  1 28 26  6 23 17  3         -0.003565708
  -4296133.965 9  -3333663.39946  23071944.894    23071945.4924   23071952.6034
      -794.158        -618.824
 -22659399.643 9 -17634625.04348  20870342.157    20870343.2404   20870349.5794
      2855.216        2224.844
  -4345617.642 9  -3033271.04245  23398532.318    23398533.5124   23398541.9334
      4664.991        3635.058
 -18352502.501 9 -14279342.501 9  19375568.223    19375569.512    19375574.744
      1338.335        1042.858
  -2721780.393 9  -2108116.88847  22004018.548    22004020.2234   22004025.6994
     -1434.307       -1117.642
   6823934.457 9   5321594.00247  21708106.262    21708107.3714   21708114.5114
     -2503.852       -1951.053
 -12805870.084 9  -9703284.58848  19539432.148    19539433.2784   19539439.3384
       753.397         587.062
  -8592421.249 9  -6684953.81748  19534491.934    19534492.9384   19534498.6444
       511.564         398.621
 -17276041.681 9 -13444431.54347  21889337.552    21889338.8614   21889344.9084
      3891.420        3032.275
 96 10  9 16 58 29.9960000  0  9 22 21  1 28 26  6 23 17  3         -0.003583982
  -4272144.986 9  -3314970.72346  23076509.701    23076510.4744   23076517.6184
      -804.212        -626.659
 -22744898.578 9 -17701247.57648  20854072.267    20854073.3314   20854079.6614
      2845.677        2217.411
  -4485556.839 8  -3142314.50345  23371903.026    23371903.7994   23371912.2474
      4665.143        3635.176
 -18392339.596 9 -14310384.404 9  19367987.465    19367988.767    19367994.016
      1318.336        1027.275
  -2678524.292 9  -2074410.86747  22012249.874    22012251.5854   22012257.0954
     -1448.641       -1128.811
   6899190.276 9   5380234.83447  21722426.895    21722428.1714   21722435.2474
     -2512.397       -1957.712
 -12828287.907 9  -9720753.02748  19535166.196    19535167.3074   19535173.3494
       742.148         578.297
  -8607617.295 9  -6696794.90648  19531600.211    19531601.2324   19531606.9364
       502.358         391.448
 -17392608.210 9 -13535262.60747  21867155.698    21867156.9834   21867163.0014
      3880.767        3023.974
 96 10  9 16 58 59.9960000  0  9 22 21  1 28 26  6 23 17  3         -0.003602247
  -4247845.373 9  -3296035.98646  23081133.973    23081134.5994   23081141.6824
      -814.617        -634.766
 -22830105.738 9 -17767642.75548  20837857.829    20837858.9364   20837865.2804
      2835.933        2209.818
  -4625482.303 8  -3251347.25546  23345276.185    23345276.7004   23345285.3294
      4664.258        3634.487
 -18431559.878 9 -14340945.672 9  19360524.162    19360525.394    19360530.666
      1297.423        1010.979
  -2634811.198 9  -2040348.75247  22020568.057    22020569.8644   22020575.4444
     -1464.595       -1141.243
   6974722.576 9   5439091.11047  21736800.352    21736801.5864   21736808.5874
     -2521.997       -1965.192
 -12850359.732 9  -9737951.86048  19530966.081    19530967.1764   19530973.2174
       730.457         569.187
  -8622514.236 9  -6708402.92748  19528765.420    19528766.4314   19528772.1624
       491.941         383.331
 -17508851.095 9 -13625841.47447  21845035.455    21845036.7584   21845042.7224
      3869.775        3015.409
 96 10  9 16 59 29.9960000  0  9 22 21  1 28 26  6 23 17  3         -0.003620506
  -4223263.137 9  -3276881.04446  23085811.557    23085812.3294   23085819.4754
      -824.409        -642.397
 -22915052.045 9 -17833834.66648  20821693.048    20821694.1754   20821700.5514
      2826.887        2202.769
  -4765408.406 9  -3360380.53546  23318649.168    23318649.5144   23318658.3604
      4663.857        3634.174
 -18470182.269 9 -14371041.050 9  19353174.513    19353175.799    19353181.091
      1277.124         995.162
  -2590640.237 9  -2005929.85447  22028973.461    22028975.3704   22028980.9224
     -1480.397       -1153.556
   7050518.868 9   5498153.08647  21751223.793    21751225.2314   21751232.2284
     -2531.433       -1972.545
 -12872114.794 9  -9754903.85948  19526826.244    19526827.3434   19526833.3654
       719.601         560.728
  -8637132.856 9  -6719794.07048  19525983.648    19525984.6224   19525990.3404
       482.236         375.768
 -17624789.802 9 -13716183.31447  21822973.103    21822974.3524   21822980.3214
      3859.273        3007.226
 96 10  9 16 59 59.9960000  0  9 22 21  1 28 26  6 23 17  3         -0.003638749
  -4198381.933 9  -3257493.13346  23090546.462    23090547.1824   23090554.1694
      -834.122        -649.965
 -22999721.785 9 -17899811.07448  20805581.001    20805582.0564   20805588.4244
      2817.889        2195.758
  -4905313.851 8  -3469397.70046  23292025.886    23292026.4074   23292035.2884
      4663.240        3633.694
 -18508190.545 9 -14400657.904 9  19345941.723    19345943.080    19345948.378
      1256.885         979.391
  -2545993.969 9  -1971140.59447  22037469.402    22037471.2894   22037476.8514
     -1495.754       -1165.523
   7126609.043 9   5557444.06247  21765703.322    21765704.7814   21765711.7654
     -2541.028       -1980.022
 -12893531.275 9  -9771592.03448  19522750.840    19522751.9324   19522757.9684
       708.372         551.978
  -8651448.345 9  -6730949.00948  19523259.496    19523260.4974   19523266.2044
       472.209         367.955
 -17740413.915 9 -13806280.02947  21800970.640    21800971.8624   21800977.7544
      3848.934        2999.169
 96 10  9 17  0 29.9960000  0  9 22 21  1 28 26  6 23 17  3         -0.003656973
  -4173206.501 9  -3237875.95346  23095337.205    23095337.8924   23095344.9854
      -845.289        -658.667
 -23084114.416 9 -17965571.55648  20789521.649    20789522.6734   20789529.0254
      2807.214        2187.439
  -5045183.463 8  -3578386.94546  23265409.808    23265410.0944   23265418.9874
      4660.349        3631.441
 -18545583.799 9 -14429795.511 9  19338826.068    19338827.392    19338832.698
      1234.938         962.289
  -2500886.181 9  -1935991.69747  22046053.265    22046055.0154   22046060.5504
     -1512.302       -1178.417
   7202991.236 9   5616962.59347  21780238.497    21780239.8974   21780246.8794
     -2552.075       -1988.630
 -12914612.249 9  -9788018.77048  19518739.226    19518740.3434   19518746.4114
       695.983         542.324
  -8665455.033 9  -6741863.32648  19520594.108    19520595.1084   19520600.8194
       460.582         358.895
 -17855709.881 9 -13896121.03847  21779030.411    21779031.7734   21779037.6344
      3836.393        2989.397
 96 10  9 17  0 59.9960000  0  9 22 21  1 28 26  6 23 17  3         -0.003675172
  -4147733.278 9  -3218026.71746  23100184.478    23100185.3584   23100192.3814
      -854.405        -665.770
 -23168214.764 9 -18031104.28248  20773517.842    20773518.8944   20773525.2574
      2797.876        2180.163
  -5184986.426 8  -3687324.23246  23238805.793    23238806.4924   23238815.3024
      4658.311        3629.853
 -18582352.600 9 -14458446.534 9  19331829.169    19331830.513    19331835.824
      1214.785         946.586
  -2455325.337 9  -1900489.76947  22054723.206    22054724.9464   22054730.4934
     -1526.485       -1189.469
   7279673.654 9   5676715.05547  21794830.821    21794832.1574   21794839.1094
     -2561.573       -1996.031
 -12935357.593 9  -9804183.97848  19514791.486    19514792.6284   19514798.6824
       685.459         534.124
  -8679146.552 9  -6752532.06048  19517988.679    19517989.7064   19517995.4394
       450.714         351.206
 -17970659.897 9 -13985692.46547  21757156.153    21757157.5104   21757163.4014
      3825.164        2980.647
 96 10  9 17  1 29.9960000  0  9 22 21  1 28 26  6 23 17  3         -0.003693364
  -4121994.224 9  -3197970.35446  23105082.348    23105083.3344   23105090.3914
      -860.914        -670.842
 -23252041.182 9 -18096423.55948  20757566.102    20757567.2464   20757573.5854
      2791.209        2174.968
  -5324745.258 8  -3796227.17546  23212210.768    23212211.3374   23212220.0154
      4659.543        3630.813
 -18618531.565 9 -14486637.948 9  19324944.590    19324945.916    19324951.193
      1197.719         933.288
  -2409364.226 9  -1864675.95147  22063469.157    22063471.0974   22063476.6124
     -1536.920       -1197.600
   7356628.090 9   5736679.48047  21809474.617    21809476.1654   21809483.0884
     -2568.091       -2001.110
 -12955798.506 9  -9820111.97348  19510901.656    19510902.8654   19510908.9264
       677.856         528.199
  -8692556.354 9  -6762981.27648  19515436.844    19515437.9204   19515443.6584
       443.738         345.770
 -18085271.679 9 -14075000.34547  21735346.148    21735347.5854   21735353.5074
      3816.204        2973.665
 96 10  9 17  1 59.9960000  0  9 22 21  1 28 26  6 23 17  3         -0.003711558
  -4095995.395 9  -3177711.55346  23110030.006    23110030.8134   23110037.9134
      -870.786        -678.534
 -23335606.242 9 -18161539.18248  20741664.227    20741665.3424   20741671.6764
      2781.365        2167.297
  -5464470.870 8  -3905104.19746  23185621.371    23185622.3134   23185630.9724
      4657.185        3628.975
 -18654130.247 9 -14514377.192 9  19318170.398    19318171.727    19318176.999
      1177.081         917.206
  -2363031.632 9  -1828572.65947  22072286.211    22072287.9624   22072293.4284
     -1550.444       -1208.138
   7433831.416 9   5796837.84747  21824165.875    21824167.5084   21824174.4104
     -2577.040       -2008.083
 -12975945.405 9  -9835810.85948  19507067.857    19507069.0224   19507075.1394
       666.815         519.596
  -8705687.924 9  -6773213.68548  19512938.005    19512939.1014   19512944.8434
       433.394         337.710
 -18199541.931 9 -14164042.09447  21713601.227    21713602.6464   21713608.5514
      3803.176        2963.514
 96 10  9 17  2 29.9960000  0  9 22 21  1 28 26  6 23 17  3         -0.003729732
  -4069712.033 9  -3157231.03946  23115031.808    23115032.4404   23115039.4934
      -880.887        -686.405
 -23418888.563 9 -18226434.48548  20725816.096    20725817.2414   20725823.5574
      2771.428        2159.554
  -5604136.464 8  -4013934.44746  23159043.762    23159044.7654   23159053.4014
      4654.631        3626.985
 -18689117.910 9 -14541640.316 9  19311512.424    19311513.800    19311519.061
      1156.041         900.811
  -2316294.217 9  -1792153.91747  22081179.929    22081181.8264   22081187.2864
     -1564.777       -1219.307
   7511280.510 9   5857187.72447  21838904.049    21838905.5994   21838912.5114
     -2585.681       -2014.816
 -12995777.689 9  -9851264.59048  19503293.985    19503295.0824   19503301.1884
       655.898         511.089
  -8718525.262 9  -6783216.81748  19510495.189    19510496.2624   19510502.0114
       423.068         329.663
 -18313419.924 9 -14252778.19347  21691930.944    21691932.4184   21691938.2724
      3789.449        2952.817
 96 10  9 17  2 59.9960000  0  9 22 21  1 28 26  6 23 17  3         -0.003747883
  -4043135.541 9  -3136522.11746  23120089.296    23120089.9834   23120096.8544
      -888.598        -692.414
 -23501892.874 9 -18291113.15948  20710020.965    20710022.0404   20710028.3814
      2764.265        2153.973
  -5743749.957 9  -4122724.11746  23132476.124    23132477.1494   23132485.8114
      4655.259        3627.475
 -18723491.922 9 -14568425.273 9  19304971.246    19304972.637    19304977.891
      1137.730         886.543
  -2269138.448 9  -1755409.19147  22090153.620    22090155.3174   22090160.7474
     -1576.854       -1228.717
   7588976.671 9   5917730.11347  21853689.082    21853690.7164   21853697.6544
     -2591.764       -2019.556
 -13015295.911 9  -9866473.60148  19499579.757    19499580.8744   19499586.9874
       647.514         504.556
  -8731065.975 9  -6792988.81448  19508108.825    19508109.8544   19508115.5854
       415.149         323.493
 -18426909.008 9 -14341211.24847  21670334.892    21670336.1664   21670342.0324
      3778.564        2944.336
 96 10  9 17  3 29.9960000  0  9 22 21  1 28 26  6 23 17  3         -0.003766034
  -4016292.829 9  -3115605.74646  23125197.254    23125198.0234   23125204.8484
      -899.911        -701.229
 -23584649.559 9 -18355598.87348  20694272.921    20694273.9574   20694280.3284
      2753.820        2145.834
  -5883364.405 9  -4231514.52746  23105908.125    23105909.3574   23105918.0204
      4653.202        3625.872
 -18757285.848 9 -14594758.211 9  19298540.503    19298541.877    19298547.139
      1116.024         869.629
  -2221586.645 9  -1718355.86447  22099202.384    22099204.1914   22099209.5984
     -1592.448       -1240.869
   7666870.994 9   5978426.91246  21868511.579    21868513.5544   21868520.5174
     -2600.335       -2026.235
 -13034532.322 9  -9881463.01648  19495919.218    19495920.3204   19495926.4244
       635.836         495.457
  -8743343.677 9  -6802555.86948  19505772.441    19505773.4894   19505779.2264
       404.282         315.025
 -18540042.354 9 -14429367.08647  21648806.317    21648807.5784   21648813.4274
      3764.661        2933.502
 96 10  9 17  3 59.9960000  0  9 22 21  1 28 26  6 23 17  3         -0.003784172
  -3989160.632 9  -3094463.81046  23130360.529    23130361.1254   23130368.0374
      -909.546        -708.737
 -23667145.738 9 -18419881.60148  20678574.368    20678575.4364   20678581.8564
      2745.138        2139.069
  -6022952.815 9  -4340284.65646  23079345.769    23079346.5724   23079355.1214
      4651.936        3624.885
 -18790468.573 9 -14620614.889 9  19292226.077    19292227.428    19292232.678
      1095.514         853.647
  -2173602.150 9  -1680965.38147  22108333.672    22108335.3994   22108340.7064
     -1607.168       -1252.339
   7744977.062 9   6039288.70747  21883375.038    21883376.6324   21883383.6624
     -2607.318       -2031.676
 -13053456.599 9  -9896209.20948  19492318.076    19492319.1664   19492325.2754
       624.952         486.976
  -8755341.720 9  -6811905.00948  19503489.296    19503490.3424   19503496.0614
       394.920         307.730
 -18652810.453 9 -14517238.32747  21627347.188    21627348.4414   21627354.3694
      3752.616        2924.116
 96 10  9 17  4 29.9960000  0  9 22 21  1 28 26  6 23 17  3         -0.003802312
  -3961758.229 9  -3073111.30546  23135574.833    23135575.5824   23135582.4934
      -917.401        -714.858
 -23749392.736 9 -18483970.15948  20662923.267    20662924.3324   20662930.7784
      2737.831        2133.375
  -6162511.113 9  -4449031.30446  23052788.846    23052789.4754   23052798.0824
      4651.733        3624.727
 -18823053.262 9 -14646005.568 9  19286025.454    19286026.773    19286032.024
      1076.717         839.000
  -2125191.949 9  -1643243.17447  22117545.937    22117547.6174   22117552.8534
     -1620.061       -1262.385
   7823281.293 9   6100304.91846  21898275.806    21898277.4254   21898284.5324
     -2613.099       -2036.181
 -13072063.002 9  -9910707.71248  19488777.444    19488778.4974   19488784.5984
       615.328         479.476
  -8767070.978 9  -6821044.70148  19501257.225    19501258.3574   19501264.0734
       386.831         301.427
 -18765241.133 9 -14604846.64747  21605952.354    21605953.5744   21605959.5084
      3742.876        2916.527
 96 10  9 17  4 59.9960000  0  9 22 21  1 28 26  6 23 17  3         -0.003820465
  -3934091.405 9  -3051552.77746  23140839.678    23140840.3254   23140847.3934
      -926.385        -721.858
 -23831384.962 9 -18547860.19448  20647320.657    20647321.7544   20647328.1854
      2728.726        2126.280
  -6302030.884 9  -4557747.95946  23026238.897    23026239.7154   23026248.2224
      4650.013        3623.387
 -18855043.286 9 -14670932.868 9  19279937.936    19279939.271    19279944.553
      1056.490         823.239
  -2076375.256 9  -1605204.21947  22126835.483    22126837.1874   22126842.3694
     -1633.815       -1273.102
   7901789.408 9   6161480.00346  21913215.326    21913217.0214   21913224.2294
     -2620.123       -2041.654
 -13090342.292 9  -9924951.31648  19485298.935    19485300.0694   19485306.1684
       603.890         470.564
  -8778522.025 9  -6829967.61548  19499078.181    19499079.2894   19499084.9944
       377.219         293.937
 -18877359.203 9 -14692211.36647  21584616.922    21584618.1504   21584624.1954
      3731.963        2908.023
 96 10  9 17  5 29.9960000  0  9 22 21  1 28 26  6 23 17  3         -0.003838637
  -3906183.302 9  -3029806.23446  23146150.408    23146151.0954   23146158.1334
      -934.526        -728.202
 -23913118.984 9 -18611549.03248  20631767.194    20631768.2924   20631774.7004
      2719.853        2119.366
  -6441507.660 9  -4666431.09246  22999696.774    22999698.1784   22999706.5824
      4647.953        3621.782
 -18886442.205 9 -14695399.568 9  19273962.941    19273964.282    19273969.552
      1036.291         807.499
  -2027168.529 9  -1566861.34347  22136199.393    22136200.9654   22136206.1484
     -1646.965       -1283.349
   7980487.034 9   6222802.74546  21928191.160    21928192.6494   21928199.9404
     -2627.051       -2047.053
 -13108295.507 9  -9938940.83648  19481882.603    19481883.6994   19481889.7894
       592.596         461.763
  -8789709.540 9  -6838685.17048  19496949.272    19496950.3994   19496956.1194
       368.073         286.810
 -18989155.540 9 -14779325.38547  21563342.775    21563343.9964   21563350.0754
      3720.657        2899.213
 96 10  9 17  5 59.9960000  0  9 22 21  1 28 26  6 23 17  3         -0.003856833
  -3878060.464 9  -3007892.36046  23151501.965    23151502.6774   23151509.7644
      -941.360        -733.527
 -23994602.940 9 -18675043.01048  20616261.252    20616262.3814   20616268.7874
      2711.411        2112.788
  -6580927.998 9  -4775070.25546  22973165.537    22973167.3704   22973175.7084
      4645.916        3620.194
 -18917251.486 9 -14719406.810 9  19268100.105    19268101.476    19268106.753
      1016.745         792.269
  -1977581.668 9  -1528222.26547  22145635.480    22145637.0264   22145642.2614
     -1659.643       -1293.228
   8059385.827 9   6284282.24146  21943204.905    21943206.5864   21943213.9684
     -2633.646       -2052.192
 -13125925.282 9  -9952678.32048  19478527.774    19478528.8774   19478534.9684
       581.838         453.380
  -8800625.126 9  -6847190.83348  19494872.150    19494873.2704   19494878.9664
       358.605         279.432
 -19100623.622 9 -14866183.62447  21542131.212    21542132.3174   21542138.4844
      3709.557        2890.564
 96 10  9 17  6 29.9960000  0 10 22 21  1 28 26  6 23 17  9  3      -0.003875028
  -3849702.475 9  -2985795.26046  23156898.037    23156899.0684   23156906.1164
      -949.060        -739.527
 -24075799.551 9 -18738313.08748  20600809.977    20600811.1684   20600817.5874
      2701.728        2105.243
  -6720263.197 9  -4883643.08446  22946650.892    22946652.7644   22946660.9634
      4643.232        3618.103
 -18947446.527 9 -14742935.424 9  19262354.240    19262355.587    19262360.821
       996.212         776.269
  -1927586.719 9  -1489265.19847  22155149.028    22155150.7174   22155156.0254
     -1673.241       -1303.824
   8138508.396 9   6345936.11046  21958261.360    21958263.1224   21958270.5794
     -2641.163       -2058.049
 -13143218.494 9  -9966153.55748  19475237.020    19475238.0834   19475244.1814
       571.210         445.099
  -8811223.126 9  -6855449.02748  19492855.410    19492856.5304   19492862.2384
       347.954         271.133
  -3379095.43818  -2612209.30755  23924293.311    23924294.1215   23924302.9475
      3144.788        2450.484
 -19211727.287 9 -14952757.91047  21520988.826    21520990.0154   21520996.1954
      3697.350        2881.052
 96 10  9 17  6 59.9960000  0 10 22 21  1 28 26  6 23 17  9  3      -0.003893221
  -3821131.751 9  -2963532.40546  23162334.752    23162335.8874   23162342.9364
      -955.606        -744.628
 -24156719.082 9 -18801367.25448  20585411.527    20585412.7124   20585419.1514
      2692.915        2098.375
  -6859533.137 9  -4992165.05546  22920148.952    22920150.5554   22920158.6914
      4641.550        3616.792
 -18977034.479 9 -14765990.985 9  19256723.855    19256725.199    19256730.426
       976.353         760.795
  -1877190.475 9  -1449995.44047  22164739.249    22164740.8094   22164746.1624
     -1686.455       -1314.121
   8217838.121 9   6407751.39546  21973357.365    21973359.1424   21973366.6784
     -2647.525       -2063.006
 -13160216.023 9  -9979398.38648  19472002.488    19472003.5714   19472009.6654
       562.084         437.988
  -8821509.362 9  -6863464.28648  19490898.031    19490899.1054   19490904.8544
       337.921         263.315
  -3473384.433 8  -2685681.23245  23906350.073    23906351.4074   23906360.2074
      3141.193        2447.683
 -19322469.616 9 -15039050.62847  21499915.312    21499916.4164   21499922.6354
      3685.273        2871.641
 96 10  9 17  7 29.9960000  0 10 22 21  1 28 26  6 23 17  9  3      -0.003911398
  -3792346.683 9  -2941102.51846  23167812.429    23167813.6194   23167820.6004
      -963.960        -751.138
 -24237359.512 9 -18864203.93148  20570066.150    20570067.3204   20570073.7904
      2682.861        2090.541
  -6998734.878 9  -5100633.87546  22893659.726    22893661.2864   22893669.3244
      4638.284        3614.247
 -19006007.692 9 -14788567.521 9  19251210.438    19251211.792    19251217.015
       954.837         744.029
  -1826373.087 9  -1410397.51647  22174409.618    22174411.0514   22174416.4374
     -1701.664       -1325.972
   8297376.790 9   6469729.50446  21988493.133    21988495.0044   21988502.4394
     -2655.325       -2069.084
 -13176932.509 9  -9992424.21948  19468821.406    19468822.5134   19468828.6214
       551.948         430.089
  -8831476.150 9  -6871230.62648  19489001.465    19489002.5214   19489008.2804
       326.108         254.110
  -3567546.012 8  -2759053.90045  23888432.237    23888433.1464   23888441.7374
      3135.987        2443.626
 -19432823.962 9 -15125041.01447  21478915.559    21478916.7124   21478922.9194
      3671.397        2860.829
 96 10  9 17  7 59.9960000  0 10 22 21  1 28 26  6 23 17  9  3      -0.003929564
  -3763340.519 9  -2918500.34846  23173332.303    23173333.3324   23173340.3734
      -970.232        -756.025
 -24317736.389 9 -18926835.25148  20554770.957    20554772.1234   20554778.5774
      2675.288        2084.640
  -7137876.500 9  -5209055.85746  22867181.676    22867183.4674   22867191.4954
      4637.560        3613.683
 -19034371.594 9 -14810669.274 9  19245813.102    19245814.337    19245819.551
       935.727         729.138
  -1775138.372 9  -1370474.41247  22184159.169    22184160.6984   22184166.1414
     -1714.194       -1335.736
   8377103.579 9   6531854.19046  22003664.647    22003666.6204   22003674.0244
     -2660.028       -2072.749
 -13193381.906 9 -10005241.93448  19465691.150    19465692.2894   19465698.3904
       544.214         424.063
  -8841118.901 9  -6878744.48348  19487166.541    19487167.5974   19487173.3474
       316.555         246.666
  -3661587.112 8  -2832332.65645  23870536.483    23870537.7334   23870546.1704
      3133.022        2441.316
 -19542807.538 9 -15210742.50047  21457986.427    21457987.5444   21457993.7724
      3660.442        2852.292
 96 10  9 17  8 29.9960000  0 10 22 21  1 28 26  6 23 17  9  3      -0.003947730
  -3734113.058 9  -2895725.72946  23178894.242    23178895.1624   23178902.2244
      -978.443        -762.423
 -24397859.510 9 -18989268.83548  20539524.008    20539525.2144   20539531.6734
      2665.924        2077.343
  -7276971.090 9  -5317441.18146  22840713.032    22840714.5114   22840722.6584
      4635.012        3611.698
 -19062133.050 9 -14832301.586 9  19240530.209    19240531.514    19240536.708
       914.623         712.693
  -1723504.596 9  -1330240.33947  22193984.555    22193986.2724   22193991.7804
     -1728.329       -1346.750
   8456997.462 9   6594109.09346  22018867.748    22018870.0234   22018877.3994
     -2666.835       -2078.053
 -13209571.863 9 -10017857.48748  19462610.368    19462611.4604   19462617.5104
       534.562         416.542
  -8850458.469 9  -6886022.08448  19485389.299    19485390.3474   19485396.0814
       305.852         238.326
  -3755505.132 8  -2905515.50845  23852664.238    23852665.6534   23852674.3914
      3127.930        2437.348
 -19652434.170 9 -15296165.84147  21437125.066    21437126.2694   21437132.5234
      3647.481        2842.193
 96 10  9 17  8 59.9960000  0 10 22 21  1 28 26  6 23 17  9  3      -0.003965902
  -3704679.842 9  -2872790.79146  23184495.284    23184496.0804   23184503.2414
      -986.395        -768.619
 -24477741.676 9 -19051514.66648  20524322.962    20524324.1414   20524330.6264
      2657.006        2070.394
  -7416024.196 9  -5425794.19046  22814252.226    22814253.4624   22814261.7374
      4632.807        3609.979
 -19089301.319 9 -14853471.675 9  19235360.306    19235361.590    19235366.750
       894.079         696.685
  -1671498.687 9  -1289716.30247  22203881.264    22203882.7364   22203888.2824
     -1741.153       -1356.743
   8537067.584 9   6656501.31246  22034104.784    22034106.8924   22034114.3544
     -2673.824       -2083.499
 -13225503.457 9 -10030271.72348  19459578.662    19459579.7794   19459585.8234
       524.977         409.073
  -8859521.002 9  -6893083.81748  19483664.787    19483665.8444   19483671.5534
       295.909         230.578
  -3849322.615 8  -2978620.01545  23834811.239    23834812.6584   23834821.5454
      3124.160        2434.410
 -19761702.815 9 -15381310.24247  21416331.900    21416333.1284   21416339.3834
      3634.432        2832.025
 96 10  9 17  9 29.9960000  0 10 22 21  1 28 26  6 23 17  9  3      -0.003984050
  -3674981.643 9  -2849649.37446  23190146.671    23190147.4864   23190154.6974
      -994.991        -775.318
 -24557328.812 9 -19113530.60148  20509178.029    20509179.1834   20509185.7014
      2647.437        2062.938
  -7554987.038 9  -5534076.85946  22787808.515    22787809.6974   22787818.0214
      4629.809        3607.643
 -19115827.350 9 -14874141.322 9  19230312.517    19230313.873    19230319.029
       872.833         680.130
  -1619088.892 9  -1248877.54547  22213854.587    22213855.9704   22213861.5854
     -1754.247       -1366.946
   8617381.431 9   6719083.44646  22049388.421    22049390.2124   22049397.6784
     -2681.836       -2089.742
 -13241116.883 9 -10042438.03148  19456607.526    19456608.6884   19456614.6954
       514.316         400.766
  -8868272.904 9  -6899903.48848  19481999.348    19482000.4124   19482006.1374
       285.969         222.833
  -3943000.723 8  -3051615.90945  23816985.076    23816986.1914   23816995.0454
      3119.676        2430.916
 -19870550.929 9 -15466126.95147  21395618.727    21395620.0614   21395626.2724
      3620.667        2821.299
 96 10  9 17  9 59.9960000  0 10 22 21  1 28 26  6 23 17  9  3      -0.004002184
  -3645025.806 9  -2826307.21246  23195847.121    23195847.9414   23195855.0834
     -1002.418        -781.105
 -24636627.294 9 -19175321.61548  20494088.119    20494089.1994   20494095.6794
      2638.671        2056.107
  -7693858.815 9  -5642288.58046  22761382.155    22761383.3104   22761391.5814
      4627.736        3606.028
 -19141713.360 9 -14894312.253 9  19225386.595    19225387.960    19225393.091
       852.460         664.255
  -1566292.080 9  -1207737.22147  22223901.410    22223902.9044   22223908.5344
     -1765.890       -1376.018
   8697945.516 9   6781860.57746  22064719.282    22064721.1154   22064728.5624
     -2689.567       -2095.766
 -13256396.629 9 -10054344.34048  19453699.884    19453701.0574   19453707.0654
       503.889         392.641
  -8876717.760 9  -6906483.90848  19480392.308    19480393.4184   19480399.1324
       276.729         215.633
  -4036544.655 8  -3124507.26345  23799184.446    23799185.5244   23799194.0264
      3116.165        2428.180
 -19978984.490 9 -15550620.63047  21374984.564    21374985.8704   21374992.0624
      3607.629        2811.139
 96 10  9 17 10 29.9950000  0 10 22 21  1 28 26  6 23 17  9  3      -0.004020316
  -3614846.502 9  -2802790.90846  23201590.142    23201590.9124   23201597.9834
     -1010.551        -787.442
 -24715659.981 9 -19236905.51648  20479048.615    20479049.7864   20479056.2444
      2629.349        2048.843
  -7832653.078 9  -5750439.90046  22734970.032    22734971.6334   22734979.7774
      4624.506        3603.511
 -19166988.385 9 -14914007.087 9  19220576.934    19220578.282    19220583.410
       831.659         648.046
  -1513150.092 9  -1166327.93147  22234013.990    22234015.4974   22234021.1384
     -1777.988       -1385.445
   8778743.890 9   6844820.26046  22080094.504    22080096.6364   22080104.0754
     -2698.102       -2102.417
 -13271369.168 9 -10066011.25948  19450850.759    19450851.9084   19450857.9014
       493.400         384.468
  -8884895.266 9  -6912855.99548  19478836.175    19478837.3114   19478843.0464
       267.432         208.389
  -4129980.377 8  -3197314.32845  23781404.268    23781405.3084   23781413.9284
      3112.102        2425.015
 -20087012.927 9 -15634798.62147  21354427.471    21354428.6954   21354434.9464
      3593.450        2800.091
 96 10  9 17 10 59.9950000  0 10 22 21  1 28 26  6 23 17  9  3      -0.004038418
  -3584398.536 9  -2779065.26246  23207384.358    23207384.9664   23207392.1064
     -1018.566        -793.688
 -24794394.530 9 -19298257.10648  20464065.993    20464067.0934   20464073.5644
      2620.442        2041.903
  -7971339.756 9  -5858507.37546  22708578.687    22708580.3604   22708588.4974
      4621.972        3601.537
 -19191622.808 9 -14933202.759 9  19215889.181    19215890.520    19215895.655
       811.446         632.296
  -1459630.656 9  -1124624.52847  22244198.314    22244199.9254   22244205.5564
     -1789.102       -1394.105
   8859813.850 9   6907991.57946  22095521.698    22095523.8514   22095531.2114
     -2705.510       -2108.190
 -13286011.844 9 -10077421.14448  19448064.310    19448065.4964   19448071.4774
       483.692         376.903
  -8892770.124 9  -6918992.26648  19477337.664    19477338.7974   19477344.5394
       258.325         201.292
  -4223276.418 8  -3270012.51445  23763650.336    23763651.5554   23763660.1334
      3108.176        2421.955
 -20194591.920 9 -15718626.40447  21333955.811    21333957.0854   21333963.3584
      3579.375        2789.123
 96 10  9 17 11 29.9950000  0 10 22 21  1 28 26  6 23 17  9  3      -0.004056523
  -3553728.147 9  -2755166.30546  23213220.795    23213221.3644   23213228.5064
     -1025.691        -799.240
 -24872877.277 9 -19359412.47948  20449131.202    20449132.2954   20449138.8014
      2612.319        2035.573
  -8109958.918 9  -5966522.23146  22682200.856    22682202.0134   22682210.1324
      4619.758        3599.811
 -19215664.977 9 -14951936.926 9  19211314.089    19211315.465    19211320.607
       791.857         617.031
  -1405791.769 9  -1082672.19447  22254443.347    22254445.1664   22254450.7694
     -1799.706       -1402.368
   8941075.043 9   6971311.90646  22110985.254    22110987.4234   22110994.7564
     -2711.258       -2112.669
 -13300375.300 9 -10088613.44948  19445331.078    19445332.2414   19445338.2234
       474.242         369.539
  -8900379.316 9  -6924921.52548  19475889.695    19475890.8294   19475896.5794
       249.359         194.306
  -4316449.085 9  -3342614.54945  23745920.037    23745921.3464   23745929.8704
      3103.845        2418.581
 -20301766.848 9 -15802139.33147  21313561.027    21313562.3454   21313568.6404
      3566.150        2778.818
 96 10  9 17 11 59.9950000  0 10 22 21  1 28 26  6 23 17  9  3      -0.004074642
  -3522840.516 9  -2731098.06746  23219098.669    23219099.1664   23219106.3654
     -1033.872        -805.615
 -24951119.788 9 -19420380.66448  20434242.106    20434243.2314   20434249.7194
      2603.293        2028.540
  -8248509.034 9  -6074483.29446  22655835.548    22655836.7254   22655845.0124
      4616.498        3597.271
 -19239120.505 9 -14970213.972 9  19206850.623    19206852.040    19206857.183
       771.439         601.121
  -1351637.576 9  -1040474.16347  22264748.739    22264750.4504   22264756.0064
     -1810.949       -1411.129
   9022502.672 9   7034761.93546  22126480.563    22126482.6984   22126489.9314
     -2717.554       -2117.575
 -13314450.843 9 -10099581.40848  19442652.538    19442653.7454   19442659.7504
       463.834         361.429
  -8907715.316 9  -6930637.89748  19474493.690    19474494.8594   19474500.6304
       239.510         186.631
  -4409493.990 9  -3415117.05645  23728214.201    23728215.4754   23728224.1584
      3098.644        2414.528
 -20408549.547 9 -15885346.62847  21293240.914    21293242.2874   21293248.5934
      3552.305        2768.030
 96 10  9 17 12 29.9950000  0 10 22 21  1 28 26  6 23 17  9  3      -0.004092777
  -3491738.115 9  -2706862.48546  23225017.344    23225017.7934   23225025.0834
     -1039.759        -810.202
 -25029114.621 9 -19481155.84848  20419400.132    20419401.3314   20419407.7674
      2596.047        2022.894
  -8386986.582 9  -6182387.81146  22629484.132    22629485.3774   22629493.6094
      4615.159        3596.228
 -19261993.826 9 -14988037.355 9  19202498.021    19202499.402    19202504.551
       753.127         586.852
  -1297168.512 9   -998030.78447  22275113.834    22275115.6454   22275121.1544
     -1820.753       -1418.769
   9104075.738 9   7098325.28746  22142003.480    22142005.5474   22142012.8124
     -2721.017       -2120.273
 -13328251.828 9 -10110335.43048  19440026.297    19440027.5224   19440033.5344
       455.868         355.222
  -8914792.606 9  -6936152.68248  19473146.943    19473148.0874   19473153.8934
       231.825         180.643
  -4502407.586 9  -3487517.23645  23710533.202    23710534.6014   23710543.1944
      3095.176        2411.825
 -20514946.889 9 -15968253.64047  21272994.125    21272995.5284   21273001.8754
      3540.618        2758.923
 96 10  9 17 12 59.9950000  0 10 22 21  1 28 26  6 23 17  9  3      -0.004110919
  -3460422.862 9  -2682461.03346  23230976.363    23230976.9964   23230984.2314
     -1046.908        -815.772
 -25106839.246 9 -19541720.47748  20404609.630    20404610.8054   20404617.2614
      2586.651        2015.572
  -8525376.646 9  -6290224.13946  22603149.356    22603150.5524   22603158.8354
      4611.815        3593.622
 -19284262.267 9 -15005389.398 9  19198260.481    19198261.849    19198267.018
       732.419         570.716
  -1242350.194 9   -955315.26047  22285545.322    22285547.2344   22285552.7804
     -1832.907       -1428.239
   9185807.925 9   7162012.63046  22157556.553    22157558.7144   22157566.0054
     -2726.684       -2124.689
 -13341750.709 9 -10120854.04548  19437457.526    19437458.7724   19437464.7744
       445.016         346.766
  -8921571.680 9  -6941435.09748  19471856.978    19471858.0954   19471863.8934
       221.145         172.321
  -4595158.896 8  -3559790.93045  23692883.453    23692884.6384   23692893.1404
      3089.339        2407.277
 -20620946.664 9 -16050850.86647  21252822.988    21252824.4414   21252830.8114
      3527.065        2748.362
 96 10  9 17 13 29.9950000  0 10 22 21  1 28 26  6 23 17  9  3      -0.004129086
  -3428927.751 9  -2657919.43046  23236969.836    23236970.4074   23236977.6944
     -1052.820        -820.379
 -25184316.336 9 -19602092.22348  20389866.210    20389867.4064   20389873.8354
      2578.534        2009.247
  -8663696.988 9  -6398006.15146  22576827.601    22576829.0274   22576837.4144
      4609.569        3591.872
 -19305941.003 9 -15022281.933 9  19194135.085    19194136.525    19194141.702
       712.821         555.445
  -1187186.525 9   -912330.62547  22296042.812    22296044.5864   22296050.1504
     -1844.829       -1437.529
   9267670.519 9   7225801.58146  22173134.493    22173136.6624   22173144.0154
     -2730.920       -2127.990
 -13354948.906 9 -10131138.35748  19434945.987    19434947.2444   19434953.2344
       434.939         338.913
  -8928060.752 9  -6946491.53748  19470622.133    19470623.2824   19470629.0594
       211.609         164.890
  -4687777.246 9  -3631961.02645  23675258.487    23675260.0284   23675268.4694
      3085.420        2404.223
 -20726576.753 9 -16133160.02447  21232722.333    21232723.7024   21232730.0244
      3514.879        2738.867
 96 10  9 17 13 59.9950000  0 10 22 21  1 28 26  6 23 17  9  3      -0.004147252
  -3397227.899 9  -2633218.29546  23243002.189    23243002.6984   23243010.0254
     -1059.793        -825.813
 -25261521.742 9 -19662252.27348  20375174.524    20375175.6964   20375182.0814
      2569.093        2001.891
  -8801920.219 9  -6505712.48046  22550524.788    22550525.8944   22550534.3684
      4605.978        3589.074
 -19327004.714 9 -15038695.226 9  19190126.820    19190128.247    19190133.399
       692.020         539.236
  -1131626.264 9   -869036.95647  22306615.716    22306617.3704   22306622.9784
     -1858.522       -1448.199
   9349694.306 9   7289716.12946  22188743.111    22188745.2814   22188752.7384
     -2736.707       -2132.499
 -13367828.852 9 -10141174.68448  19432494.993    19432496.2774   19432502.2374
       424.510         330.787
  -8934246.747 9  -6951311.80248  19469444.958    19469446.1244   19469451.9094
       201.317         156.870
  -4780266.224 9  -3704030.30946  23657658.525    23657659.8414   23657668.3064
      3080.869        2400.677
 -20831820.236 9 -16215167.93347  21212695.156    21212696.5244   21212702.8494
      3501.826        2728.696
 96 10  9 17 14 29.9950000  0 10 22 21  1 28 26  6 23 17  9  3      -0.004165425
  -3365363.257 9  -2608388.74946  23249065.857    23249066.3284   23249073.7194
     -1064.804        -829.717
 -25338480.747 9 -19722220.32248  20360529.682    20360530.8834   20360537.2574
      2561.323        1995.836
  -8940066.825 9  -6613359.11246  22524236.419    22524237.3544   22524245.8964
      4603.591        3587.214
 -19347477.396 9 -15054647.977 9  19186230.966    19186232.436    19186237.597
       672.532         524.051
  -1075680.745 9   -825443.09347  22317261.844    22317263.4694   22317269.0904
     -1871.219       -1458.093
   9431856.690 9   7353738.68546  22204378.323    22204380.4174   22204387.8554
     -2741.190       -2135.992
 -13380441.896 9 -10151003.03748  19430094.843    19430096.0754   19430102.0504
       416.112         324.243
  -8940145.454 9  -6955908.21248  19468322.477    19468323.6314   19468329.4074
       191.505         149.225
  -4872643.929 9  -3776012.87946  23640079.607    23640080.9464   23640089.3834
      3077.411        2397.983
 -20936697.464 9 -16296890.44547  21192737.553    21192739.0294   21192745.3774
      3489.713        2719.257
 96 10  9 17 14 59.9950000  0 10 22 21  1 28 26  6 23 17  9  3      -0.004183597
  -3333329.792 9  -2583427.66446  23255161.428    23255162.1174   23255169.5224
     -1070.992        -834.539
 -25415201.706 9 -19782002.87748  20345930.172    20345931.3684   20345937.7184
      2553.391        1989.655
  -9078129.036 9  -6720939.98646  22497963.967    22497964.9274   22497973.4254
      4600.451        3584.767
 -19367351.742 9 -15070134.493 9  19182448.995    19182450.460    19182455.644
       652.398         508.362
  -1019354.157 9   -781552.28447  22327980.519    22327982.1444   22327987.7894
     -1883.722       -1467.835
   9514175.368 9   7417883.01446  22220043.162    22220045.2204   22220052.7254
     -2746.570       -2140.184
 -13392794.394 9 -10160628.36248  19427744.252    19427745.5084   19427751.4584
       407.359         317.423
  -8945737.275 9  -6960265.49148  19467258.430    19467259.5444   19467265.3194
       181.435         141.378
  -4964908.555 9  -3847907.32046  23622522.140    23622523.6454   23622531.9084
      3073.586        2395.002
 -21041197.130 9 -16378318.74947  21172851.866    21172853.4004   21172859.7354
      3476.814        2709.206
 96 10  9 17 15 29.9950000  0 10 22 21  1 28 26  6 23 17  9  3      -0.004201754
  -3301082.958 9  -2558300.30746  23261297.894    23261298.5054   23261305.9404
     -1079.801        -841.403
 -25491675.071 9 -19841592.50348  20331377.806    20331378.9834   20331385.2864
      2543.719        1982.119
  -9216081.136 9  -6828435.04246  22471712.378    22471713.3434   22471721.9174
      4595.158        3580.643
 -19386609.082 9 -15085140.226 9  19178784.405    19178785.930    19178791.113
       630.326         491.163
   -962645.304 9   -737363.60347  22338771.742    22338773.5314   22338779.2094
     -1897.913       -1478.893
   9596661.160 9   7482157.55346  22235740.054    22235741.8044   22235749.4054
     -2753.797       -2145.816
 -13404884.813 9 -10170049.47448  19425443.537    19425444.7694   19425450.7254
       397.627         309.839
  -8951022.772 9  -6964384.07548  19466252.620    19466253.7764   19466259.5314
       169.873         132.369
  -5057048.307 9  -3919704.48246  23604988.611    23604990.0204   23604998.2694
      3067.795        2390.490
 -21145295.991 9 -16459434.73947  21153042.576    21153044.0364   21153050.4104
      3461.858        2697.552
 96 10  9 17 15 59.9950000  0 10 22 21  1 28 26  6 23 17  9  3      -0.004219884
  -3268612.825 9  -2532998.96246  23267476.789    23267477.3404   23267484.8364
     -1085.652        -845.963
 -25567889.720 9 -19900980.53248  20316874.571    20316875.8024   20316882.0864
      2536.313        1976.348
  -9353905.481 9  -6935830.55946  22445485.337    22445486.1534   22445494.7344
      4592.224        3578.356
 -19405238.582 9 -15099656.735 9  19175239.369    19175240.876    19175246.062
       610.704         475.873
   -905557.092 9   -692879.32546  22349635.494    22349637.0824   22349642.7134
     -1908.637       -1487.250
   9679339.301 9   7546581.96846  22251473.504    22251474.9914   22251482.5834
     -2758.844       -2149.749
 -13416722.391 9 -10179273.56748  19423190.972    19423192.1774   19423198.1084
       390.466         304.259
  -8955996.523 9  -6968259.75248  19465306.173    19465307.3174   19465313.0754
       160.626         125.163
  -5149031.445 8  -3991379.56246  23587485.026    23587486.1484   23587494.3924
      3063.294        2386.982
 -21248977.453 9 -16540225.48047  21133312.549    21133314.0894   21133320.4574
      3449.193        2687.683
 96 10  9 17 16 29.9950000  0 10 22 21  1 28 26  6 23 17  9  3      -0.004238008
  -3235945.521 9  -2507543.98746  23273693.011    23273693.7584   23273701.2854
     -1091.783        -850.740
 -25643847.801 9 -19960168.63348  20302420.176    20302421.4334   20302427.7234
      2528.025        1969.890
  -9491615.273 9  -7043136.81546  22419279.948    22419280.7604   22419289.3044
      4588.874        3575.746
 -19423249.655 9 -15113691.354 9  19171811.990    19171813.491    19171818.702
       590.546         460.166
   -848132.337 9   -648132.81146  22360563.194    22360564.6504   22360570.2264
     -1919.028       -1495.346
   9762192.300 9   7611142.65846  22267240.052    22267241.5084   22267249.1224
     -2764.228       -2153.944
 -13428304.027 9 -10188298.22548  19420987.110    19420988.2744   19420994.2014
       382.049         297.701
  -8960660.175 9  -6971893.78548  19464418.728    19464419.8724   19464425.6314
       150.868         117.559
  -5240839.934 8  -4062918.57646  23570014.242    23570015.4834   23570023.7534
      3057.924        2382.798
 -21352239.638 9 -16620689.52047  21113662.410    21113663.9374   21113670.3104
      3435.458        2676.980
 96 10  9 17 16 59.9950000  0 10 22 21  1 28 26  6 23 17  9  3      -0.004256143
  -3203094.127 9  -2481945.55046  23279944.480    23279945.1894   23279952.7534
     -1098.746        -856.166
 -25719556.655 9 -20019162.54148  20288013.241    20288014.5134   20288020.7904
      2518.739        1962.654
  -9629229.518 9  -7150368.61046  22393092.875    22393093.5434   22393102.1574
      4584.864        3572.621
 -19440664.187 9 -15127261.132 9  19168498.090    19168499.614    19168504.843
       569.924         444.097
   -790411.353 9   -603155.45346  22371547.048    22371548.5944   22371554.1674
     -1929.637       -1503.613
   9845201.143 9   7675824.76546  22283036.263    22283037.7214   22283045.2804
     -2769.962       -2158.412
 -13439629.450 9 -10197123.23248  19418831.909    19418833.0824   19418839.0224
       372.327         290.125
  -8965045.939 9  -6975311.27148  19463584.056    19463585.2944   19463591.0864
       140.986         109.859
  -5332496.406 8  -4134339.13746  23552572.611    23552573.9274   23552582.0564
      3051.946        2378.140
 -21455095.170 9 -16700836.68047  21094089.602    21094091.1514   21094097.5604
      3421.043        2665.748
 96 10  9 17 17 29.9950000  0 10 22 21  1 28 26  6 23 17  9  3      -0.004274257
  -3170007.729 9  -2456164.00146  23286240.638    23286241.4394   23286248.9354
     -1104.665        -860.778
 -25794948.279 9 -20077909.25148  20273666.652    20273667.9554   20273674.2444
      2509.499        1955.454
  -9766691.195 9  -7257481.52246  22366935.001    22366935.4144   22366944.0204
      4581.378        3569.905
 -19457427.798 9 -15140323.701 9  19165308.127    19165309.614    19165314.860
       549.792         428.409
   -732330.108 9   -557897.37746  22382599.446    22382601.1044   22382606.6434
     -1940.354       -1511.964
   9928408.738 9   7740661.76046  22298870.167    22298871.7744   22298879.2434
     -2775.211       -2162.502
 -13450622.126 9 -10205688.96248  19416740.052    19416741.2544   19416747.1664
       362.686         282.612
  -8969093.472 9  -6978465.20948  19462813.839    19462815.1044   19462820.8914
       130.888         101.991
  -5423931.965 8  -4205587.54946  23535172.720    23535174.2494   23535182.4114
      3045.815        2373.362
 -21557483.766 9 -16780619.99747  21074605.682    21074607.2384   21074613.6334
      3407.013        2654.815
 96 10  9 17 17 59.9950000  0 10 22 21  1 28 26  6 23 17  9  3      -0.004292396
  -3136776.799 9  -2430269.81646  23292564.358    23292565.0694   23292572.6494
     -1109.725        -864.721
 -25870074.010 9 -20136448.77948  20259370.767    20259372.0044   20259378.2814
      2499.898        1947.972
  -9904069.737 9  -7364529.66646  22340792.057    22340793.0424   22340801.6914
      4578.199        3567.428
 -19473611.016 9 -15152934.019 9  19162228.536    19162230.045    19162235.314
       530.055         413.030
   -673954.375 9   -512409.83446  22393708.135    22393709.6644   22393715.1844
     -1950.418       -1519.806
  10011750.977 9   7805603.64546  22314729.749    22314731.3304   22314738.9764
     -2779.846       -2166.114
 -13461337.042 9 -10214038.25848  19414701.036    19414702.2524   19414708.1774
       352.529         274.698
  -8972857.663 9  -6981398.36248  19462097.639    19462098.8424   19462104.6324
       121.002          94.287
  -5515196.599 8  -4276702.77846  23517805.854    23517807.2074   23517815.3064
      3039.585        2368.508
 -21659474.284 9 -16860093.13247  21055197.586    21055199.0824   21055205.4484
      3393.338        2644.159
 96 10  9 17 18 29.9950000  0 10 22 21  1 28 26  6 23 17  9  3      -0.004310535
  -3103363.829 9  -2404233.80346  23298922.501    23298923.3554   23298930.9964
     -1117.827        -871.034
 -25944886.757 9 -20194744.41448  20245134.416    20245135.5904   20245141.8694
      2487.732        1938.492
 -10041314.612 9  -7471473.64346  22314674.811    22314676.0754   22314684.7474
      4571.431        3562.154
 -19489172.767 9 -15165060.072 9  19159267.272    19159268.780    19159274.039
       507.451         395.416
   -615239.829 9   -466658.28346  22404880.967    22404882.6294   22404888.2394
     -1963.861       -1530.281
  10095263.421 9   7870678.17346  22330621.890    22330623.2974   22330630.9364
     -2787.620       -2172.171
 -13471719.842 9 -10222128.75448  19412725.216    19412726.4764   19412732.3944
       339.919         264.872
  -8976291.758 9  -6984074.29348  19461444.286    19461445.3714   19461451.1734
       108.094          84.229
  -5606254.761 8  -4347657.12946  23500477.930    23500479.3294   23500487.5014
      3031.194        2361.969
 -21761018.440 9 -16939218.44647  21035874.393    21035875.8784   21035882.2604
      3376.420        2630.977
 96 10  9 17 18 59.9950000  0 10 22 21  1 28 26  6 23 17  9  3      -0.004328665
  -3069771.515 9  -2378058.03546  23305315.065    23305315.8494   23305323.4454
     -1121.786        -874.119
 -26019406.405 9 -20252811.67048  20230953.740    20230954.9764   20230961.2454
      2480.134        1932.572
 -10178423.407 9  -7578311.59546  22288583.923    22288585.0264   22288593.6934
      4568.899        3560.181
 -19504124.300 9 -15176710.636 9  19156422.142    19156423.591    19156428.862
       489.020         381.055
   -556183.762 9   -420640.61946  22416118.813    22416120.6154   22416126.3234
     -1973.463       -1537.763
  10178938.859 9   7935879.70746  22346544.889    22346546.2544   22346553.8884
     -2790.988       -2174.796
 -13481799.784 9 -10229983.26648  19410807.011    19410808.3294   19410814.2464
       331.850         258.584
  -8979403.604 9  -6986499.12848  19460852.084    19460853.2184   19460859.0244
        99.193          77.293
  -5697128.870 8  -4418468.07046  23483184.721    23483186.4174   23483194.6004
      3026.705        2358.471
 -21862125.606 9 -17018003.24947  21016634.305    21016635.8244   21016642.1924
      3363.864        2621.193
 96 10  9 17 19 29.9950000  0 10 22 21  1 28 26  6 23 17  9  3      -0.004346792
  -3036016.303 9  -2351755.31846  23311738.495    23311739.3504   23311746.8864
     -1127.351        -878.455
 -26093651.382 9 -20310664.89348  20216825.338    20216826.5974   20216832.9054
      2470.653        1925.184
 -10315402.612 9  -7685048.56846  22262517.803    22262518.7324   22262527.3294
      4564.388        3556.666
 -19518468.266 9 -15187887.766 9  19153692.523    19153694.037    19153699.317
       468.453         365.028
   -496785.394 9   -374356.21846  22427422.196    22427423.7624   22427429.5424
     -1985.115       -1546.843
  10262765.152 9   8001198.79246  22362496.511    22362497.9484   22362505.6264
     -2796.392       -2179.007
 -13491592.580 9 -10237614.02448  19408943.573    19408944.8794   19408950.7484
       322.396         251.218
  -8982199.278 9  -6988677.59748  19460320.118    19460321.2484   19460327.0624
        88.538          68.991
  -5787812.818 8  -4489130.83746  23465928.139    23465929.7624   23465937.9104
      3020.183        2353.389
 -21962804.045 9 -17096453.97047  20997475.816    20997477.3464   20997483.7284
      3349.187        2609.756
 96 10  9 17 19 59.9950000  0 10 22 21  1 28 26  6 23 17  9  3      -0.004364917
  -3002110.944 9  -2325335.61646  23318190.445    23318191.2844   23318198.8794
     -1133.055        -882.900
 -26167620.682 9 -20368303.30348  20202749.468    20202750.6934   20202757.0194
      2460.907        1917.590
 -10452255.951 9  -7791687.46946  22236475.434    22236476.2744   22236484.8834
      4559.388        3552.770
 -19532205.521 9 -15198592.136 9  19151078.438    19151079.937    19151085.221
       447.475         348.682
   -437060.172 9   -327817.13546  22438787.512    22438789.0674   22438794.8554
     -1996.552       -1555.755
  10346742.498 9   8066635.58246  22378477.068    22378478.3644   22378486.1444
     -2802.046       -2183.412
 -13501120.846 9 -10245038.65548  19407130.486    19407131.7054   19407137.6054
       312.979         243.880
  -8984699.037 9  -6990625.47448  19459844.487    19459845.6024   19459851.4174
        78.188          60.926
  -5878316.942 8  -4559653.46746  23448705.417    23448707.3254   23448715.5014
      3013.783        2348.402
 -22063048.126 9 -17174566.24247  20978400.128    20978401.5494   20978407.9284
      3333.782        2597.752
 96 10  9 17 20 29.9950000  0 10 22 21  1 28 26  6 23 17  9  3      -0.004383019
  -2968023.780 8  -2298774.26846  23324676.878    23324677.9114   23324685.4984
     -1139.408        -887.850
 -26241302.345 9 -20425717.57948  20188728.330    20188729.5234   20188735.8804
      2451.367        1910.156
 -10588955.796 9  -7898206.76946  22210462.231    22210463.1424   22210471.5914
      4554.076        3548.631
 -19545307.008 9 -15208801.104 9  19148585.322    19148586.815    19148592.103
       426.092         332.020
   -376979.945 9   -281001.41546  22450220.359    22450222.0114   22450227.8074
     -2008.541       -1565.097
  10430892.623 9   8132207.00646  22394490.312    22394491.6744   22394499.4384
     -2807.783       -2187.883
 -13510371.759 9 -10252247.16248  19405370.140    19405371.3174   19405377.2014
       304.020         236.899
  -8986876.787 9  -6992322.44448  19459430.055    19459431.2014   19459437.0354
        67.235          52.391
  -5968630.805 8  -4630027.85646  23431519.222    23431521.1094   23431529.2894
      3007.204        2343.276
 -22162819.358 9 -17252310.05547  20959414.292    20959415.7214   20959422.0614
      3317.867        2585.351
 96 10  9 17 20 59.9950000  0 10 22 21  1 28 26  6 23 17  9  3      -0.004401108
  -2933768.821 8  -2272082.15046  23331195.356    23331196.4284   23331203.9814
     -1146.312        -893.230
 -26314721.598 9 -20482927.37748  20174757.083    20174758.2724   20174764.6804
      2441.223        1902.252
 -10725527.836 9  -8004626.48046  22184473.769    22184474.3894   22184482.7234
      4548.692        3544.435
 -19557789.808 9 -15218527.977 9  19146209.986    19146211.404    19146216.697
       404.011         314.814
   -316568.648 9   -233927.73746  22461716.588    22461717.9124   22461723.7504
     -2020.904       -1574.730
  10515185.318 9   8197889.50446  22410530.701    22410532.1294   22410539.9124
     -2813.817       -2192.585
 -13519379.104 9 -10259265.88048  19403656.062    19403657.2894   19403663.1474
       294.263         229.296
  -8988750.748 9  -6993782.69648  19459073.458    19459074.6074   19459080.4824
        55.653          43.366
  -6058764.122 8  -4700261.53046  23414367.467    23414369.2554   23414377.4444
      2999.480        2337.257
 -22262139.515 9 -17329702.38547  20940514.255    20940515.7034   20940522.0374
      3301.316        2572.454
 96 10  9 17 21 29.9950000  0 10 22 21  1 28 26  6 23 17  9  3      -0.004419195
  -2899356.321 8  -2245267.27146  23337743.898    23337744.9164   23337752.4404
     -1149.971        -896.081
 -26387886.363 9 -20539938.87648  20160834.325    20160835.4884   20160841.8804
      2434.483        1897.000
 -10861980.911 9  -8110953.49146  22158507.124    22158508.2344   22158516.4324
      4546.318        3542.585
 -19569657.676 9 -15227775.684 9  19143951.582    19143953.024    19143958.329
       385.267         300.208
   -255836.302 9   -186603.87146  22473273.514    22473274.9374   22473280.7804
     -2029.756       -1581.628
  10599606.144 9   8263671.84946  22426595.459    22426597.0244   22426604.7644
     -2816.260       -2194.488
 -13528141.425 9 -10266093.67748  19401988.602    19401989.8914   19401995.7494
       288.000         224.416
  -8990328.321 9  -6995011.99948  19458773.279    19458774.4194   19458780.3094
        47.475          36.994
  -6148712.766 8  -4770351.32546  23397251.089    23397252.5664   23397260.8014
      2995.220        2333.938
 -22361003.421 9 -17406739.19447  20921701.243    20921702.5334   20921708.8774
      3287.553        2561.730
 96 10  9 17 21 59.9950000  0 10 22 21  1 28 26  6 23 17  9  3      -0.004437308
  -2864824.280 8  -2218359.25146  23344315.441    23344316.2214   23344323.6614
     -1151.435        -897.222
 -26460850.532 9 -20596794.06348  20146949.632    20146950.8494   20146957.2584
      2430.747        1894.089
 -10998357.448 9  -8217220.86146  22132555.333    22132556.6914   22132564.7444
      4546.250        3542.532
 -19580965.133 9 -15236586.706 9  19141799.808    19141801.302    19141806.586
       369.390         287.836
   -194845.913 9   -139078.94646  22484879.587    22484881.0544   22484886.9954
     -2035.527       -1586.125
  10684097.105 8   8329508.84646  22442673.655    22442675.2184   22442682.9354
     -2815.686       -2194.041
 -13536714.837 9 -10272774.26348  19400357.200    19400358.4544   19400364.2924
       284.311         221.541
  -8991656.023 9  -6996046.59348  19458520.570    19458521.7644   19458527.6754
        41.605          32.419
  -6238532.370 8  -4840340.56546  23380159.004    23380160.4574   23380168.6864
      2993.573        2332.654
 -22459458.142 9 -17483457.16147  20902965.907    20902967.2304   20902973.5794
      3276.899        2553.428
 96 10  9 17 22 29.9950000  0 10 22 21  1 28 26  6 23 17  9  3      -0.004455409
  -2830102.481 9  -2191303.35446  23350922.864    23350923.6114   23350931.0034
     -1160.160        -904.021
 -26533567.867 9 -20653456.91448  20133111.991    20133113.1774   20133119.6264
      2420.036        1885.742
 -11134586.540 9  -8323373.33846  22106631.997    22106633.1794   22106641.1324
      4538.644        3536.606
 -19591652.157 9 -15244914.277 9  19139766.142    19139767.654    19139772.912
       346.183         269.753
   -133533.780 9    -91303.31047  22496546.952    22496548.3864   22496554.4234
     -2048.684       -1596.377
  10768710.754 8   8395441.43446  22458774.849    22458776.7134   22458784.4154
     -2822.156       -2199.082
 -13545032.390 9 -10279255.48348  19398774.420    19398775.6774   19398781.5044
       273.129         212.828
  -8992652.636 9  -6996823.19248  19458330.883    19458332.1144   19458338.0384
        28.082          21.882
  -6328150.628 8  -4910172.91946  23363104.917    23363106.5674   23363114.8104
      2984.063        2325.244
 -22557454.510 9 -17559817.96848  20884317.784    20884319.1654   20884325.5104
      3259.347        2539.751
 96 10  9 17 22 59.9950000  0 10 22 21  1 28 26  6 23 17  9  3      -0.004473508
  -2795199.694 9  -2164106.44246  23357564.488    23357565.4444   23357572.8524
     -1165.897        -908.491
 -26606037.633 9 -20709926.84848  20119321.388    20119322.6414   20119329.0644
      2411.952        1879.443
 -11270663.211 9  -8429407.04446  22080737.514    22080738.6694   22080746.4804
      4533.881        3532.894
 -19601720.248 9 -15252759.560 9  19137850.284    19137851.778    19137857.027
       325.712         253.802
    -71908.025 9    -43283.29547  22508273.837    22508275.4284   22508281.5014
     -2058.911       -1604.346
  10853451.582 8   8461473.12246  22474900.183    22474902.3684   22474910.1614
     -2826.670       -2202.600
 -13553073.817 9 -10285521.54248  19397244.248    19397245.4664   19397251.2864
       263.550         205.364
  -8993326.437 9  -6997348.25848  19458202.752    19458203.9274   19458209.8484
        17.539          13.667
  -6417560.097 8  -4979842.58946  23346090.945    23346092.3944   23346100.6464
      2977.350        2320.013
 -22654999.235 9 -17635826.84847  20865755.577    20865757.0194   20865763.3674
      3244.343        2528.059
 96 10  9 17 23 29.9950000  0 10 22 21  1 28 26  6 23 17  9  3      -0.004491601
  -2760116.616 9  -2136769.02846  23364240.745    23364241.4964   23364248.8684
     -1172.603        -913.717
 -26678253.587 9 -20766199.00848  20105579.171    20105580.3994   20105586.8274
      2402.718        1872.248
 -11406582.155 9  -8535317.83947  22054872.853    22054874.0764   22054881.9234
      4527.806        3528.160
 -19611165.356 9 -15260119.401 9  19136052.941    19136054.420    19136059.691
       304.327         237.138
     -9969.701 9      4980.28047  22520060.455    22520061.9494   22520068.0664
     -2069.903       -1612.911
  10938340.626 8   8527620.28846  22491053.756    22491056.1984   22491064.0654
     -2832.379       -2207.049
 -13560813.310 9 -10291552.32548  19395771.454    19395772.6904   19395778.5214
       252.850         197.026
  -8993676.132 9  -6997620.76348  19458136.297    19458137.4384   19458143.3384
         6.062           4.724
  -6506762.181 8  -5049350.65246  23329116.088    23329117.7104   23329125.8964
      2969.757        2314.096
 -22752086.995 9 -17711479.64648  20847280.355    20847281.8574   20847288.1574
      3228.600        2515.792
 96 10  9 17 23 59.9950000  0 10 22 21  1 28 26  6 23 17  9  3      -0.004509716
  -2724896.456 9  -2109324.80046  23370942.903    23370943.7654   23370951.0594
     -1175.729        -916.152
 -26750241.205 9 -20822293.24548  20091880.317    20091881.5944   20091888.0294
      2395.879        1866.919
 -11542375.258 9  -8641130.57747  22029032.132    22029033.4354   22029041.3204
      4524.564        3525.634
 -19620025.523 9 -15267023.448 9  19134366.859    19134368.390    19134373.678
       285.844         222.736
     52238.694 9     53454.30147  22531898.264    22531899.9354   22531906.0074
     -2077.999       -1619.220
  11023357.227 8   8593866.87246  22507232.378    22507234.2294   22507242.0804
     -2835.790       -2209.706
 -13568282.955 9 -10297372.83748  19394350.037    19394351.2914   19394357.1264
       244.606         190.602
  -8993735.793 9  -6997667.27048  19458125.044    19458126.1364   19458132.0244
        -2.657          -2.070
  -6595788.234 8  -5118721.54346  23312174.970    23312176.5934   23312184.7224
      2964.842        2310.266
 -22848772.307 9 -17786818.85048  20828881.829    20828883.2514   20828889.5324
      3216.439        2506.316
 96 10  9 17 24 29.9950000  0 10 22 21  1 28 26  6 23 17  9  3      -0.004527847
  -2689550.769 9  -2081782.75246  23377668.868    23377669.8574   23377677.2914
     -1180.752        -920.066
 -26821981.628 9 -20878194.86148  20078228.632    20078229.8354   20078236.2884
      2386.542        1859.643
 -11678030.738 9  -8746836.07447  22003217.501    22003218.9974   22003226.8904
      4518.893        3521.215
 -19628287.238 9 -15273461.161 9  19132794.705    19132796.242    19132801.540
       264.791         206.331
    114742.243 9    102158.32047  22543792.319    22543794.0054   22543800.1124
     -2088.983       -1627.779
  11108518.132 8   8660225.89045  22523438.019    22523439.8954   22523447.7214
     -2841.698       -2214.310
 -13575460.251 9 -10302965.54348  19392984.234    19392985.5184   19392991.3204
       233.707         182.109
  -8993491.701 9  -6997477.09248  19458171.446    19458172.5934   19458178.4974
       -13.645         -10.632
  -6684628.825 8  -5187947.92446  23295269.230    23295270.7214   23295278.7864
      2957.561        2304.593
 -22945038.671 9 -17861831.59847  20810562.915    20810564.3974   20810570.6394
      3201.032        2494.311
 96 10  9 17 24 59.9950000  0 10 22 21  1 28 26  6 23 17  9  3      -0.004545985
  -2654081.088 9  -2054144.06646  23384418.489    23384419.5774   23384426.8854
     -1184.527        -923.008
 -26893462.277 9 -20933894.06748  20064626.217    20064627.5114   20064633.9774
      2378.168        1853.118
 -11813544.030 9  -8852430.78147  21977429.877    21977431.6484   21977439.4804
      4514.691        3517.941
 -19635946.924 9 -15279429.772 9  19131337.137    19131338.657    19131343.973
       245.291         191.136
    177543.298 9    151094.14747  22555743.268    22555744.7394   22555750.7714
     -2098.206       -1634.966
  11193835.337 8   8726706.69745  22539673.032    22539675.2174   22539683.0794
     -2846.357       -2217.941
 -13582340.177 9 -10308326.53648  19391675.068    19391676.3154   19391682.1304
       224.639         175.043
  -8992949.290 9  -6997054.46548  19458274.651    19458275.8234   19458281.7494
       -23.169         -18.054
  -6773273.596 8  -5257021.70746  23278400.609    23278402.1634   23278410.0984
      2951.409        2299.799
 -23040864.359 9 -17936500.97048  20792327.919    20792329.3874   20792335.6164
      3186.597        2483.062
 96 10  9 17 25 29.9950000  0 10 22 21  1 28 26  6 23 17  9  3      -0.004564116
  -2618469.064 9  -2026394.48646  23391195.273    23391196.3894   23391203.6974
     -1188.363        -925.997
 -26964654.311 9 -20989368.36548  20051078.830    20051080.1004   20051086.5864
      2369.277        1846.190
 -11948894.009 9  -8957898.22547  21951673.705    21951675.4014   21951683.2004
      4509.719        3514.067
 -19642994.330 9 -15284921.273 9  19129996.075    19129997.605    19130002.909
       225.750         175.909
    240646.495 9    200265.41847  22567751.402    22567752.9774   22567758.9224
     -2107.490       -1642.200
  11279295.122 8   8793298.60245  22555935.219    22555937.7124   22555945.6454
     -2849.701       -2220.546
 -13588938.466 9 -10313468.06848  19390419.382    19390420.7004   19390426.5174
       216.546         168.737
  -8992088.898 9  -6996384.05048  19458438.383    19458439.5514   19458445.4834
       -32.971         -25.692
  -6861695.800 8  -5325922.07946  23261574.329    23261575.9084   23261583.7974
      2944.607        2294.499
 -23136219.111 9 -18010803.37548  20774182.499    20774183.9794   20774190.2264
      3171.638        2471.406
 96 10  9 17 25 59.9950000  0 10 22 21  1 28 26  6 23 17  9  3      -0.004582262
  -2582756.257 9  -1998566.35346  23397991.291    23397992.3554   23397999.7734
     -1193.120        -929.704
 -27035598.080 9 -21044649.21848  20037578.672    20037579.9384   20037586.4684
      2359.717        1838.741
 -12084110.064 9  -9063261.31947  21925942.818    21925944.6424   21925952.3824
      4504.031        3509.635
 -19649471.563 9 -15289968.487 9  19128763.452    19128765.032    19128770.345
       205.409         160.059
    304015.529 9    249643.83747  22579810.359    22579811.7704   22579817.7054
     -2117.825       -1650.253
  11364836.792 8   8859954.32245  22572213.236    22572215.8864   22572223.8314
     -2853.503       -2223.509
 -13595313.922 9 -10318435.96648  19389206.139    19389207.5184   19389213.3364
       207.958         162.045
  -8990947.035 9  -6995494.30648  19458655.655    19458656.8444   19458662.8024
       -43.733         -34.078
  -6949929.640 8  -5394675.66146  23244783.800    23244785.5084   23244793.4534
      2937.000        2288.571
 -23231138.275 9 -18084766.36148  20756119.939    20756121.4614   20756127.6884
      3155.495        2458.827
 96 10  9 17 26 29.9950000  0 10 22 21  1 28 26  6 23 17  9  3      -0.004600385
  -2546888.979 9  -1970617.86146  23404816.506    23404817.6994   23404825.0114
     -1197.693        -933.267
 -27106253.295 9 -21099705.21948  20024133.388    20024134.6674   20024141.2444
      2350.998        1831.946
 -12219145.196 9  -9168483.42047  21900246.587    21900248.2514   21900255.9974
      4498.770        3505.535
 -19655328.175 9 -15294532.099 9  19127649.030    19127650.573    19127655.891
       185.485         144.534
    367700.567 9    299268.48146  22591929.248    22591930.6994   22591936.5724
     -2127.244       -1657.593
  11450490.844 8   8926697.61245  22588512.694    22588515.4124   22588523.3614
     -2856.276       -2225.670
 -13601429.348 9 -10323201.24648  19388042.470    19388043.8124   19388049.6094
       200.165         155.973
  -8989470.223 9  -6994343.57048  19458936.672    19458937.8874   19458943.8674
       -54.268         -42.287
  -7037925.180 8  -5463243.56746  23228038.700    23228040.4224   23228048.5384
      2929.666        2282.857
 -23325549.646 9 -18158333.66648  20738153.963    20738155.5564   20738161.8094
      3139.112        2446.061
 96 10  9 17 26 59.9950000  0 10 22 21  1 28 26  6 23 17  9  3      -0.004618513
  -2510890.788 9  -1942567.37046  23411666.851    23411667.9654   23411675.0894
     -1201.961        -936.593
 -27176648.637 9 -21154558.71648  20010737.537    20010738.8614   20010745.4724
      2342.166        1825.064
 -12354035.044 9  -9273592.31947  21874578.261    21874579.4824   21874587.2404
      4494.090        3501.888
 -19660600.972 9 -15298640.791 9  19126645.633    19126647.216    19126652.535
       166.189         129.498
    431644.521 9    349094.88446  22604097.252    22604098.8524   22604104.7334
     -2135.416       -1663.961
  11536212.544 8   8993493.61845  22604825.301    22604827.7274   22604835.8434
     -2858.245       -2227.204
 -13607324.557 9 -10327794.92448  19386920.700    19386921.9964   19386927.7894
       193.105         150.471
  -8987690.455 9  -6992956.75948  19459275.294    19459276.5954   19459282.5744
       -64.176         -50.007
  -7125711.565 8  -5531648.50146  23211333.783    23211335.1984   23211343.2814
      2923.041        2277.694
 -23419489.852 9 -18231533.82448  20720277.697    20720279.2684   20720285.5604
      3123.801        2434.131
 96 10  9 17 27 29.9950000  0 10 22 21  1 28 26  6 23 17  9  3      -0.004636637
  -2474744.871 9  -1914401.72546  23418545.308    23418546.3414   23418553.3944
     -1207.797        -941.141
 -27246753.212 9 -21209185.64748  19997397.050    19997398.4244   19997405.0064
      2331.606        1816.836
 -12488759.208 9  -9378572.11447  21848940.980    21848942.2064   21848950.0374
      4487.501        3496.754
 -19665266.288 9 -15302276.120 9  19125757.869    19125759.442    19125764.766
       144.805         112.835
    495866.340 9    399137.80046  22616318.259    22616319.8714   22616325.8304
     -2146.049       -1672.246
  11622018.639 8   9060355.37545  22621153.957    22621156.0134   22621164.3964
     -2862.573       -2230.576
 -13612980.650 9 -10332202.28248  19385844.336    19385845.6594   19385851.4524
       183.832         143.246
  -8985584.707 9  -6991315.93148  19459676.040    19459677.3174   19459683.3254
       -76.166         -59.350
  -7213270.756 8  -5599876.39146  23194671.926    23194673.2084   23194681.1444
      2914.295        2270.879
 -23512944.880 9 -18304355.92548  20702493.710    20702495.3454   20702501.6744
      3106.661        2420.775
 96 10  9 17 27 59.9950000  0 10 22 21  1 28 26  6 23 17  9  3      -0.004654786
  -2438502.671 9  -1886161.08145  23425442.119    23425442.9964   23425450.1154
     -1210.446        -943.205
 -27316624.243 9 -21263630.60148  19984101.015    19984102.3764   19984108.9624
      2324.300        1811.143
 -12623365.637 9  -9483460.16247  21823326.103    21823327.3914   21823335.2294
      4484.163        3494.153
 -19669366.340 9 -15305470.986 9  19124977.633    19124979.234    19124984.557
       126.422          98.511
    560327.477 9    449367.19846  22628584.604    22628586.4674   22628592.4734
     -2153.371       -1677.951
  11707894.591 8   9127271.55746  22637495.713    22637497.8274   22637506.1934
     -2864.649       -2232.194
 -13618428.802 9 -10336447.60548  19384807.602    19384808.9024   19384814.6764
       177.360         138.203
  -8983199.069 9  -6989457.01048  19460130.086    19460131.3264   19460137.3284
       -84.910         -66.164
  -7300650.644 8  -5667964.55346  23178044.072    23178045.2724   23178053.4214
      2908.865        2266.648
 -23605968.348 9 -18376841.75048  20684791.851    20684793.5854   20684799.8694
      3092.617        2409.831
 96 10  9 17 28 29.9950000  0 10 22 21  1 28 26  6 23 17  9  3      -0.004672935
  -2402134.053 9  -1857821.93045  23432362.755    23432363.7044   23432370.9974
     -1213.341        -945.461
 -27386218.027 9 -21317859.52448  19970857.705    19970859.1214   19970865.6904
      2316.196        1804.828
 -12757812.948 9  -9588224.22747  21797741.666    21797742.7634   21797750.6864
      4479.939        3490.861
 -19672863.512 9 -15308196.075 9  19124312.157    19124313.769    19124319.080
       107.571          83.822
    625057.150 9    499805.84946  22640902.162    22640904.1524   22640910.2954
     -2160.971       -1683.874
  11793883.237 8   9194275.56746  22653858.762    22653861.1874   22653869.4544
     -2867.165       -2234.155
 -13623628.412 9 -10340499.26448  19383818.171    19383819.4534   19383825.2354
       170.130         132.569
  -8980501.413 9  -6987354.96348  19460643.401    19460644.6594   19460650.7024
       -94.023         -73.265
  -7387808.423 8  -5735879.66746  23161457.951    23161459.6144   23161467.8744
      2902.567        2261.740
 -23698512.025 9 -18448953.70748  20667181.504    20667183.1074   20667189.4044
      3077.893        2398.358
 96 10  9 17 28 59.9950000  0 10 22 21  1 28 26  6 23 17  9  3      -0.004691111
  -2365670.715 9  -1829408.97246  23439301.484    23439302.5464   23439309.9214
     -1216.835        -948.183
 -27455562.438 9 -21371894.12848  19957661.981    19957663.3314   19957669.8764
      2307.615        1798.142
 -12892130.607 9  -9692887.26847  21772182.142    21772182.8694   21772190.8454
      4475.237        3487.198
 -19675791.545 9 -15310477.677 9  19123754.986    19123756.601    19123761.907
        88.254          68.769
    690025.167 9    550430.20946  22653265.130    22653267.1084   22653273.3974
     -2169.596       -1690.594
  11879961.572 8   9261349.44346  22670239.319    22670241.4814   22670249.7994
     -2870.760       -2236.956
 -13628606.492 9 -10344378.30248  19382870.839    19382872.1404   19382877.9234
       162.412         126.555
  -8977531.172 9  -6985040.50948  19461208.674    19461209.9014   19461215.9564
      -103.342         -80.526
  -7474767.365 8  -5803639.84246  23144910.373    23144911.8854   23144920.0634
      2895.282        2256.064
 -23790615.309 9 -18520722.50548  20649654.815    20649656.4674   20649662.7084
      3062.898        2386.674
 96 10  9 17 29 29.9950000  0 10 22 21  1 28 26  6 23 17  9  3      -0.004709258
  -2329111.546 9  -1800921.35646  23446258.746    23446259.6204   23446267.0424
     -1222.273        -952.421
 -27524673.591 9 -21425746.96248  19944510.522    19944511.8984   19944518.4534
      2297.987        1790.639
 -13026304.404 9  -9797438.20547  21746649.384    21746650.3894   21746658.3694
      4467.800        3481.403
 -19678143.130 9 -15312310.098 9  19123307.502    19123309.118    19123314.417
        66.683          51.961
    755259.116 9    601261.79646  22665678.470    22665680.7224   22665687.0294
     -2181.172       -1699.615
  11966143.856 8   9328504.30746  22686639.932    22686641.5774   22686649.9684
     -2876.550       -2241.468
 -13633358.383 9 -10348081.08648  19381966.547    19381967.8844   19381973.6804
       152.504         118.834
  -8974282.397 9  -6982509.01448  19461826.905    19461828.1544   19461834.1934
      -115.137         -89.717
  -7561504.041 8  -5871226.83446  23128405.264    23128406.5404   23128414.5524
      2885.396        2248.361
 -23882268.760 9 -18592140.77648  20632213.728    20632215.3824   20632221.6454
      3045.420        2373.055
 96 10  9 17 29 59.9950000  0 10 22 21  1 28 26  6 23 17  9  3      -0.004727397
  -2292393.499 9  -1772309.93446  23453245.980    23453246.9174   23453254.3564
     -1225.185        -954.690
 -27593498.164 9 -21479376.49248  19931413.648    19931415.0124   19931421.5714
      2290.735        1784.988
 -13160249.739 9  -9901811.13047  21721160.426    21721161.4374   21721169.3554
      4462.383        3477.182
 -19679848.769 9 -15313639.187 9  19122982.963    19122984.558    19122989.837
        47.477          36.995
    820832.953 9    652358.23346  22678156.419    22678159.0744   22678165.3554
     -2189.889       -1706.407
  12052489.041 8   9395786.12346  22703071.104    22703072.7794   22703081.1514
     -2879.085       -2243.443
 -13637810.242 9 -10351550.08248  19381119.440    19381120.7534   19381126.5254
       144.871         112.886
  -8970680.439 9  -6979702.31648  19462512.308    19462513.5644   19462519.6404
      -124.624         -97.110
  -7647946.737 8  -5938584.73746  23111955.483    23111957.0314   23111965.0694
      2877.748        2242.401
 -23973398.117 9 -18663150.66748  20614872.502    20614874.0864   20614880.3194
      3030.318        2361.287
 96 10  9 17 30 29.9950000  0 10 22 21  1 28 26  6 23 17  9  3      -0.004745576
  -2255635.340 9  -1743667.25546  23460241.018    23460241.8324   23460249.1764
     -1229.303        -957.898
 -27662148.367 9 -21532870.14448  19918349.899    19918351.2974   19918357.8374
      2282.182        1778.324
 -13294082.620 9 -10006096.43247  21695692.885    21695693.8804   21695701.7344
      4455.862        3472.100
 -19681025.069 9 -15314555.797 9  19122759.107    19122760.726    19122765.981
        27.013          21.049
    886625.054 9    703624.74846  22690676.288    22690678.8854   22690685.1734
     -2200.136       -1714.392
  12138851.943 8   9463081.74346  22719505.284    22719507.2034   22719515.6134
     -2882.311       -2245.957
 -13642081.428 9 -10354878.28348  19380306.604    19380307.9954   19380313.7634
       135.932         105.921
  -8966834.851 9  -6976705.77448  19463244.060    19463245.3854   19463251.4604
      -135.715        -105.752
  -7734208.999 8  -6005802.05546  23095540.506    23095541.7974   23095549.9804
      2869.077        2235.644
 -24064120.771 9 -18733843.63948  20597608.499    20597610.1454   20597616.4074
      3014.007        2348.577
 96 10  9 17 30 59.9950000  0 10 22 21  1 28 26  6 23 17  9  3      -0.004763741
  -2218745.370 9  -1714921.87746  23467260.697    23467261.7134   23467269.2134
     -1230.366        -958.727
 -27730538.520 9 -21586161.16848  19905335.669    19905337.1044   19905343.6304
      2276.691        1774.045
 -13427702.474 9 -10110215.73047  21670265.508    21670266.8194   21670274.6824
      4451.622        3468.796
 -19681576.847 9 -15314985.774 9  19122654.151    19122655.754    19122660.983
         9.391           7.318
    952734.054 9    755138.20546  22703256.554    22703259.1214   22703265.3354
     -2207.476       -1720.111
  12225324.038 8   9530462.43846  22735960.329    22735962.4444   22735970.8404
     -2882.698       -2246.258
 -13646074.850 9 -10357990.05948  19379546.748    19379548.0854   19379553.8714
       129.976         101.280
  -8962640.537 9  -6973437.49348  19464042.199    19464043.5514   19464049.6364
      -144.180        -112.348
  -7820192.314 8  -6072802.00946  23079178.168    23079179.7384   23079187.8234
      2862.944        2230.865
 -24154354.084 9 -18804155.32448  20580437.724    20580439.3614   20580445.6284
      3000.991        2338.435
 96 10  9 17 31 29.9950000  0 10 22 21  1 28 26  6 23 17  9  3      -0.004781930
  -2181799.868 9  -1686133.21546  23474291.171    23474292.2174   23474299.8194
     -1232.471        -960.367
 -27798730.023 9 -21639297.39948  19892359.287    19892360.6924   19892367.2334
      2269.493        1768.436
 -13561154.141 9 -10214203.98947  21644870.481    21644871.8174   21644879.5304
      4445.522        3464.043
 -19681567.731 9 -15314978.690 9  19122655.877    19122657.485    19122662.734
        -9.681          -7.544
   1019089.088 9    806843.36546  22715883.686    22715886.0954   22715892.2574
     -2215.679       -1726.503
  12311827.032 8   9597867.18946  22752421.554    22752423.5454   22752432.0214
     -2883.937       -2247.224
 -13649862.599 9 -10360941.56548  19378826.001    19378827.3544   19378833.1414
       122.878          95.749
  -8958158.398 9  -6969944.93548  19464895.185    19464896.5064   19464902.6024
      -154.174        -120.136
  -7905968.812 8  -6139640.80246  23062855.811    23062857.0104   23062864.9424
      2855.873        2225.356
 -24244151.573 9 -18874127.39748  20563349.850    20563351.4734   20563357.7014
      2985.788        2326.588
 96 10  9 17 31 59.9950000  0 10 22 21  1 28 26  6 23 17  9  3      -0.004800113
  -2144747.902 9  -1657261.62346  23481342.025    23481342.9584   23481350.6114
     -1238.386        -964.976
 -27866647.696 9 -21692220.26048  19879435.001    19879436.4014   19879442.9294
      2257.839        1759.355
 -13694386.009 9 -10318020.97847  21619517.471    21619518.6374   21619526.2234
      4436.186        3456.768
 -19680944.817 9 -15314493.320 9  19122774.422    19122776.030    19122781.269
       -32.399         -25.246
   1085717.728 9    858761.73646  22728562.942    22728565.1834   22728571.2924
     -2226.786       -1735.158
  12398402.817 8   9665328.65546  22768896.330    22768898.3474   22768907.0004
     -2888.464       -2250.751
 -13653396.074 9 -10363694.93448  19378153.611    19378154.9554   19378160.7674
       112.187          87.418
  -8953337.299 9  -6966188.24948  19465812.619    19465813.9284   19465820.0324
      -167.822        -130.770
  -7991492.190 8  -6206282.36146  23046581.031    23046582.4234   23046590.4714
      2845.100        2216.961
 -24333447.332 9 -18943708.50848  20546357.335    20546359.0314   20546365.2694
      2966.540        2311.590
 96 10  9 17 32 29.9950000  0 10 22 21  1 28 26  6 23 17  9  3      -0.004818269
  -2107555.541 9  -1628280.63346  23488419.749    23488420.5864   23488428.2224
     -1242.847        -968.452
 -27934259.164 9 -21744904.52548  19866568.914    19866570.3664   19866576.8634
      2248.012        1751.698
 -13827385.712 9 -10421657.07747  21594208.547    21594209.6604   21594217.1314
      4428.573        3450.836
 -19679680.527 9 -15313508.181 9  19123015.036    19123016.641    19123021.857
       -53.580         -41.751
   1152645.215 9    910912.95146  22741298.579    22741301.0814   22741307.1924
     -2236.623       -1742.823
  12485084.312 8   9732872.49245  22785390.924    22785393.3704   22785402.1164
     -2892.043       -2253.540
 -13656650.160 9 -10366230.59948  19377534.357    19377535.7404   19377541.5244
       103.001          80.261
  -8948148.111 9  -6962144.74248  19466800.161    19466801.4214   19466807.5224
      -179.666        -139.999
  -8076728.565 8  -6272700.29046  23030360.652    23030362.5224   23030370.5244
      2835.586        2209.548
 -24422194.816 9 -19012862.39648  20529469.257    20529470.9694   20529477.1674
      2948.291        2297.370
 96 10  9 17 32 59.9950000  0 10 22 21  1 28 26  6 23 17  9  3      -0.004836411
  -2070252.694 8  -1599213.52946  23495518.222    23495519.0724   23495526.8054
     -1243.913        -969.283
 -28001608.751 9 -21797384.71848  19853752.764    19853754.1524   19853760.6594
      2241.931        1746.959
 -13960173.311 9 -10525127.88947  21568939.863    21568941.0404   21568948.4114
      4424.158        3447.396
 -19677808.620 9 -15312049.571 9  19123371.219    19123372.867    19123378.094
       -71.106         -55.407
   1219832.806 9    963266.86246  22754084.139    22754086.4644   22754092.7044
     -2242.408       -1747.331
  12571845.957 8   9800478.75845  22801901.242    22801903.7034   22801912.5264
     -2891.810       -2253.358
 -13659654.161 9 -10368571.39148  19376962.759    19376964.1214   19376969.9194
        97.454          75.938
  -8942634.638 9  -6957848.55448  19467849.339    19467850.6264   19467856.7264
      -187.742        -146.292
  -8161704.426 9  -6338915.22346  23014190.455    23014192.1784   23014200.0024
      2829.587        2204.873
 -24510422.209 9 -19081611.01848  20512680.206    20512681.8324   20512688.0484
      2933.482        2285.830
 96 10  9 17 33 29.9950000  0 10 22 21  1 28 26  6 23 17  9  3      -0.004854570
  -2032886.600 8  -1570097.15846  23502628.512    23502629.6044   23502637.4524
     -1246.615        -971.388
 -28068742.156 9 -21849696.46148  19840977.719    19840979.1344   19840985.6084
      2234.202        1740.937
 -14092811.003 9 -10628481.90047  21543699.753    21543700.9414   21543708.2344
      4419.007        3443.382
 -19675384.541 9 -15310160.702 9  19123832.496    19123834.157    19123839.425
       -89.955         -70.095
   1287216.236 9   1015773.37446  22766907.025    22766909.1074   22766915.3864
     -2249.248       -1752.661
  12658629.772 8   9868102.30945  22818415.551    22818418.2644   22818427.0684
     -2893.225       -2254.461
 -13662467.013 9 -10370763.23948  19376427.489    19376428.8844   19376434.6594
        90.480          70.504
  -8936852.680 9  -6953343.16248  19468949.523    19468950.9094   19468957.0154
      -197.245        -153.697
  -8246470.337 9  -6404966.55446  22998060.203    22998061.7354   22998069.5164
      2821.834        2198.832
 -24598164.981 9 -19149982.01748  20495983.308    20495984.9634   20495991.1634
      2916.871        2272.886
 96 10  9 17 33 59.9950000  0 10 22 21  1 28 26  6 23 17  9  3      -0.004872734
  -1995413.117 8  -1540897.10446  23509759.660    23509760.5464   23509768.4354
     -1251.644        -975.307
 -28135621.782 9 -21901810.44548  19828250.959    19828252.3714   19828258.8194
      2224.517        1733.390
 -14225275.416 9 -10731700.88347  21518492.666    21518493.7844   21518501.0474
      4411.799        3437.765
 -19672372.786 9 -15307813.898 9  19124405.618    19124407.266    19124412.568
      -110.971         -86.471
   1354830.690 9   1068459.91446  22779773.570    22779775.7574   22779782.0604
     -2258.596       -1759.945
  12745479.262 8   9935777.03245  22834942.449    22834945.1364   22834954.0864
     -2896.853       -2257.288
 -13665041.586 9 -10372769.41148  19375937.556    19375938.9564   19375944.7354
        81.024          63.136
  -8930757.099 9  -6948593.37648  19470109.456    19470110.8544   19470117.0054
      -209.294        -163.086
  -8330974.377 9  -6470813.83346  22981979.675    22981981.0584   22981988.9224
      2811.582        2190.843
 -24685398.609 9 -19217956.27848  20479383.266    20479384.9524   20479391.1454
      2898.639        2258.680
 96 10  9 17 34 29.9950000  0 10 22 21  1 28 26  6 23 17  9  3      -0.004890882
  -1957803.258 8  -1511590.78646  23516916.720    23516917.4934   23516925.3574
     -1255.391        -978.227
 -28202229.983 9 -21953712.93548  19815575.856    19815577.2654   19815583.6664
      2216.071        1726.809
 -14357528.726 9 -10834755.36747  21493325.786    21493326.7514   21493334.0434
      4405.091        3432.538
 -19668742.940 9 -15304985.466 9  19125096.311    19125098.018    19125103.322
      -130.861        -101.970
   1422715.053 9   1121356.76246  22792691.696    22792693.8384   22792700.0744
     -2266.703       -1766.262
  12832431.411 8  10003531.73645  22851489.376    22851491.6354   22851500.7744
     -2899.741       -2259.538
 -13667348.397 9 -10374566.93848  19375498.520    19375499.9574   19375505.7624
        72.949          56.843
  -8924315.438 9  -6943573.92248  19471335.321    19471336.6544   19471342.8294
      -219.976        -171.410
  -8415174.800 9  -6536424.52646  22965957.029    22965958.2994   22965966.0954
      2801.900        2183.299
 -24772105.354 9 -19285519.98348  20462883.456    20462885.2084   20462891.3764
      2882.132        2245.817
 96 10  9 17 34 59.9950000  0 11 22 21  1 28 26  6 23 17  9  3 31   -0.004909034
  -1920080.025 8  -1482196.13646  23524094.976    23524096.1454   23524103.9874
     -1257.417        -979.805
 -28268580.667 9 -22005414.76448  19802949.690    19802951.1554   19802957.5234
      2209.095        1721.373
 -14489575.362 9 -10937648.81047  21468197.933    21468199.0624   21468206.3854
      4399.958        3428.539
 -19664517.095 9 -15301692.622 9  19125900.477    19125902.181    19125907.495
      -148.980        -116.088
   1490831.741 9   1174434.62746  22805653.956    22805656.0734   22805662.3864
     -2272.693       -1770.930
  12919467.809 8  10071352.06745  22868052.001    22868054.2554   22868063.4394
     -2900.766       -2260.337
 -13669415.272 9 -10376177.50548  19375105.224    19375106.6584   19375112.4554
        66.773          52.031
  -8917544.590 9  -6938297.95748  19472623.733    19472625.1104   19472631.2964
      -229.568        -178.884
  -8499084.617 9  -6601808.77146  22949989.621    22949990.7294   22949998.5654
      2794.002        2177.144
 -24858318.392 9 -19352698.97848  20446477.651    20446479.4164   20446485.5754
      2867.093        2234.098
  -1803743.56919  -1359501.14155  23601965.100    23601966.3145   23601973.0815
      4271.783        3328.662
 96 10  9 17 35 29.9950000  0 11 22 21  1 28 26  6 23 17  9  3 31   -0.004927201
  -1882285.262 8  -1452745.74246  23531286.633    23531288.1734   23531296.1224
     -1262.300        -983.610
 -28334696.146 9 -22056933.31048  19790368.317    19790369.7784   19790376.1434
      2198.473        1713.096
 -14621446.275 9 -11040405.32947  21443103.535    21443104.8354   21443112.1194
      4391.269        3421.768
 -19659724.750 9 -15297958.345 9  19126812.424    19126814.152    19126819.472
      -170.607        -132.941
   1559161.508 9   1227678.53946  22818656.674    22818658.8484   22818665.1574
     -2282.659       -1778.695
  13006555.478 8  10139212.38645  22884624.254    22884626.7974   22884635.6594
     -2905.304       -2263.873
 -13671274.498 9 -10377626.27048  19374751.466    19374752.8704   19374758.6674
        57.001          44.416
  -8910465.642 9  -6932781.91348  19473970.796    19473972.2024   19473978.3874
      -242.443        -188.917
  -8582731.654 9  -6666988.25546  22934071.979    22934073.2014   22934080.9844
      2782.371        2168.081
 -24944051.415 9 -19419503.93648  20430163.236    20430165.0004   20430171.1474
      2848.469        2219.586
  -1931762.766 9  -1459256.36945  23577603.864    23577605.0344   23577612.0174
      4262.657        3321.551
 96 10  9 17 35 59.9950000  0 11 22 21  1 28 26  6 23 17  9  3 31   -0.004945355
  -1844390.469 8  -1423217.42146  23538497.942    23538499.3174   23538507.2674
     -1266.781        -987.102
 -28400535.641 9 -22108236.81348  19777839.450    19777840.9284   19777847.2874
      2187.984        1704.923
 -14753088.582 9 -11142983.71547  21418052.745    21418054.0894   21418061.3444
      4381.954        3414.510
 -19654322.171 9 -15293748.566 9  19127840.566    19127842.245    19127847.552
      -192.394        -149.917
   1627749.308 9   1281123.51046  22831708.845    22831710.7584   22831717.0324
     -2292.588       -1786.432
  13093737.914 8  10207146.53845  22901214.223    22901217.2834   22901226.0694
     -2909.637       -2267.250
 -13672881.294 9 -10378878.33248  19374445.720    19374447.1084   19374452.8914
        47.383          36.922
  -8903039.771 9  -6926995.54748  19475383.881    19475385.3124   19475391.4854
      -255.385        -199.001
  -8666066.050 9  -6731924.12846  22918214.180    22918215.1924   22918222.9024
      2770.479        2158.815
 -25029267.981 9 -19485906.46348  20413947.134    20413948.8584   20413955.0094
      2829.674        2204.941
  -2059554.124 9  -1558834.08045  23553285.964    23553287.1184   23553294.1474
      4253.935        3314.755
 96 10  9 17 36 29.9950000  0 11 22 21  1 28 26  6 23 17  9  3 31   -0.004963467
  -1806370.468 8  -1393591.52346  23545733.095    23545734.3394   23545742.3394
     -1267.670        -987.795
 -28466066.092 9 -22159299.49548  19765369.452    19765370.8794   19765377.2334
      2180.858        1699.370
 -14884452.773 9 -11245345.37247  21393054.735    21393056.2624   21393063.5164
      4375.884        3409.780
 -19648275.128 9 -15289036.607 9  19128991.297    19128992.979    19128998.287
      -210.465        -163.999
   1696627.348 9   1334794.64046  22844816.172    22844817.9074   22844824.2114
     -2299.032       -1791.454
  13181040.998 8  10275174.72445  22917827.657    22917830.7404   22917839.4194
     -2910.193       -2267.683
 -13674211.434 9 -10379914.82248  19374192.541    19374193.9774   19374199.7734
        41.477          32.320
  -8895236.303 9  -6920914.95448  19476868.848    19476870.2764   19476876.4564
      -264.549        -206.142
  -8749055.950 9  -6796591.55346  22902421.454    22902422.7524   22902430.3504
      2762.421        2152.536
 -25113923.203 9 -19551871.57748  20397837.770    20397839.4984   20397845.6944
      2814.198        2192.881
  -2187100.465 9  -1658220.86245  23529014.842    23529015.9104   23529022.7584
      4249.362        3311.191
 96 10  9 17 36 59.9950000  0 11 22 21  1 28 26  6 23 17  9  3 31   -0.004981580
  -1768299.985 8  -1363926.30246  23552977.815    23552978.9534   23552987.0214
     -1270.132        -989.713
 -28531355.400 9 -22210174.27348  19752945.297    19752946.7354   19752953.0854
      2171.871        1692.367
 -15015599.703 9 -11347537.75047  21368098.272    21368099.8084   21368107.0734
      4367.350        3403.130
 -19641659.771 9 -15283881.806 9  19130250.161    19130251.832    19130257.180
      -230.458        -179.578
   1765730.524 9   1388641.19446  22857966.124    22857967.8624   22857974.2004
     -2307.883       -1798.350
  13268377.069 8  10343228.62245  22934447.503    22934450.3334   22934458.9744
     -2912.167       -2269.221
 -13675330.657 9 -10380786.95948  19373979.521    19373980.9844   19373986.7874
        33.225          25.890
  -8887130.761 9  -6914598.97048  19478411.263    19478412.7094   19478418.9164
      -275.648        -214.791
  -8831782.587 9  -6861053.84046  22886679.129    22886680.4194   22886688.0144
      2752.799        2145.038
 -25198078.824 9 -19617447.39048  20381823.487    20381825.2354   20381831.4264
      2796.239        2178.888
  -2314487.339 9  -1757483.35745  23504774.165    23504775.2064   23504781.9624
      4243.024        3306.252
 96 10  9 17 37 29.9950000  0 11 22 21  1 28 26  6 23 17  9  3 31   -0.004999686
  -1730187.680 8  -1334228.47546  23560230.491    23560231.5744   23560239.6714
     -1270.865        -990.284
 -28596396.244 9 -22260855.45248  19740568.406    19740569.8664   19740576.2064
      2164.026        1686.254
 -15146516.362 9 -11449550.69247  21343185.570    21343187.1774   21343194.3654
      4360.359        3397.682
 -19634472.626 9 -15278281.457 9  19131617.785    19131619.504    19131624.863
      -248.821        -193.886
   1835078.669 9   1442678.63446  22871162.632    22871164.3914   22871170.7744
     -2315.192       -1804.046
  13355749.707 8  10411311.02045  22951074.686    22951076.8124   22951085.8284
     -2912.847       -2269.751
 -13676227.068 9 -10381485.48048  19373809.011    19373810.4054   19373816.2274
        26.484          20.637
  -8878721.029 9  -6908045.95948  19480011.659    19480013.0614   19480019.2674
      -285.131        -222.180
  -8914243.323 9  -6925308.93146  22870987.533    22870988.6974   22870996.1714
      2744.468        2138.546
 -25281729.217 9 -19682629.52348  20365905.364    20365907.1214   20365913.2804
      2780.445        2166.581
  -2441709.698 9  -1856617.65846  23480564.081    23480565.6884   23480572.3454
      4238.086        3302.405
 96 10  9 17 37 59.9950000  0 11 22 21  1 28 26  6 23 17  9  3 31   -0.005017784
  -1692005.556 9  -1304476.22146  23567496.621    23567497.5594   23567505.4534
     -1273.378        -992.243
 -28661163.981 9 -22311323.81648  19728243.519    19728244.9654   19728251.2704
      2155.067        1679.273
 -15277179.828 9 -11551366.33047  21318321.154    21318322.6654   21318329.9224
      4351.673        3390.914
 -19626693.036 9 -15272219.461 9  19133098.219    19133099.924    19133105.287
      -268.708        -209.383
   1904678.019 9   1496911.82346  22884407.020    22884408.7994   22884415.1464
     -2323.697       -1810.673
  13443184.310 9  10479441.66945  22967713.375    22967715.2994   22967724.2934
     -2915.039       -2271.459
 -13676880.365 9 -10381994.55348  19373684.679    19373686.0954   19373691.9754
        18.240          14.213
  -8869975.639 9  -6901231.39748  19481675.880    19481677.2994   19481683.4944
      -296.685        -231.183
  -8996419.000 9  -6989341.88446  22855349.793    22855351.1214   22855358.6134
      2734.974        2131.149
 -25364866.633 9 -19747411.93048  20350084.915    20350086.6114   20350092.7744
      2763.031        2153.011
  -2568727.809 9  -1955592.80946  23456393.361    23456394.9404   23456401.6604
      4230.653        3296.613
 96 10  9 17 38 29.9940000  0 11 22 21  1 28 26  6 23 17  9  3 31   -0.005035877
  -1653764.761 8  -1274678.27846  23574774.019    23574774.6714   23574782.5914
     -1274.846        -993.386
 -28725676.317 9 -22361593.17448  19715967.282    19715968.7004   19715974.9754
      2146.946        1672.945
 -15407595.455 9 -11652988.85147  21293503.954    21293505.3934   21293512.6524
      4344.237        3385.120
 -19618331.916 9 -15265704.326 9  19134689.311    19134690.997    19134696.391
      -287.612        -224.113
   1974524.288 9   1551337.42046  22897698.080    22897700.1754   22897706.5374
     -2331.507       -1816.759
  13530668.253 8  10547610.79945  22984361.535    22984363.2274   22984372.0584
     -2916.364       -2272.491
 -13677302.524 9 -10382323.52648  19373604.385    19373605.7734   19373611.6564
        11.079           8.633
  -8860902.879 9  -6894161.74648  19483402.391    19483403.8174   19483410.0194
      -307.040        -239.252
  -9078323.415 9  -7053163.48346  22839763.795    22839765.1634   22839772.6484
      2726.486        2124.535
 -25447489.536 9 -19811793.42448  20334362.226    20334364.0054   20334370.1754
      2746.384        2140.039
  -2695526.572 9  -2054397.03546  23432264.478    23432266.0494   23432272.6514
      4223.781        3291.258
